[[{"header":{"parameterUnit":"m.s-1","parameterCategory":1,"la1":30.6,"la2":29.2853,"lo1":-89.7004,"lo2":-87.6739,"dy":0.0162,"dx":0.0183,"nx":112,"ny":82,"refTime":"2026-05-20T12:00:00:Z","depth":0,"parameterNumber":2,"parameterNumberName":"U-component_of_WINDS"},"data":[0.0,0.0,0.0,0.0,0.0,0.0,0.0,0.0,0.0,0.0,0.0,0.0,0.0,0.0,0.0,0.0,0.0,0.0,0.0,0.0,0.0,0.0,0.0,0.0,0.0,0.0,0.0,0.0,0.0,0.0,0.0,0.0,0.0,0.0,0.0,0.0,0.0,0.0,0.0,0.0,0.0,0.0,0.0,0.0,0.0,0.0,0.0,0.0,0.0,0.0,0.0,0.0,0.0,0.0,0.0,0.0,0.0,0.0,0.0,0.0,0.0,0.0,0.0,0.0,0.0,0.0,0.0,0.0,0.0,0.0,0.0,0.0,0.0,0.0,0.0,0.0,0.0,0.0,0.0,0.0,0.0,0.0,0.0,0.0,0.0,0.0,0.0,0.0,0.0,0.0,-1.0741,-1.1391,-1.2609,-1.3396,-1.3396,-1.3396,-1.2728,-1.1204,0.0,0.0,0.0,0.0,0.0,0.0,0.0,0.0,0.0,0.0,0.0,0.0,0.0,0.0,0.0,0.0,0.0,0.0,0.0,0.0,0.0,0.0,0.0,0.0,0.0,0.0,0.0,0.0,0.0,0.0,0.0,0.0,0.0,0.0,0.0,0.0,0.0,0.0,0.0,0.0,0.0,0.0,0.0,0.0,0.0,0.0,0.0,0.0,0.0,0.0,0.0,0.0,0.0,0.0,0.0,0.0,0.0,0.0,0.0,0.0,0.0,0.0,0.0,0.0,0.0,0.0,0.0,0.0,0.0,0.0,0.0,0.0,0.0,0.0,0.0,0.0,0.0,0.0,0.0,0.0,0.0,0.0,0.0,0.0,0.0,0.0,0.0,0.0,0.0,0.0,0.0,0.0,0.0,0.0,0.0,0.0,0.0,0.0,0.0,0.0,0.0,0.0,0.0,0.0,-1.1526,-1.2905,-1.3261,-1.3396,-1.3396,-1.3396,-1.2728,-1.1204,0.0,0.0,0.0,0.0,0.0,0.0,0.0,0.0,0.0,0.0,0.0,0.0,0.0,0.0,0.0,0.0,0.0,0.0,0.0,0.0,0.0,0.0,0.0,0.0,0.0,0.0,0.0,0.0,0.0,0.0,0.0,0.0,0.0,0.0,0.0,0.0,0.0,0.0,0.0,0.0,0.0,0.0,0.0,0.0,0.0,0.0,0.0,0.0,0.0,0.0,0.0,0.0,0.0,0.0,0.0,0.0,0.0,0.0,0.0,0.0,0.0,0.0,0.0,0.0,0.0,0.0,0.0,0.0,0.0,0.0,0.0,0.0,0.0,0.0,0.0,0.0,0.0,0.0,0.0,0.0,0.0,0.0,0.0,0.0,0.0,0.0,0.0,0.0,0.0,0.0,0.0,0.0,0.0,0.0,0.0,0.0,0.0,0.0,0.0,0.0,0.0,0.0,0.0,-1.1164,-1.1695,-1.3244,-1.3396,-1.3396,-1.3396,-1.3396,-1.2728,-1.1204,-1.1103,0.0,0.0,0.0,0.0,0.0,0.0,0.0,0.0,0.0,0.0,0.0,0.0,0.0,0.0,0.0,0.0,0.0,0.0,0.0,0.0,0.0,0.0,0.0,0.0,0.0,0.0,0.0,0.0,0.0,0.0,0.0,0.0,0.0,0.0,0.0,0.0,0.0,0.0,0.0,0.0,0.0,0.0,0.0,0.0,0.0,0.0,0.0,0.0,0.0,0.0,0.0,0.0,0.0,0.0,0.0,0.0,0.0,0.0,0.0,0.0,0.0,0.0,0.0,0.0,0.0,0.0,0.0,0.0,0.0,0.0,0.0,0.0,0.0,0.0,0.0,0.0,0.0,0.0,0.0,0.0,0.0,0.0,0.0,0.0,0.0,0.0,0.0,0.0,0.0,0.0,0.0,0.0,0.0,0.0,0.0,0.0,0.0,0.0,0.0,0.0,0.0,0.0,-1.1797,-1.2085,-1.3278,-1.3396,-1.3396,-1.3396,-1.3244,-1.2558,-1.1188,-1.0944,0.0,0.0,0.0,0.0,0.0,0.0,0.0,0.0,0.0,0.0,0.0,0.0,0.0,0.0,0.0,0.0,0.0,0.0,0.0,0.0,0.0,0.0,0.0,0.0,0.0,0.0,0.0,0.0,0.0,0.0,0.0,0.0,0.0,0.0,0.0,0.0,0.0,0.0,0.0,0.0,0.0,0.0,0.0,0.0,0.0,0.0,0.0,0.0,0.0,0.0,0.0,0.0,0.0,0.0,0.0,0.0,0.0,0.0,0.0,0.0,0.0,0.0,0.0,0.0,0.0,0.0,0.0,0.0,0.0,0.0,0.0,0.0,0.0,0.0,0.0,0.0,0.0,0.0,0.0,0.0,0.0,0.0,0.0,0.0,0.0,0.0,0.0,0.0,0.0,0.0,0.0,0.0,0.0,0.0,0.0,0.0,0.0,0.0,0.0,0.0,0.0,0.0,-1.2389,-1.3278,-1.3396,-1.3396,-1.3396,-1.3396,-1.2778,-1.2009,-1.1147,-1.0463,0.0,0.0,0.0,0.0,0.0,0.0,0.0,0.0,0.0,0.0,0.0,0.0,0.0,0.0,0.0,0.0,0.0,0.0,0.0,0.0,0.0,0.0,0.0,0.0,0.0,0.0,0.0,0.0,0.0,0.0,0.0,0.0,0.0,0.0,0.0,0.0,0.0,0.0,0.0,0.0,0.0,0.0,0.0,0.0,0.0,0.0,0.0,0.0,0.0,0.0,0.0,0.0,0.0,0.0,0.0,0.0,0.0,0.0,0.0,0.0,0.0,0.0,0.0,0.0,0.0,0.0,0.0,0.0,0.0,0.0,0.0,0.0,0.0,0.0,0.0,0.0,0.0,0.0,0.0,0.0,0.0,0.0,0.0,0.0,0.0,0.0,0.0,0.0,0.0,0.0,0.0,0.0,0.0,0.0,0.0,0.0,0.0,0.0,0.0,0.0,0.0,0.0,-1.2051,-1.2897,0.0,-1.3396,-1.3396,-1.3396,-1.3159,-1.2457,-1.1188,0.0,0.0,0.0,0.0,0.0,0.0,0.0,0.0,0.0,0.0,0.0,0.0,0.0,0.0,0.0,0.0,0.0,0.0,0.0,0.0,0.0,0.0,0.0,0.0,0.0,0.0,0.0,0.0,0.0,0.0,0.0,0.0,0.0,0.0,0.0,0.0,0.0,0.0,0.0,0.0,0.0,0.0,0.0,0.0,0.0,0.0,0.0,0.0,0.0,0.0,0.0,0.0,0.0,0.0,0.0,0.0,0.0,0.0,0.0,0.0,0.0,0.0,0.0,0.0,0.0,0.0,0.0,0.0,0.0,0.0,0.0,0.0,0.0,0.0,0.0,0.0,0.0,0.0,0.0,0.0,0.0,0.0,0.0,0.0,0.0,0.0,0.0,0.0,0.0,0.0,0.0,0.0,0.0,0.0,0.0,0.0,0.0,0.0,0.0,0.0,0.0,0.0,-1.1035,-1.2017,-1.2846,0.0,-1.3396,-1.3396,-1.3396,-1.3193,-1.2491,-1.118,0.0,0.0,0.0,0.0,0.0,0.0,0.0,0.0,0.0,0.0,0.0,0.0,0.0,0.0,0.0,0.0,0.0,0.0,0.0,0.0,0.0,0.0,0.0,0.0,0.0,0.0,0.0,0.0,0.0,0.0,0.0,0.0,0.0,0.0,0.0,0.0,0.0,0.0,0.0,0.0,0.0,0.0,0.0,0.0,0.0,0.0,0.0,0.0,0.0,0.0,0.0,0.0,0.0,0.0,0.0,0.0,0.0,0.0,0.0,0.0,0.0,0.0,0.0,0.0,0.0,0.0,0.0,0.0,0.0,0.0,0.0,0.0,0.0,0.0,0.0,0.0,0.0,0.0,0.0,0.0,0.0,0.0,0.0,0.0,0.0,0.0,0.0,0.0,0.0,0.0,0.0,0.0,0.0,0.0,0.0,0.0,0.0,0.0,0.0,0.0,0.0,0.0,-1.1113,-1.244,-1.3396,-1.3396,-1.3396,-1.3396,-1.3396,-1.2728,-1.1975,0.0,0.0,0.0,0.0,0.0,0.0,0.0,0.0,0.0,0.0,0.0,0.0,0.0,0.0,0.0,0.0,0.0,0.0,0.0,0.0,0.0,0.0,0.0,0.0,0.0,0.0,0.0,0.0,0.0,0.0,0.0,0.0,0.0,0.0,0.0,0.0,0.0,0.0,0.0,0.0,0.0,0.0,0.0,0.0,0.0,0.0,0.0,0.0,0.0,0.0,0.0,0.0,0.0,0.0,0.0,0.0,0.0,0.0,0.0,0.0,0.0,0.0,0.0,0.0,0.0,0.0,0.0,0.0,0.0,0.0,0.0,0.0,0.0,0.0,0.0,0.0,0.0,0.0,0.0,0.0,0.0,0.0,0.0,0.0,0.0,0.0,0.0,0.0,0.0,0.0,0.0,0.0,0.0,0.0,0.0,0.0,0.0,0.0,0.0,0.0,0.0,0.0,0.0,-1.1874,-1.2795,-1.3396,-1.3396,-1.3396,-1.3396,-1.3396,-1.321,-1.2508,-1.118,0.0,0.0,0.0,0.0,0.0,0.0,0.0,0.0,0.0,0.0,0.0,0.0,0.0,0.0,0.0,0.0,0.0,0.0,0.0,0.0,0.0,0.0,0.0,0.0,0.0,0.0,0.0,0.0,0.0,0.0,0.0,0.0,0.0,0.0,0.0,0.0,0.0,0.0,0.0,0.0,0.0,0.0,0.0,0.0,0.0,0.0,0.0,0.0,0.0,0.0,0.0,0.0,0.0,0.0,0.0,0.0,0.0,0.0,0.0,0.0,0.0,0.0,0.0,0.0,0.0,0.0,0.0,0.0,0.0,0.0,0.0,0.0,0.0,0.0,0.0,0.0,0.0,0.0,0.0,0.0,0.0,0.0,0.0,0.0,0.0,0.0,0.0,0.0,0.0,0.0,0.0,0.0,0.0,0.0,0.0,0.0,0.0,0.0,0.0,0.0,0.0,0.0,-1.2195,-1.2948,-1.3396,-1.3396,-1.3396,-1.3396,-1.3396,-1.3396,-1.2728,-1.1204,0.0,0.0,0.0,0.0,0.0,0.0,0.0,0.0,0.0,0.0,0.0,0.0,0.0,0.0,0.0,0.0,0.0,0.0,0.0,0.0,0.0,0.0,0.0,0.0,0.0,0.0,0.0,0.0,0.0,0.0,0.0,0.0,0.0,0.0,0.0,0.0,0.0,0.0,0.0,0.0,0.0,0.0,0.0,0.0,0.0,0.0,0.0,0.0,0.0,0.0,0.0,0.0,0.0,0.0,0.0,0.0,0.0,0.0,0.0,0.0,0.0,0.0,0.0,0.0,0.0,0.0,0.0,0.0,0.0,0.0,0.0,0.0,0.0,0.0,0.0,0.0,0.0,0.0,0.0,0.0,0.0,0.0,0.0,0.0,0.0,0.0,0.0,0.0,0.0,0.0,0.0,0.0,0.0,0.0,0.0,0.0,0.0,0.0,0.0,0.0,0.0,0.0,-1.228,-1.2982,-1.3396,-1.3396,-1.3396,-1.3396,-1.3396,-1.3396,-1.2762,-1.1299,0.0,0.0,0.0,0.0,0.0,0.0,0.0,0.0,0.0,0.0,0.0,0.0,0.0,0.0,0.0,0.0,0.0,0.0,0.0,0.0,0.0,0.0,0.0,0.0,0.0,0.0,0.0,0.0,0.0,0.0,0.0,0.0,0.0,0.0,0.0,0.0,0.0,0.0,0.0,0.0,0.0,0.0,0.0,0.0,0.0,0.0,0.0,0.0,0.0,0.0,0.0,0.0,0.0,0.0,0.0,0.0,0.0,0.0,0.0,0.0,-1.1533,-1.0944,0.0,0.0,0.0,0.0,0.0,0.0,0.0,0.0,0.0,0.0,0.0,0.0,0.0,0.0,0.0,0.0,0.0,0.0,0.0,0.0,0.0,0.0,0.0,0.0,0.0,0.0,0.0,0.0,0.0,0.0,0.0,0.0,0.0,0.0,0.0,0.0,0.0,0.0,0.0,0.0,-1.299,-1.3295,-1.3396,-1.3396,-1.3396,-1.3396,-1.3396,-1.3396,-1.3015,-1.2094,-1.1451,0.0,0.0,0.0,0.0,0.0,0.0,0.0,0.0,0.0,0.0,0.0,0.0,0.0,0.0,0.0,0.0,0.0,0.0,0.0,0.0,0.0,0.0,0.0,0.0,0.0,0.0,0.0,0.0,0.0,0.0,0.0,0.0,0.0,0.0,0.0,0.0,0.0,0.0,0.0,0.0,0.0,0.0,0.0,0.0,0.0,0.0,0.0,0.0,0.0,0.0,0.0,0.0,0.0,0.0,0.0,0.0,0.0,0.0,0.0,-1.348,-1.2757,0.0,0.0,0.0,0.0,0.0,0.0,0.0,0.0,0.0,0.0,0.0,0.0,0.0,0.0,0.0,0.0,0.0,0.0,0.0,0.0,0.0,0.0,0.0,0.0,0.0,0.0,0.0,0.0,0.0,0.0,0.0,0.0,0.0,0.0,0.0,0.0,0.0,0.0,0.0,0.0,-1.3261,-1.3396,-1.3396,-1.3396,-1.3269,-1.3269,-1.3388,-1.3286,-1.2941,-1.234,-1.1908,0.0,0.0,0.0,0.0,0.0,0.0,0.0,0.0,0.0,0.0,0.0,0.0,0.0,0.0,0.0,0.0,0.0,0.0,0.0,0.0,0.0,0.0,0.0,0.0,0.0,0.0,0.0,0.0,0.0,0.0,0.0,0.0,0.0,0.0,0.0,0.0,0.0,0.0,0.0,0.0,0.0,0.0,0.0,0.0,0.0,0.0,0.0,0.0,0.0,0.0,0.0,0.0,0.0,-1.5566,-1.592,-1.7073,-1.6076,-1.62,-1.712,-1.5893,-1.5165,-1.4804,-1.3782,0.0,0.0,0.0,0.0,0.0,0.0,0.0,0.0,0.0,0.0,0.0,0.0,0.0,0.0,0.0,0.0,0.0,0.0,0.0,0.0,0.0,0.0,-1.5041,-1.5688,-1.5855,-1.5419,-1.3852,0.0,0.0,0.0,0.0,0.0,0.0,0.0,0.0,0.0,0.0,0.0,-1.3312,-1.3396,-1.3396,-1.3396,-1.32,-1.3156,-1.3379,-1.3191,-1.2906,-1.2526,-1.2365,-1.1739,0.0,0.0,0.0,0.0,0.0,0.0,0.0,0.0,0.0,0.0,0.0,0.0,0.0,0.0,0.0,0.0,0.0,0.0,0.0,0.0,0.0,0.0,0.0,0.0,0.0,0.0,0.0,0.0,0.0,0.0,0.0,0.0,-0.8572,-0.9233,0.0,0.0,0.0,0.0,0.0,0.0,0.0,0.0,0.0,0.0,0.0,0.0,0.0,-1.5435,-1.5325,-1.7557,-1.8702,-1.8816,-1.9613,-2.0104,-2.0268,-1.9596,-1.9248,-1.9114,-1.8854,0.0,-1.5927,-1.5151,0.0,0.0,0.0,0.0,0.0,0.0,0.0,0.0,0.0,0.0,0.0,0.0,0.0,0.0,0.0,0.0,0.0,0.0,0.0,0.0,0.0,0.0,-1.6275,-1.5753,-1.5644,-1.5627,-1.554,-1.5118,-1.4508,-1.3726,-1.3105,-1.2376,0.0,0.0,0.0,0.0,0.0,0.0,-1.3312,-1.3396,-1.3396,-1.3396,-1.3371,-1.3363,-1.3396,-1.3363,-1.3329,-1.3252,-1.266,-1.2212,-1.2009,-1.1333,0.0,0.0,0.0,0.0,0.0,0.0,0.0,0.0,0.0,0.0,0.0,0.0,0.0,0.0,0.0,0.0,0.0,0.0,0.0,0.0,0.0,0.0,0.0,0.0,0.0,0.0,0.0,0.0,0.0,-0.8124,-0.9655,-1.1229,-1.1441,-1.1352,0.0,0.0,0.0,0.0,0.0,0.0,0.0,0.0,0.0,-1.5091,-1.7177,-1.8319,-1.8401,-1.994,-2.0711,-2.0711,-2.0833,-2.0909,-2.0888,-2.0288,-2.0157,-2.0421,-1.9706,-1.8996,-1.8235,-1.6888,-1.5861,-1.5059,0.0,0.0,0.0,0.0,-1.5603,-1.6004,-1.6885,-1.677,-1.624,-1.6212,0.0,0.0,0.0,0.0,0.0,0.0,0.0,-1.6248,-1.6329,-1.683,-1.7337,-1.7422,-1.7134,-1.6851,-1.6945,-1.6754,-1.6279,-1.5336,-1.5234,-1.4744,-1.2997,-1.3355,0.0,0.0,0.0,-1.4259,-1.4589,-1.464,-1.464,-1.464,-1.4133,-1.3854,-1.4013,-1.3503,-1.3234,-1.3388,-1.31,-1.2914,-1.2914,-1.2186,-1.1468,0.0,0.0,0.0,0.0,0.0,0.0,0.0,0.0,0.0,0.0,0.0,0.0,0.0,0.0,0.0,0.0,0.0,0.0,0.0,0.0,0.0,0.0,0.0,0.0,0.0,0.0,0.0,0.0,-0.9579,-1.0949,-1.2788,-1.3238,-1.3321,0.0,0.0,0.0,0.0,0.0,0.0,-1.4289,-1.6272,-1.7501,-1.776,-1.9666,-2.0731,-2.0823,-2.1596,-2.199,-2.1963,-2.1572,-2.1361,-2.1339,-2.0822,-2.084,-2.125,-2.0247,-1.9906,-1.994,-1.8219,-1.7043,-1.6248,-1.574,-1.5658,-1.59,-1.6459,-1.6783,-1.7101,-1.8254,-1.8313,-1.7866,-1.7588,-1.7633,-1.7552,-1.6425,0.0,0.0,0.0,0.0,-1.7659,-1.8222,-1.8358,-1.8442,-1.8809,-1.8488,-1.802,-1.7834,-1.78,-1.7509,-1.6521,-1.6814,-1.6596,-1.4601,-1.5124,0.0,-1.429,0.0,-1.5595,-1.5595,-1.5595,-1.5595,-1.5595,-1.4926,-1.456,-1.4765,-1.4095,-1.3759,-1.3954,-1.3725,-1.3581,-1.3581,-1.2807,-1.229,-1.2106,0.0,0.0,0.0,0.0,0.0,0.0,0.0,0.0,0.0,0.0,0.0,0.0,0.0,0.0,0.0,0.0,0.0,0.0,0.0,0.0,0.0,0.0,0.0,0.0,0.0,0.0,0.0,0.0,0.0,-1.4021,-1.4964,0.0,0.0,0.0,0.0,-1.5441,-1.6064,-1.6757,-1.753,-1.9176,-2.0109,-2.0127,-2.1176,-2.173,-2.1721,-2.2214,-2.2455,-2.2473,-2.2564,-2.2612,-2.2586,-2.2307,-2.1962,-2.1562,-2.1116,-2.0669,-2.0176,-1.8749,-1.7944,-1.7609,-1.7579,-1.7549,-1.758,-1.761,-1.7835,-1.813,-1.8192,-1.845,-1.8842,-1.9509,-1.9549,-1.9223,-1.8841,-1.8724,0.0,0.0,-1.927,-1.9833,-1.9883,-1.9883,-1.9714,-1.9063,-1.8872,-1.8657,-1.7952,-1.78,-1.7574,-1.6821,-1.6713,-1.6475,-1.5642,0.0,-1.5598,-1.5513,-1.5554,-1.5595,-1.5595,-1.5595,-1.5595,-1.5595,-1.5552,-1.5535,-1.5544,-1.5501,-1.5467,-1.5494,-1.4584,-1.405,-1.405,-1.3105,-1.2258,-1.1557,-1.1468,0.0,0.0,0.0,0.0,0.0,0.0,0.0,0.0,0.0,0.0,0.0,0.0,0.0,0.0,0.0,0.0,0.0,0.0,0.0,0.0,0.0,0.0,0.0,0.0,0.0,0.0,0.0,0.0,-1.5062,-1.5947,0.0,-1.6065,-1.6046,-1.6383,-1.7179,-1.7917,-1.8692,-1.9488,-2.1131,-2.2045,-2.2045,-2.2896,-2.3336,-2.3336,-2.3303,-2.3267,-2.3267,-2.288,-2.2708,-2.2682,-2.2426,-2.2285,-2.221,-2.1811,-2.1613,-2.1525,-2.0771,-1.962,-1.8386,-1.8822,-1.8513,-1.7928,-1.8701,-1.8852,-1.8702,-1.9045,-1.9265,-1.9436,-1.9783,-1.9531,-1.9128,-1.95,-1.9608,-1.9608,-1.9608,-1.9811,-2.0132,-2.0636,-2.0386,-2.0065,-2.0327,-1.9616,-1.8826,-1.8555,-1.8149,-1.7715,-1.7456,-1.7405,-1.7168,-1.6434,-1.6695,-1.6847,-1.6384,-1.6712,-1.7033,-1.7033,-1.7033,-1.7033,-1.7033,-1.6587,-1.6216,-1.6005,-1.5755,-1.5499,-1.529,-1.4533,-1.4106,-1.4106,-1.3125,-1.2479,-1.2205,-1.1737,-1.0941,0.0,0.0,0.0,0.0,0.0,0.0,0.0,0.0,0.0,0.0,0.0,0.0,0.0,0.0,0.0,0.0,0.0,0.0,0.0,0.0,0.0,0.0,0.0,0.0,0.0,0.0,-1.5273,-1.6103,-1.7341,-1.8009,-1.7741,-1.8218,-1.8738,-1.9146,-1.9911,-2.057,-2.0979,-2.2322,-2.3075,-2.3075,-2.3684,-2.4026,-2.4026,-2.3692,-2.3533,-2.3522,-2.3127,-2.2938,-2.2942,-2.3017,-2.2929,-2.2752,-2.2484,-2.2281,-2.2079,-2.1798,-2.0917,-1.9765,-2.0202,-1.9748,-1.8931,-1.9742,-1.9812,-1.9556,-1.9912,-2.0034,-2.0059,-2.0208,-1.9983,-1.9747,-2.0545,-2.0792,-2.0792,-2.0792,-2.0792,-2.0893,-2.1431,-2.1177,-2.0842,-2.1123,-2.0213,-1.927,-1.927,-1.8691,-1.8239,-1.8493,-1.8138,-1.7631,-1.7162,-1.7473,-1.7642,-1.7145,-1.749,-1.78,-1.78,-1.78,-1.78,-1.78,-1.7354,-1.6941,-1.6599,-1.6429,-1.6145,-1.5695,-1.5033,-1.462,-1.4519,-1.3315,-1.2671,-1.2671,-1.1652,-1.0885,-1.0371,0.0,0.0,0.0,0.0,0.0,0.0,0.0,0.0,0.0,0.0,0.0,0.0,0.0,0.0,0.0,0.0,0.0,0.0,0.0,0.0,0.0,0.0,0.0,-1.4936,-1.554,-1.6317,-1.7166,-1.9187,-2.0207,-1.9444,-2.0839,-2.167,-2.1355,-2.2056,-2.2364,-2.2057,-2.2788,-2.32,-2.32,-2.3522,-2.3682,-2.3682,-2.3357,-2.3195,-2.323,-2.334,-2.341,-2.346,-2.4169,-2.4016,-2.3152,-2.3151,-2.2623,-2.1774,-2.1774,-2.1754,-2.1754,-2.1739,-2.1324,-2.0702,-2.0752,-2.0752,-2.0734,-2.0719,-2.0718,-2.0768,-2.0966,-2.1023,-2.1198,-2.2034,-2.2296,-2.2296,-2.2296,-2.2296,-2.2296,-2.2296,-2.2296,-2.211,-2.141,-2.0619,-2.0035,-2.0035,-1.9456,-1.9147,-1.9849,-1.8848,-1.7867,-1.7867,-1.7867,-1.7867,-1.7834,-1.7834,0.0,-1.78,-1.78,-1.78,-1.7789,-1.7789,-1.7647,-1.7296,-1.7589,-1.7496,-1.6828,-1.6152,-1.5646,-1.5316,-1.3703,-1.2819,-1.2807,-1.1249,-1.0531,-1.0727,0.0,0.0,0.0,0.0,0.0,0.0,0.0,0.0,0.0,0.0,0.0,0.0,0.0,0.0,0.0,0.0,0.0,0.0,0.0,0.0,0.0,-1.4463,-1.5146,-1.581,-1.7037,-1.8136,-1.8851,-1.9994,-2.0825,-2.1095,-2.1519,-2.1908,-2.2149,-2.2363,-2.2608,-2.2864,-2.3082,-2.32,-2.32,-2.33,-2.3335,-2.3335,-2.3009,-2.3131,-2.3715,-2.3505,-2.3678,-2.4203,-2.4406,-2.4445,-2.4302,-2.3963,-2.3765,-2.3641,-2.3224,-2.3071,-2.3026,-2.2598,-2.1777,-2.0949,-2.1839,-2.1845,-2.1435,-2.1426,-2.1425,-2.1461,-2.1657,-2.1725,-2.1794,-2.217,-2.2296,-2.2296,-2.2296,-2.2296,-2.2296,-2.2296,-2.2296,-2.2245,-2.2057,-2.1414,-2.0873,-2.0873,-2.0247,-1.9761,-1.9951,-1.9664,-1.9406,-1.9406,-1.9406,-1.922,-1.8691,-1.8606,-1.8403,-1.7867,-1.78,-1.7704,-1.7451,-1.7444,-1.7199,-1.6617,-1.6876,-1.6892,-1.6461,-1.5819,-1.5405,-1.5304,-1.4149,-1.3386,-1.3105,-1.1847,-1.1228,0.0,0.0,0.0,0.0,0.0,0.0,0.0,0.0,0.0,0.0,0.0,0.0,0.0,0.0,0.0,0.0,0.0,0.0,0.0,0.0,0.0,0.0,-1.6233,-1.6844,-1.7733,-1.8327,-1.9055,-2.0076,-2.0854,-2.1575,-2.2252,-2.262,-2.2858,-2.2999,-2.2996,-2.2994,-2.2986,-2.2996,-2.294,-2.2837,-2.294,-2.3142,-2.348,-2.3306,-2.3582,-2.4365,-2.4334,-2.4543,-2.4966,-2.5286,-2.538,-2.5283,-2.4795,-2.4507,-2.4348,-2.3815,-2.3595,-2.3565,0.0,0.0,0.0,0.0,-2.2458,-2.2111,-2.2107,-2.2134,-2.2119,-2.2129,-2.2287,-2.2469,-2.2428,-2.2574,-2.2699,-2.2381,-2.2296,-2.2296,-2.2296,-2.2296,-2.2296,-2.2296,-2.1735,-2.1275,-2.1583,-2.1059,-2.0589,-2.091,-2.0961,0.0,-2.0961,-2.0424,-1.9761,-1.9012,-1.8894,-1.8623,-1.7884,-1.7681,-1.7514,-1.732,-1.7175,-1.6876,-1.6355,-1.6607,0.0,0.0,0.0,-1.552,-1.5115,-1.4339,0.0,0.0,0.0,0.0,0.0,-1.1005,0.0,0.0,-1.0579,-1.116,0.0,0.0,0.0,0.0,0.0,0.0,0.0,0.0,0.0,0.0,0.0,0.0,0.0,0.0,0.0,0.0,-1.8172,-1.9073,-1.9912,-1.9511,-1.9621,-2.1009,-2.166,-2.2314,-2.3088,-2.3786,-2.4064,-2.3742,-2.3703,-2.3403,-2.2733,-2.2708,0.0,0.0,0.0,-2.3114,-2.3843,-2.3929,-2.4344,-2.5072,-2.5428,-2.5642,-2.5761,-2.6404,-2.647,-2.6049,-2.5449,-2.4914,-2.445,-2.3858,-2.3595,-2.3595,-2.3595,-2.3275,-2.2785,-2.2785,-2.2785,-2.2802,-2.2797,0.0,0.0,-2.2497,-2.2778,-2.3139,-2.2818,-2.3048,-2.3257,-2.2541,-2.229,-2.2223,-2.2223,-2.2223,-2.2237,-2.2282,-2.1803,-2.1512,-2.2175,-2.1786,-2.1529,-2.2161,-2.2296,-2.2296,-2.2296,-2.1181,-2.0014,-1.9266,-1.908,-1.8746,-1.7974,-1.7541,-1.7268,-1.7199,-1.6914,0.0,-1.6274,-1.6514,-1.6434,-1.5842,-1.6081,-1.5848,-1.4944,-1.4454,-1.3799,-1.2913,-1.2051,-1.1661,-1.179,-1.1308,-1.105,-1.101,-1.1295,-1.1881,0.0,0.0,0.0,0.0,0.0,0.0,0.0,0.0,0.0,0.0,0.0,0.0,0.0,0.0,0.0,-1.8019,-1.8496,-1.902,-2.0082,-2.0664,-2.1287,-2.2114,-2.218,-2.2708,-2.408,-2.4201,-2.4064,-2.3742,-2.3703,-2.3403,-2.2733,-2.2708,-2.259,-2.231,-2.294,-2.334,-2.351,-2.4088,-2.4751,-2.5483,-2.5556,0.0,-2.6488,-2.6623,-2.6657,-2.6505,-2.5598,-2.5144,-2.4969,-2.3991,-2.3595,-2.3595,-2.3595,-2.353,-2.3421,-2.3421,-2.3421,-2.3428,-2.3417,-2.343,-2.3396,-2.3187,-2.3465,-2.3843,-2.3569,-2.3447,0.0,-2.2766,-2.2195,-2.1749,-2.1749,-2.1749,-2.1823,-2.2209,-2.2178,-2.2141,-2.2262,-2.2178,-2.2141,-2.2262,-2.2296,-2.2296,-2.2296,-2.2043,-2.1586,-2.0869,-2.0196,-1.9425,-1.8406,-1.7707,-1.7085,-1.6552,-1.6434,-1.626,-1.5926,-1.5955,-1.5926,-1.5813,-1.587,-1.581,-1.5619,-1.5169,-1.4665,-1.4156,-1.3656,-1.3056,-1.2354,-1.2236,-1.2006,-1.1617,-1.1211,-1.1112,0.0,0.0,0.0,0.0,0.0,0.0,0.0,0.0,0.0,0.0,0.0,-1.4744,-1.5551,0.0,-1.7383,-1.8871,-1.9165,-1.955,-2.0506,-2.1138,-2.1713,-2.228,-2.2645,-2.3244,-2.4245,-2.4266,-2.4141,-2.3947,-2.3937,-2.3724,-2.3242,-2.32,-2.2989,-2.2514,-2.286,-2.334,-2.3949,-2.4321,-2.5066,-2.615,-2.615,-2.6336,-2.6691,-2.6691,-2.6691,-2.6641,-2.5635,-2.5202,-2.5125,-2.4032,-2.3595,-2.3595,-2.3595,-2.3595,-2.3595,-2.3595,-2.3595,-2.3595,-2.3595,-2.3595,-2.3593,-2.3479,-2.3993,-2.4561,-2.4057,-2.3918,-2.3789,-2.2939,-2.2155,-2.1597,-2.1597,-2.1597,-2.1718,-2.2194,-2.2296,-2.2296,-2.2296,-2.2296,-2.2296,-2.2296,-2.2296,-2.2296,-2.2296,-2.2296,-2.2057,-2.1309,-2.037,-1.9418,-1.8521,-1.776,-1.718,-1.684,-1.6628,-1.644,-1.6248,-1.5964,-1.5799,-1.5799,-1.5799,-1.5799,-1.5799,-1.5359,-1.5171,-1.5297,-1.4416,-1.3869,-1.3693,-1.2933,-1.2426,-1.2189,-1.1893,-1.1737,0.0,0.0,0.0,0.0,0.0,0.0,0.0,0.0,-1.3745,-1.3967,-1.5166,-1.6353,-1.7,-1.7796,-1.8621,-1.9469,-1.9701,-2.0086,-2.0885,-2.1395,-2.1875,-2.2346,-2.3049,-2.372,-2.4265,-2.4256,-2.419,-2.419,-2.419,-2.4046,-2.3714,-2.3703,-2.3497,-2.3044,-2.3115,-2.3688,-2.4817,-2.4893,-2.5523,-2.6691,-2.6691,-2.6691,-2.6691,-2.6691,-2.6691,-2.6657,-2.5746,-2.524,-2.4989,-2.4116,-2.3702,-2.3595,-2.3595,-2.3595,-2.3595,-2.3595,-2.3595,-2.3595,-2.3595,-2.3595,-2.3595,-2.3595,-2.4261,-2.4936,-2.4338,-2.4238,-2.4106,-2.2965,-2.2083,-2.146,-2.1367,-2.143,-2.1598,-2.2063,-2.2223,-2.2296,-2.2296,-2.2296,-2.2296,-2.2296,-2.2296,-2.2296,-2.2296,-2.2223,-2.1961,-2.1369,-2.0367,-1.944,-1.8692,-1.7947,-1.7451,-1.7377,-1.7091,-1.683,-1.6711,-1.6263,-1.5919,-1.5814,-1.6024,-1.6099,-1.5979,-1.5741,-1.5818,-1.629,-1.5181,-1.4694,-1.4911,-1.3648,-1.295,-1.2766,-1.2864,-1.2773,-1.1711,-1.1559,-1.1699,-1.2443,-1.2574,-1.2953,0.0,0.0,-1.5354,-1.6307,-1.7209,-1.7858,-1.7942,-1.861,-1.9265,-1.9543,-1.9701,-2.0086,-2.0885,-2.1797,-2.257,-2.3036,-2.3326,-2.3811,-2.4644,-2.4419,-2.419,-2.419,-2.419,-2.4046,-2.3714,-2.3703,-2.3856,-2.4203,-2.4561,-2.5147,-2.6011,-2.6311,-2.6539,-2.6691,-2.6691,-2.6691,-2.6691,-2.6691,-2.6691,-2.6674,-2.6139,-2.5373,-2.4491,-2.4348,-2.4032,-2.3595,-2.3595,-2.3595,-2.3595,-2.3595,-2.3595,-2.3595,-2.3595,-2.3595,-2.3595,-2.3595,-2.3991,-2.4476,-2.4398,-2.4092,-2.3604,-2.269,-2.1761,-2.0975,-2.055,-2.0748,-2.1166,-2.1583,-2.2003,-2.2296,-2.2296,-2.2296,-2.2296,-2.2296,-2.2296,-2.2296,-2.2296,-2.1943,-2.164,-2.1558,-2.0885,-2.0132,-1.9374,-1.8579,-1.7992,-1.769,-1.761,-1.7354,-1.6741,-1.6652,-1.6368,-1.5829,-1.6862,-1.7219,-1.6622,-1.7112,-1.7277,-1.699,-1.6823,-1.6133,-1.4911,-1.4733,-1.4167,-1.3327,-1.3736,-1.3447,-1.3002,-1.3169,-1.3519,0.0,-1.4288,-1.4764,-1.5662,-1.6207,-1.6681,-1.7258,-1.8029,-1.8658,-1.8771,-1.9077,-1.9357,0.0,-2.0041,-2.0661,-2.147,-2.2047,-2.2601,-2.3188,-2.3336,-2.3662,-2.4386,-2.4303,-2.419,-2.419,-2.419,-2.4141,-2.3996,-2.3996,-2.4207,-2.4676,-2.463,-2.5111,-2.6192,-2.6121,-2.6285,-2.6691,-2.6691,-2.6691,-2.6691,-2.6691,-2.6539,-2.6262,-2.5762,-2.5089,-2.4369,-2.4053,-2.3794,-2.3595,-2.3595,-2.3595,-2.3595,-2.3595,-2.3595,-2.3595,-2.3595,-2.3595,-2.3595,-2.3595,-2.3948,-2.4471,-2.4756,-2.4154,-2.3279,-2.2962,-2.1772,-2.055,-2.0348,-2.0649,-2.1102,-2.1506,-2.1974,-2.2296,-2.2296,-2.2296,-2.2223,-2.1959,-2.1899,-2.1825,-2.1584,-2.1385,-2.1166,-2.0878,-2.0289,-1.9751,-1.9434,-1.8864,-1.8434,-1.8298,-1.8281,-1.8012,-1.7339,-1.7279,-1.716,-1.6922,-1.7414,-1.7691,-1.7685,-1.7693,-1.7943,-1.8436,-1.7866,-1.7444,-1.7229,-1.6294,-1.5614,-1.5199,-1.5084,-1.4825,-1.4131,0.0,0.0,-1.5105,-1.5643,-1.6184,-1.6395,-1.7063,-1.7673,-1.7895,-1.8457,-1.8948,-1.9182,-1.9222,-1.9366,-1.9774,-2.0391,-2.1142,-2.2142,-2.2245,-2.2461,-2.3134,-2.3017,-2.3162,-2.3805,-2.4061,-2.419,-2.419,-2.419,-2.419,-2.419,-2.441,-2.4779,-2.5343,-2.511,-2.5512,-2.665,-2.6152,-2.6167,-2.6691,-2.6573,-2.6505,-2.6487,-2.635,-2.6104,-2.5744,-2.5373,-2.491,-2.4369,-2.397,-2.373,-2.3595,-2.3595,-2.3595,-2.3595,-2.3595,-2.3595,-2.3595,-2.3595,-2.3595,-2.3595,-2.3595,-2.3948,-2.4424,-2.4614,-2.3933,-2.3035,-2.2759,-2.1528,-2.028,-2.0158,-2.0482,-2.0894,-2.1165,-2.1598,-2.193,-2.193,-2.193,-2.184,-2.1491,-2.143,-2.1337,-2.1039,-2.0894,-2.0682,-2.0348,-1.9826,-1.9484,-1.9484,-1.9195,-1.8972,-1.8972,-1.8807,-1.8508,-1.8012,-1.7983,-1.7908,-1.7697,-1.8057,-1.8393,-1.8656,-1.8411,-1.8696,-1.9633,-1.8807,-1.856,-1.8893,-1.7587,-1.6876,-1.6712,-1.6174,-1.5919,0.0,0.0,-1.4934,-1.5452,-1.6123,-1.6748,-1.701,-1.7639,-1.8255,-1.8521,-1.8586,-1.8679,-1.8958,-1.9001,-1.9331,-2.0321,-2.0648,-2.132,-2.2767,-2.2416,-2.2261,-2.2932,-2.2317,-2.217,-2.2951,-2.3749,-2.419,-2.419,-2.419,-2.419,-2.419,-2.4934,-2.5731,-2.6518,-2.6598,-2.7024,-2.7848,-2.7065,-2.6674,-2.6691,-2.6244,-2.6031,-2.5997,-2.5468,-2.524,-2.5221,-2.5221,-2.491,-2.441,-2.4389,-2.4074,-2.3595,-2.3595,-2.3595,-2.3595,-2.3595,-2.3595,-2.3595,-2.3595,-2.3595,-2.3595,-2.3595,-2.3948,-2.4265,-2.3571,-2.3236,-2.2853,-2.1697,-2.0856,-2.0212,-1.9836,-2.0017,-2.0331,-2.0348,-2.0699,-2.1039,-2.1039,-2.1039,-2.1039,-2.1007,-2.1007,-2.1007,-2.0991,-2.0616,-2.0314,-2.0297,-1.9949,-1.9696,-1.9696,-1.9678,-1.9678,-1.9678,-1.9091,-1.8687,-1.8672,-1.8672,-1.8386,-1.7743,-1.8927,-1.9559,-1.9386,-1.9533,-1.9846,-2.0266,-1.9861,-1.9409,-1.8893,-1.8333,-1.778,-1.7265,-1.6727,-1.6475,-1.5153,0.0,-1.6536,-1.6576,-1.701,-1.7444,-1.7541,-1.775,-1.8014,-1.828,-1.833,-1.842,-1.8688,-1.8887,-1.9289,-2.0163,-2.0953,-2.1631,-2.2133,-2.2462,-2.2553,-2.2235,-2.2446,-2.2703,-2.2969,-2.3244,0.0,-2.4153,-2.419,-2.419,-2.419,-2.4952,-2.5778,-2.6565,-2.6886,-2.7312,-2.788,-2.738,-2.6954,-2.6691,-2.6227,-2.6013,-2.5995,-2.5449,-2.5202,-2.5182,-2.4816,-2.4572,-2.4369,-2.4012,-2.3752,-2.3595,-2.3595,-2.3595,-2.3595,-2.3595,-2.3595,-2.3595,-2.3595,-2.3595,-2.3595,-2.3595,-2.3709,-2.3821,-2.348,-2.2817,-2.2075,-2.1569,-2.0694,-1.9874,-1.9744,-2.0,-2.0297,-2.0297,-2.0649,-2.0991,-2.0991,-2.0991,-2.091,-2.06,-2.0533,-2.0449,-2.0174,-2.0015,-1.9909,-1.9909,-1.9782,-1.9708,-1.9708,-1.9708,-1.9708,-1.9708,-1.9513,-1.9346,-1.9346,-1.9346,-1.9273,-1.9031,-1.9453,-1.9801,-1.9987,-2.0052,-2.0158,-2.0297,-2.0176,-1.9877,-1.9424,-1.8535,-1.8007,-1.7807,-1.6909,-1.65,-1.5979,-1.6741,-1.7408,-1.7472,-1.7654,-1.78,-1.78,-1.78,-1.7856,-1.8025,-1.7855,-1.7759,-1.8009,-1.8279,-1.8752,-1.965,-2.0676,-2.1528,-2.2134,-2.2428,-2.2483,-2.2263,-2.2428,-2.2685,0.0,0.0,0.0,-2.4135,-2.419,-2.419,-2.419,-2.4952,-2.5778,-2.6565,-2.6987,-2.7476,-2.8057,-2.7707,-2.7224,-2.6623,-2.621,-2.5797,-2.5411,-2.5067,-2.4812,-2.4612,-2.4266,-2.4116,-2.4095,-2.373,-2.3595,-2.3595,-2.3595,-2.3595,-2.3595,-2.3595,-2.3595,-2.3595,-2.3595,-2.3595,-2.3595,-2.3595,-2.373,-2.3796,-2.3187,-2.2501,-2.1824,-2.1239,-2.0403,-1.9708,-1.9708,-1.9892,-2.0089,-2.0089,-2.0328,-2.0548,-2.0548,-2.0548,-2.0464,-2.0141,-2.0089,-2.0,-1.9747,-1.9708,-1.9708,-1.9708,-1.9708,-1.9708,-1.9708,-1.9708,-1.9708,-1.9708,-1.9708,-1.9708,-1.9708,-1.9708,-1.9708,-1.9708,-1.9708,-1.9874,-2.028,-2.0158,-2.0158,-2.0297,-2.0158,-1.9947,-1.9708,-1.8612,-1.8106,-1.8066,-1.6993,-1.65,-1.7071,-1.7471,-1.7593,-1.8106,-1.8025,-1.7822,-1.78,-1.78,-1.7783,-1.7749,-1.7196,-1.6765,-1.6983,0.0,-1.7834,-1.8907,-1.991,-2.1099,-2.2712,-2.2354,-2.2198,0.0,0.0,0.0,0.0,0.0,0.0,-2.4135,-2.419,-2.419,-2.419,-2.4969,-2.5795,-2.6583,-2.7041,-2.7632,-2.8389,-2.8061,-2.7432,-2.6505,-2.6178,-2.5468,-2.445,-2.441,-2.4116,-2.3595,-2.3595,-2.3595,-2.3595,-2.3595,-2.3595,-2.3595,-2.3595,-2.3595,-2.3595,-2.3595,-2.3595,-2.3595,-2.3595,-2.3595,-2.3595,-2.3595,-2.3927,-2.4101,-2.2725,-2.2331,-2.2081,-2.0713,-2.0061,-1.9753,-1.9753,-1.9753,-1.9753,-1.9753,-1.9723,-1.9708,-1.9708,-1.9708,-1.9708,-1.9708,-1.9708,-1.9708,-1.9708,-1.9708,-1.9708,-1.9708,-1.9708,-1.9708,-1.9708,-1.9708,-1.9708,-1.9708,-1.9708,-1.9708,-1.9708,-1.9708,-1.9708,-1.9708,-1.9708,-1.9874,-2.0246,-1.9927,-1.9909,-2.0263,-1.9909,-1.9711,-1.9708,-1.8612,-1.8106,-1.8066,-1.6993,-1.65,-1.7752,-1.825,-1.8574,-1.8503,-1.83,-1.8057,-1.7856,-1.78,-1.7631,-1.7094,-1.6824,-1.655,-1.6077,-1.6645,0.0,-1.8628,-2.0138,0.0,-2.2025,-2.2969,0.0,-2.3043,0.0,-2.3657,-2.3878,-2.3896,0.0,0.0,-2.419,-2.419,-2.419,-2.5255,-2.607,-2.6583,-2.7568,-2.8191,-2.8407,-2.8061,-2.7467,-2.664,-2.6455,-2.5881,-2.4973,-2.4592,-2.4116,-2.3595,-2.3595,-2.3595,-2.3595,-2.3595,-2.3595,-2.3595,-2.3595,-2.3595,-2.3595,-2.3595,-2.3595,-2.3595,-2.3595,-2.3595,-2.3595,-2.3595,-2.3702,-2.3643,-2.2843,-2.2254,-2.17,-2.0831,-2.0512,-2.0453,-2.0453,-2.0453,-2.0453,-2.0453,-2.0064,-1.9708,-1.9708,-1.9708,-1.9708,-1.9708,-1.9708,-1.9708,-1.9708,-1.9708,-1.9708,-1.9708,-1.9708,-1.9708,-1.9708,-1.9708,-1.9708,-1.9708,-1.9708,-1.9708,-1.9708,-1.9708,-1.9708,-1.9708,-1.9708,-1.9747,-1.9839,-2.0052,-2.0037,-1.9856,-2.0052,-2.0,-1.9708,-1.8612,-1.8106,-1.8066,-1.6993,-1.65,-1.8314,-1.8741,-1.8958,-1.8807,-1.8489,-1.807,-1.7596,-1.7401,-1.7101,-1.6367,-1.596,0.0,-1.5189,-1.5938,0.0,0.0,0.0,0.0,-2.1658,-2.2584,-2.3235,0.0,-2.3933,0.0,-2.419,-2.419,-2.419,0.0,-2.419,-2.4141,-2.3996,-2.4939,-2.5672,-2.6103,-2.7259,-2.8046,-2.8407,-2.7876,-2.7409,-2.6971,-2.6707,-2.6214,-2.5524,-2.5008,-2.4471,-2.3943,-2.3702,-2.3595,-2.3595,-2.3595,-2.3595,-2.3595,-2.3595,-2.3595,-2.3595,-2.3595,-2.3595,-2.3595,-2.3595,-2.3595,-2.3595,-2.3595,-2.3595,-2.343,-2.2538,-2.2209,-2.1934,-2.0957,-2.0897,-2.1141,-2.1141,-2.1141,-2.1066,-2.0763,-2.0423,-2.0049,-1.9768,-1.9708,-1.9708,-1.9708,-1.9708,-1.9708,-1.9708,-1.9708,-1.9708,-1.9708,-1.9708,-1.9708,-1.9708,-1.9708,-1.9708,-1.9708,-1.9708,-1.9708,-1.9708,-1.9708,-1.9708,-1.9708,-1.9708,-1.9708,-1.9708,-1.9927,-1.9929,-1.9693,-1.9927,-1.9927,-1.9708,-1.8612,-1.8106,-1.8066,-1.6993,-1.6358,-1.8785,-1.9035,-1.9026,-1.9019,-1.8642,-1.8091,-1.7325,-1.6888,-1.6424,-1.5666,0.0,-1.4387,-1.4371,-1.5183,-1.5967,-1.6335,0.0,-1.9666,-2.1548,-2.1886,-2.2528,-2.4025,-2.419,-2.419,-2.419,-2.419,-2.419,-2.419,-2.419,-2.4046,-2.3714,-2.4417,-2.5116,-2.5725,-2.6744,-2.7597,-2.8259,-2.7675,-2.7334,-2.7225,-2.6923,-2.6505,-2.5979,-2.5521,-2.4973,-2.4369,-2.3921,-2.3659,-2.3595,-2.3595,-2.3595,-2.3595,-2.3595,-2.3595,-2.3595,-2.3595,-2.3595,-2.3595,-2.3595,-2.3595,-2.3595,-2.3595,-2.3595,-2.3385,-2.2278,-2.2313,-2.2463,-2.1291,-2.138,-2.1829,-2.1829,-2.1754,-2.1545,-2.0957,-2.0688,-2.0423,-1.9828,-1.9708,-1.9708,-1.9708,-1.9708,-1.9708,-1.9708,-1.9708,-1.9708,-1.9708,-1.9708,-1.9708,-1.9708,-1.9708,-1.9708,-1.9708,-1.9708,-1.9708,-1.9708,-1.9708,-1.9708,-1.9708,-1.9708,-1.9708,-1.9708,-1.9708,-1.9708,-1.9708,-1.9708,-1.9708,-1.9708,-1.8612,-1.8106,-1.8066,-1.693,-1.6095,-1.9103,-1.9243,-1.9214,-1.9043,-1.8931,-1.8601,-1.7577,-1.68,0.0,0.0,-1.4387,-1.3757,-1.3763,-1.4442,-1.5314,-1.6246,0.0,0.0,0.0,0.0,-2.3144,0.0,0.0,0.0,0.0,0.0,0.0,0.0,-2.419,-2.4046,-2.3714,-2.4494,-2.5596,-2.6941,-2.7497,-2.7681,-2.7482,-2.7692,-2.7454,-2.6808,-2.7067,-2.6774,-2.6013,-2.5906,-2.5316,-2.4389,-2.4287,-2.4012,-2.3595,-2.3595,-2.3595,-2.3595,-2.3595,-2.3595,-2.3595,-2.3595,-2.3595,-2.3595,-2.3595,-2.3595,-2.3595,-2.3595,-2.3595,-2.3565,-2.334,-2.2996,-2.2643,-2.2418,-2.2448,-2.2523,-2.2523,-2.2119,-2.1665,-2.1545,-2.0677,-1.9824,-1.9738,-1.9708,-1.9708,-1.9708,-1.9708,-1.9708,-1.9708,-1.9708,-1.9708,-1.9708,-1.9708,-1.9708,-1.9708,-1.9708,-1.9708,-1.9708,-1.9708,-1.9708,-1.9708,-1.9708,-1.9708,-1.9708,-1.9708,-1.9708,-1.9708,-1.9708,-1.9708,-1.9708,-1.9708,-1.9708,-1.9708,-1.8612,-1.8106,-1.8052,-1.6498,-1.5698,-1.9683,-1.962,-1.9384,-1.9703,-1.9394,-1.866,-1.7294,0.0,0.0,0.0,-1.3453,-1.3136,-1.313,0.0,0.0,0.0,0.0,0.0,0.0,0.0,0.0,0.0,0.0,0.0,0.0,0.0,-2.4006,-2.418,-2.4428,-2.4248,-2.3484,-2.4267,-2.5536,-2.7251,-2.727,-2.727,-2.7303,-2.727,-2.7083,-2.6691,-2.689,-2.6757,-2.6349,-2.6104,-2.5707,-2.5202,-2.4652,-2.4246,-2.3991,-2.3724,-2.3595,-2.3595,-2.3595,-2.3595,-2.3595,-2.3595,-2.3595,-2.3595,-2.3595,-2.3595,-2.3595,-2.3595,-2.3595,-2.3535,-2.3242,-2.3152,-2.3107,-2.2793,-2.2927,-2.3182,-2.3182,-2.2703,-2.2113,-2.1784,-2.0681,-1.9708,-1.9708,-1.9708,-1.9708,-1.9708,-1.9708,-1.9708,-1.9708,-1.9708,-1.9708,-1.9708,-1.9708,-1.9708,-1.9708,-1.9708,-1.9708,-1.9708,-1.9708,-1.9708,-1.9708,-1.9708,-1.9708,-1.9708,-1.9708,-1.9708,-1.9708,-1.9708,-1.9708,-1.9708,-1.9708,-1.9708,-1.9708,-1.8612,-1.8106,-1.8066,-1.6378,-1.5432,-1.9938,-1.9785,-1.9444,-2.0071,-1.952,-1.8435,-1.6983,-1.5598,0.0,0.0,-1.251,-1.2354,-1.271,0.0,0.0,0.0,0.0,0.0,0.0,0.0,0.0,0.0,0.0,0.0,0.0,0.0,0.0,-2.432,-2.4769,-2.4688,-2.3899,-2.4405,-2.5478,-2.7111,-2.6857,-2.6841,-2.7178,-2.6857,-2.6691,-2.6691,-2.6691,-2.6691,-2.6691,-2.6314,-2.6103,-2.5943,-2.5105,-2.4692,-2.4532,-2.3991,-2.3773,-2.3752,-2.3638,-2.3595,-2.3595,-2.3595,-2.3595,-2.3595,-2.3595,-2.3595,-2.3595,-2.3595,-2.3595,-2.3505,-2.3047,-2.3206,-2.349,-2.3032,-2.3242,-2.3565,-2.343,-2.2957,-2.2283,-2.1475,-2.0471,-1.9708,-1.9708,-1.9708,-1.9708,-1.9708,-1.9708,-1.9708,-1.9708,-1.9708,-1.9708,-1.9708,-1.9708,-1.9708,-1.9708,-1.9708,-1.9708,-1.9708,-1.9708,-1.9708,-1.9708,-1.9708,-1.9708,-1.9708,-1.9708,-1.9708,-1.9708,-1.9708,-1.9708,-1.9708,-1.9708,-1.9708,-1.9708,-1.8612,-1.8106,-1.8066,-1.625,-1.5141,-1.9253,-1.9352,-1.9315,-1.9389,-1.8797,-1.795,-1.7071,0.0,0.0,-1.3274,-1.1934,-1.1248,-1.2699,-1.3082,-1.3677,0.0,0.0,-1.7712,0.0,0.0,0.0,0.0,0.0,0.0,0.0,0.0,-2.4402,-2.4815,-2.52,-2.5597,-2.5918,-2.5658,-2.5879,-2.6724,-2.6725,-2.6725,-2.6758,-2.6725,-2.6691,-2.6691,-2.6691,-2.6691,-2.6691,-2.6657,-2.6401,-2.5979,-2.5888,-2.5577,-2.507,-2.4552,-2.4328,-2.4266,-2.3794,-2.3595,-2.3595,-2.3595,-2.3595,-2.3595,-2.3595,-2.3595,-2.3595,-2.3595,-2.3595,-2.3595,-2.3535,-2.355,-2.3595,-2.3535,-2.355,-2.3475,-2.2927,-2.2298,-2.1455,-2.0187,-1.9798,-1.9708,-1.9708,-1.9708,-1.9708,-1.9708,-1.9708,-1.9708,-1.9708,-1.9708,-1.9708,-1.9708,-1.9708,-1.9708,-1.9708,-1.9708,-1.9708,-1.9708,-1.9708,-1.9708,-1.9708,-1.9708,-1.9708,-1.9708,-1.9708,-1.9708,-1.9708,-1.9708,-1.9708,-1.9708,-1.9708,-1.9708,-1.9708,-1.8612,-1.8106,-1.8046,-1.5816,-1.4744,-1.9485,-1.9587,-1.9426,-1.9895,-1.9043,-1.7887,-1.7073,0.0,-1.3151,-1.2669,-1.1621,-1.1113,-1.2243,-1.2855,-1.3553,-1.4678,-1.5184,-1.6303,-1.8713,0.0,0.0,0.0,0.0,0.0,0.0,0.0,-2.4594,-2.5898,-2.5917,-2.6138,-2.6833,-2.6069,-2.5947,-2.6674,-2.6691,-2.6691,-2.6691,-2.6691,-2.6691,-2.6691,-2.6691,-2.6691,-2.6691,-2.6691,-2.6607,-2.6401,-2.612,-2.587,-2.5633,-2.5089,-2.4692,-2.4369,-2.4163,-2.3879,-2.3595,-2.3595,-2.3595,-2.3595,-2.3595,-2.3595,-2.3595,-2.3595,-2.3595,-2.3595,-2.3595,-2.3595,-2.3595,-2.3595,-2.3595,-2.346,-2.2868,-2.1889,-2.0857,-1.9932,-1.9708,-1.9708,-1.9708,-1.9708,-1.9708,-1.9708,-1.9708,-1.9708,-1.9708,-1.9708,-1.9708,-1.9708,-1.9708,-1.9708,-1.9708,-1.9708,-1.9708,-1.9708,-1.9708,-1.9708,-1.9708,-1.9708,-1.9708,-1.9708,-1.9708,-1.9708,-1.9708,-1.9708,-1.9708,-1.9708,-1.9708,-1.9548,-1.9225,-1.8477,-1.7927,-1.7565,-1.5608,-1.4698,-1.9013,-1.9252,-1.9251,-1.991,-1.8841,-1.7497,0.0,-1.5031,-1.3133,-1.2577,-1.182,-1.1503,-1.232,-1.2913,-1.3555,-1.4365,-1.4695,-1.5612,-1.7796,0.0,0.0,0.0,0.0,0.0,0.0,-2.3936,-2.5028,-2.6121,-2.6367,-2.6599,-2.6926,-2.6292,-2.6167,-2.6674,-2.6573,-2.6573,-2.6691,-2.6573,-2.6573,-2.6691,-2.6691,-2.6691,-2.6691,-2.6691,-2.6691,-2.6674,-2.6349,-2.6209,-2.6174,-2.5652,-2.5125,-2.4632,-2.4471,-2.4074,-2.3595,-2.3595,-2.3595,-2.3595,-2.3595,-2.3595,-2.3595,-2.3595,-2.3595,-2.3595,-2.3595,-2.3595,-2.3595,-2.3595,-2.3475,-2.3236,-2.2808,-2.1695,-2.0569,-2.0109,-1.9824,-1.9708,-1.9708,-1.9708,-1.9708,-1.9708,-1.9708,-1.9708,-1.9708,-1.9708,-1.9708,-1.9708,-1.9708,-1.9708,-1.9708,-1.9708,-1.9708,-1.9708,-1.9708,-1.9708,-1.9708,-1.9708,-1.9708,-1.9708,-1.9708,-1.9708,-1.9708,-1.9708,-1.9708,-1.9708,-1.9708,-1.9442,-1.8893,-1.8361,-1.7733,-1.7008,-1.542,-1.4568,-1.7373,-1.8056,-1.8678,-1.8958,-1.776,-1.659,0.0,-1.5031,-1.3304,-1.3285,-1.265,-1.2338,-1.3133,-1.328,-1.3555,-1.4365,-1.5178,-1.6243,-1.7876,-1.8794,0.0,0.0,0.0,0.0,-2.2295,-2.4643,-2.5848,-2.5074,-2.6422,-2.6941,-2.6139,-2.6481,-2.6691,-2.6691,-2.6244,-2.6227,-2.6691,-2.6244,-2.6244,-2.6691,-2.6691,-2.6691,-2.6691,-2.6691,-2.6691,-2.6691,-2.6691,-2.6691,-2.6657,-2.6191,-2.567,-2.5144,-2.4612,-2.4074,-2.3595,-2.3595,-2.3595,-2.3595,-2.3595,-2.3595,-2.3595,-2.3595,-2.3595,-2.3595,-2.3595,-2.3595,-2.3595,-2.3595,-2.3182,-2.2703,-2.2703,-2.1695,-2.0703,-2.0688,-2.0183,-1.9708,-1.9708,-1.9708,-1.9708,-1.9708,-1.9708,-1.9708,-1.9708,-1.9708,-1.9708,-1.9708,-1.9708,-1.9708,-1.9708,-1.9708,-1.9708,-1.9708,-1.9708,-1.9708,-1.9708,-1.9708,-1.9708,-1.9708,-1.9708,-1.9708,-1.9708,-1.9708,-1.9708,-1.9708,-1.9708,-1.9442,-1.8893,-1.8361,-1.7518,-1.6391,-1.5219,-1.4259,-1.6246,-1.6773,-1.7124,-1.7207,-1.6378,-1.5604,-1.5816,-1.4332,-1.292,-1.3075,-1.2345,-1.1937,-1.2734,-1.2883,-1.3566,-1.5606,-1.6141,-1.7118,0.0,0.0,0.0,0.0,0.0,0.0,0.0,0.0,-2.5885,-2.6125,-2.6601,-2.6771,-2.6516,-2.6622,-2.6691,-2.6691,-2.6556,-2.6556,-2.6691,-2.6539,-2.6539,-2.6691,-2.6691,-2.6691,-2.6691,-2.6691,-2.6691,-2.6691,-2.6691,-2.6521,-2.6209,-2.605,-2.5468,-2.4652,-2.4471,-2.4074,-2.3595,-2.3595,-2.3595,-2.3595,-2.3595,-2.3595,-2.3595,-2.3595,-2.3595,-2.3595,-2.3595,-2.3595,-2.3595,-2.3595,-2.3182,-2.2703,-2.2703,-2.1695,-2.0703,-2.0703,-2.0183,-1.9708,-1.9708,-1.9708,-1.9708,-1.9708,-1.9406,-1.9151,-1.9151,-1.8855,-1.8727,-1.9114,-1.9151,-1.9281,-1.9639,-1.9708,-1.9708,-1.9708,-1.9708,-1.9708,-1.9708,-1.9708,-1.9708,-1.9708,-1.9708,-1.9708,-1.9708,-1.9708,-1.9708,-1.9708,-1.935,-1.8893,-1.8361,-1.7807,-1.6773,-1.5219,-1.4457,-1.3862,0.0,-1.5757,-1.6116,-1.621,-1.5611,-1.5043,-1.5243,-1.4175,-1.3198,-1.3312,-1.2837,-1.2563,-1.3052,-1.314,-1.37,-1.5425,-1.5955,-1.6951,0.0,0.0,0.0,0.0,0.0,0.0,0.0,-2.5,-2.5795,-2.6251,-2.6539,-2.6691,-2.6691,-2.6691,-2.6691,-2.6691,-2.6539,-2.6505,-2.6691,-2.6505,-2.6505,-2.6691,-2.6691,-2.6691,-2.6691,-2.6521,-2.6453,-2.6419,-2.6228,-2.5962,0.0,-2.5689,-2.5297,-2.4677,-2.4491,-2.4199,-2.3879,-2.3681,-2.3595,-2.3595,-2.3595,-2.3595,-2.3595,-2.3595,-2.3595,-2.3595,-2.3595,-2.3595,-2.3595,-2.3595,-2.3325,-2.3047,-2.3047,-2.2248,-2.1395,-2.1141,-2.0572,-2.0004,-1.9753,-1.9548,-1.9406,-1.9406,-1.8968,-1.8593,-1.8593,-1.8322,-1.8224,-1.8554,-1.8593,-1.8708,-1.9043,-1.9114,-1.9114,-1.9114,-1.9114,-1.9188,-1.9387,-1.9584,-1.9708,-1.9708,-1.9708,-1.9708,-1.9708,-1.9708,-1.9708,-1.9708,-1.9169,-1.8631,-1.8106,-1.6886,-1.5762,-1.4686,-1.4005,-1.3536,0.0,-1.4791,-1.5367,-1.5678,-1.5185,-1.4715,-1.4965,-1.4448,0.0,-1.3906,-1.3885,-1.3881,-1.3934,-1.3913,-1.4019,-1.4455,-1.5164,0.0,0.0,0.0,0.0,0.0,0.0,0.0,-2.341,-2.4814,-2.5676,-2.5709,-2.6352,-2.6741,-2.6741,-2.6741,-2.6725,-2.6691,-2.6279,-2.6262,-2.6691,-2.6262,-2.6262,-2.6691,-2.6691,-2.6691,-2.6674,-2.6209,-2.6013,-2.5961,-2.543,-2.5182,-2.5163,-2.5182,-2.5163,-2.5047,-2.4592,-2.4369,-2.4287,-2.3773,-2.3595,-2.3595,-2.3595,-2.3595,-2.3595,-2.3595,-2.3595,-2.3595,-2.3595,-2.3595,-2.3595,-2.3595,-2.3595,-2.3595,-2.3595,-2.3152,-2.2523,-2.1859,-2.1201,-2.0528,-1.9824,-1.9281,-1.8893,-1.8893,-1.8438,-1.8046,-1.8046,-1.8007,-1.8007,-1.8046,-1.8046,-1.8066,-1.8106,-1.8106,-1.8106,-1.8106,-1.8106,-1.8302,-1.8798,-1.9332,-1.9639,-1.9639,-1.969,-1.969,-1.9639,-1.969,-1.9708,-1.9708,-1.9151,-1.8574,-1.8046,-1.5782,-1.472,-1.4719,-1.384,-1.3244,-1.2274,0.0,-1.2358,-1.3129,-1.3184,-1.3273,0.0,-1.403,-1.3706,0.0,0.0,-1.3691,-1.4255,-1.3977,-1.4539,-1.7203,-1.7967,-1.9087,0.0,0.0,0.0,0.0,-2.3425,-2.4051,-2.422,-2.5591,-2.6569,-2.6873,-2.7059,-2.7162,-2.7162,-2.7162,-2.7019,-2.6708,-2.659,-2.659,-2.6691,-2.659,-2.659,-2.6691,-2.6691,-2.6691,-2.6674,-2.6209,-2.6013,-2.5961,-2.543,-2.4969,-2.4632,-2.5031,-2.4732,-2.4012,-2.4287,-2.4158,-2.3773,-2.3638,-2.3595,-2.3595,-2.3595,-2.3595,-2.3595,-2.3595,-2.3595,-2.3595,-2.3595,-2.3595,-2.3595,-2.3595,-2.3595,-2.3595,-2.3595,-2.3152,-2.2523,-2.1859,-2.1201,-2.0528,-1.9824,-1.9281,-1.8893,-1.8893,-1.8145,-1.7483,-1.7483,-1.7146,-1.7013,-1.7422,-1.7483,-1.7646,-1.8046,-1.8106,-1.8106,-1.8106,-1.8106,-1.8165,-1.8283,-1.8779,-1.9095,-1.9095,-1.946,-1.953,-1.9114,-1.9479,-1.9708,-1.9708,-1.8765,-1.8027,-1.7483,-1.5608,-1.4865,-1.5128,-1.3383,-1.2878,-1.029,-1.0914,-1.1743,-1.2754,-1.3011,-1.3196,-1.3908,0.0,0.0,0.0,0.0,0.0,-1.4206,-1.4247,-1.505,-1.7719,-1.8679,0.0,0.0,0.0,0.0,0.0,-2.371,-2.4271,0.0,-2.5902,-2.6706,-2.7253,-2.747,-2.7592,-2.7592,-2.7592,-2.7487,-2.7257,-2.7257,-2.7067,-2.6708,-2.6691,-2.6691,-2.6691,-2.6691,-2.6691,-2.6674,-2.5962,-2.5633,-2.5596,-2.4812,-2.4287,-2.4074,-2.4612,-2.4632,-2.4348,-2.4389,-2.4369,-2.4266,-2.3773,-2.3595,-2.3595,-2.3595,-2.3595,-2.3595,-2.3595,-2.3595,-2.3595,-2.3595,-2.3595,-2.3595,-2.3595,-2.3385,-2.3236,-2.3535,-2.2921,-2.2239,-2.2179,-2.165,-2.1066,-2.0711,-1.9769,-1.8999,-1.8999,-1.7875,-1.693,-1.693,-1.6701,-1.6595,-1.69,-1.693,-1.7034,-1.7333,-1.7374,-1.7374,-1.7374,-1.7374,-1.7463,-1.7706,-1.8007,-1.8283,-1.8516,-1.9043,-1.9207,-1.8912,-1.9424,-1.9584,-1.935,-1.8516,-1.7847,-1.7312,-1.5554,-1.4909,-1.5257,-1.3436,-1.2739,-0.8782,-1.0166,-1.1974,-1.2976,-1.3365,-1.3552,-1.3871,0.0,0.0,0.0,0.0,0.0,0.0,0.0,0.0,0.0,0.0,0.0,0.0,0.0,0.0,-2.3879,-2.391,0.0,-2.5664,-2.6191,-2.6745,-2.7417,-2.7779,-2.7982,-2.7982,-2.7982,-2.7936,-2.7897,-2.7897,-2.7574,-2.689,-2.6808,-2.6758,-2.6691,-2.6691,-2.6691,-2.6674,-2.5654,-2.5202,-2.5144,-2.4158,-2.3709,-2.3773,-2.4389,-2.4855,-2.5147,-2.4712,-2.4752,-2.4969,-2.3985,-2.3595,-2.3595,-2.3595,-2.3595,-2.3595,-2.3595,-2.3595,-2.3595,-2.3595,-2.3595,-2.3595,-2.3595,-2.3242,-2.2957,-2.346,-2.2802,-2.2099,-2.2583,-2.2269,-2.1814,-2.1724,-2.0324,-1.9107,-1.9107,-1.7766,-1.6647,-1.6647,-1.6647,-1.6647,-1.6647,-1.655,-1.65,-1.65,-1.6575,-1.6588,-1.65,-1.6575,-1.6769,-1.7139,-1.7167,-1.7374,-1.7827,-1.8438,-1.8817,-1.8893,-1.9424,-1.9479,-1.9024,-1.8419,-1.7887,-1.7435,-1.5586,-1.4942,-1.5368,-1.3669,-1.2876,-0.9632,-1.0189,-1.0647,-1.1391,-1.2247,-1.3137,-1.3979,0.0,0.0,0.0,0.0,0.0,0.0,0.0,0.0,0.0,0.0,0.0,0.0,0.0,-2.4164,-2.3998,0.0,-2.6376,-2.6591,-2.7233,-2.7798,-2.8188,-2.8285,-2.8311,-2.8311,-2.8311,-2.8197,-2.7911,-2.7897,-2.784,-2.7725,-2.7378,-2.7052,-2.6691,-2.6691,-2.6691,-2.6674,-2.5654,-2.5202,-2.5163,-2.4552,-2.4266,-2.4348,-2.5354,-2.554,-2.5202,-2.5125,-2.4835,-2.445,-2.3837,-2.3595,-2.3595,-2.3595,-2.3595,-2.3595,-2.3595,-2.3595,-2.3595,-2.3595,-2.3595,-2.3595,-2.3595,-2.3535,-2.3475,-2.358,-2.3445,-2.3206,-2.2808,-2.2628,-2.2388,-2.1814,-2.0324,-1.9107,-1.9107,-1.8095,-1.725,-1.725,-1.725,-1.725,-1.725,-1.6835,-1.65,-1.65,-1.6948,-1.7061,-1.655,-1.6961,-1.7093,-1.6654,-1.6616,-1.6659,-1.6731,-1.7686,-1.8438,-1.8874,-1.9424,-1.9657,-1.9584,-1.8593,-1.8066,-1.7967,-1.5772,-1.5121,-1.5842,-1.383,-1.3589,-0.9138,-0.9594,-1.0211,-1.1221,-1.2282,-1.334,-1.4399,0.0,0.0,0.0,0.0,0.0,0.0,0.0,0.0,0.0,0.0,-2.267,-2.2742,-2.3342,-2.3786,0.0,0.0,-2.6282,-2.6698,-2.7455,-2.8034,-2.8363,-2.8237,-2.821,-2.8394,-2.8237,-2.8143,-2.817,-2.817,-2.817,-2.817,-2.7988,-2.7601,-2.7019,-2.6791,-2.6691,-2.6674,-2.5962,-2.5633,-2.5596,-2.5067,-2.4831,-2.4894,-2.567,-2.5852,-2.5633,-2.5633,-2.5297,-2.4716,-2.3885,-2.3595,-2.3595,-2.3595,-2.3595,-2.3595,-2.3595,-2.3595,-2.3595,-2.3595,-2.3595,-2.3595,-2.3595,-2.3355,-2.3197,-2.3505,-2.3086,-2.2682,-2.3092,-2.2942,-2.262,-2.2312,-2.0862,-1.9632,-1.9591,-1.8399,-1.7498,-1.7777,-1.7827,-1.7827,-1.7827,-1.7601,-1.7426,-1.7426,-1.7664,-1.7727,-1.7451,-1.7677,-1.7601,-1.7036,-1.6986,-1.6966,-1.6934,-1.7415,-1.8046,-1.8874,-1.9151,-1.9406,-1.969,-1.865,-1.8106,-1.8106,-1.6015,-1.5363,-1.5963,-1.4136,-1.3997,-0.9028,-0.9387,-1.0133,-1.1484,-1.2505,-1.3523,-1.4802,0.0,0.0,0.0,0.0,0.0,0.0,0.0,0.0,0.0,-2.2725,-2.317,-2.2976,-2.3591,-2.4181,-2.4539,-2.5601,-2.6514,-2.7054,-2.7654,-2.8088,-2.8277,-2.8047,-2.8006,-2.8277,-2.8034,-2.8024,-2.8259,-2.8368,-2.8407,-2.8407,-2.8329,-2.796,-2.7303,-2.7004,-2.6791,-2.6674,-2.6209,-2.6013,-2.5995,-2.5577,-2.5392,-2.543,-2.5961,-2.6157,-2.6138,-2.5906,-2.5411,-2.4732,-2.3885,-2.3595,-2.3595,-2.3595,-2.3595,-2.3595,-2.3595,-2.3595,-2.3595,-2.3595,-2.3595,-2.3595,-2.3595,-2.3272,-2.3017,-2.3475,-2.2877,-2.2383,-2.337,-2.3236,-2.2863,-2.2743,-2.1441,-2.0235,-2.0034,-1.8812,-1.7903,-1.8329,-1.8392,-1.8392,-1.8392,-1.8292,-1.8204,-1.8204,-1.8317,-1.8342,-1.8216,-1.8317,-1.8095,-1.7395,-1.7322,-1.7242,-1.7085,-1.7212,-1.7727,-1.8669,-1.8836,-1.9151,-1.969,-1.865,-1.8106,-1.8106,-1.6404,-1.5697,-1.5974,-1.4904,-1.4903,-1.0401,-1.0275,-1.0254,-1.1785,-1.2495,0.0,-1.4978,-1.5067,0.0,-1.6017,0.0,0.0,0.0,0.0,0.0,0.0,-2.2889,-2.3381,-2.3352,0.0,-2.6561,-2.6587,-2.7875,-2.8627,-2.8317,-2.8332,-2.825,-2.7968,-2.7911,-2.7911,-2.794,-2.7911,-2.7911,-2.794,-2.8237,-2.8407,-2.8407,-2.8088,-2.7722,-2.7303,-2.7272,-2.7051,-2.6674,-2.6209,-2.6013,-2.6013,-2.5959,-2.5943,-2.5979,-2.6453,-2.6657,-2.6573,-2.5617,-2.4632,-2.3724,-2.3638,-2.3595,-2.3595,-2.3595,-2.3595,-2.3595,-2.3595,-2.3595,-2.3595,-2.3595,-2.3595,-2.3595,-2.3595,-2.3565,-2.355,-2.3595,-2.3535,-2.349,-2.358,-2.3565,-2.3383,-2.283,-2.1722,-2.0685,-2.0114,-1.9396,-1.8895,-1.8945,-1.8945,-1.8945,-1.8945,-1.8506,-1.8204,-1.8204,-1.8619,-1.8744,-1.8254,-1.8644,-1.845,-1.723,-1.7134,-1.6919,-1.6384,-1.6964,-1.7565,-1.8145,-1.8631,-1.9151,-1.969,-1.865,-1.8106,-1.8106,-1.6907,-1.6205,-1.6,-1.6513,-1.7002,-1.0618,-1.0485,-1.0635,-1.244,-1.3271,0.0,0.0,-1.5984,-1.6569,-1.733,-1.7595,0.0,0.0,0.0,-2.1245,-2.2733,-2.3224,-2.3562,-2.4017,-2.502,-2.576,-2.5972,-2.7106,-2.7834,-2.7662,-2.7924,-2.8034,-2.7911,-2.7441,-2.7255,-2.7515,-2.7303,-2.7272,-2.7515,-2.7646,-2.7833,-2.8088,-2.795,-2.7692,-2.7303,-2.7035,-2.6841,-2.6691,-2.6521,-2.6453,-2.6453,-2.6453,-2.6453,-2.6453,-2.6641,-2.6691,-2.6607,-2.5598,-2.4752,-2.4053,-2.3709,-2.3595,-2.3595,-2.3595,-2.3595,-2.3595,-2.3595,-2.3595,-2.3595,-2.3595,-2.3595,-2.3595,-2.3595,-2.3595,-2.3595,-2.3595,-2.3595,-2.3595,-2.3595,-2.3595,-2.3319,-2.2308,-2.1462,-2.0698,-2.0008,-1.9408,-1.9108,-1.9434,-1.951,-1.951,-1.951,-1.9321,-1.9196,-1.9196,-1.9371,-1.9422,-1.9221,-1.8658,-1.8123,-1.7631,-1.6863,-1.6337,-1.613,-1.6904,-1.7445,-1.7612,-1.8525,-1.9287,-1.9816,-1.9095,-1.8893,-1.9224,-1.7606,-1.6951,-1.719,-1.7315,-1.7698,-1.0871,-1.0802,-1.1159,-1.2746,0.0,0.0,-1.5785,-1.667,-1.7506,-1.8345,-1.8886,0.0,0.0,0.0,0.0,0.0,-2.3596,-2.3985,-2.4745,-2.5459,-2.5999,-2.6242,-2.7033,-2.754,-2.7425,-2.7603,-2.7648,-2.753,-2.7003,-2.6873,-2.7288,-2.6923,-2.689,-2.7288,-2.7303,-2.7424,-2.7707,-2.7707,-2.756,-2.7303,-2.689,-2.6691,-2.6691,-2.6691,-2.6691,-2.6691,-2.6691,-2.6691,-2.6691,-2.6691,-2.6522,-2.6141,-2.5281,-2.4632,-2.4095,-2.3745,-2.3595,-2.3595,-2.3595,-2.3595,-2.3595,-2.3595,-2.3595,-2.3595,-2.3595,-2.3595,-2.3595,-2.3595,-2.3595,-2.3595,-2.3595,-2.3595,-2.3595,-2.3595,-2.3465,-2.3017,-2.1932,-2.1266,-2.0667,-1.9953,-1.9484,-1.9359,-1.9748,-1.9798,-1.9798,-1.9798,-1.9798,-1.9798,-1.9798,-1.9798,-1.9798,-1.9798,-1.8821,-1.805,-1.7842,-1.6998,-1.6325,-1.5923,-1.6744,-1.729,-1.748,-1.8503,-1.9307,-1.9869,-1.9328,-1.9244,-1.9609,-1.8087,-1.741,-1.7557,-1.7829,-1.8085,-1.1265,-1.1354,-1.1805,0.0,0.0,0.0,-1.6473,-1.6976,-1.7607,-1.8951,0.0,-2.0129,-2.0879,-2.1127,0.0,-2.3156,-2.4017,-2.4762,-2.5507,-2.6924,-2.7897,-2.7897,-2.8197,-2.8264,-2.794,-2.753,-2.7131,-2.6725,-2.6691,-2.6873,-2.727,-2.6923,-2.689,-2.7288,-2.7286,-2.7286,-2.7286,-2.7286,-2.7286,-2.7303,-2.689,-2.6691,-2.6691,-2.6691,-2.6691,-2.6691,-2.6691,-2.6691,-2.6691,-2.6691,-2.6105,-2.5163,-2.4612,-2.4074,-2.3595,-2.3595,-2.3595,-2.3595,-2.3595,-2.3595,-2.3595,-2.3595,-2.3595,-2.3595,-2.3595,-2.3595,-2.3595,-2.3595,-2.3595,-2.3595,-2.3595,-2.3595,-2.3595,-2.3595,-2.3143,-2.2535,-2.1852,-2.1234,-2.0597,-1.9927,-1.9798,-1.9798,-1.9798,-1.9798,-1.9798,-1.9798,-1.9811,-1.9798,-1.9798,-1.9798,-1.9798,-1.9798,-1.9123,-1.8382,-1.7649,-1.7578,-1.7049,-1.579,-1.6385,-1.7122,-1.7843,-1.8596,-1.9239,-1.9781,-1.9284,-1.9002,-1.9015,-1.8253,-1.7519,-1.6837,-1.8095,-1.8301,-1.1725,-1.2346,0.0,0.0,0.0,0.0,0.0,-1.8329,0.0,0.0,-2.1013,-2.1154,-2.1382,-2.1716,0.0,-2.3241,-2.4017,-2.4762,-2.5507,-2.6446,-2.7162,-2.7439,-2.7574,-2.7587,-2.7485,-2.7363,-2.7131,-2.6725,-2.6691,-2.6758,-2.6873,-2.6758,-2.6758,-2.6873,-2.6873,-2.6873,-2.6873,-2.6873,-2.6873,-2.6873,-2.6758,-2.6691,-2.6691,-2.6691,-2.6691,-2.6691,-2.6691,-2.6691,-2.6674,-2.6349,-2.5817,-2.5163,-2.4612,-2.4074,-2.3595,-2.3595,-2.3595,-2.3595,-2.3595,-2.3595,-2.3595,-2.3595,-2.3595,-2.3595,-2.3595,-2.3595,-2.3595,-2.3595,-2.3595,-2.3595,-2.3595,-2.3595,-2.3595,-2.3595,-2.3143,-2.2535,-2.1852,-2.1234,-2.0597,-1.9927,-1.9798,-1.9798,-1.9798,-1.9798,-1.9798,-1.9798,-2.0207,-2.0497,-2.0497,-2.0105,-1.9798,-1.9798,-1.8688,-1.7852,-1.7633,-1.6659,-1.5889,-1.5511,-1.6171,-1.6585,-1.6552,-1.8093,-1.8993,-1.916,-1.9507,-1.9621,-1.9495,-1.8432,-1.7705,-1.7393,-1.8297,-1.8581,-1.2306,-1.3158,0.0,0.0,0.0,0.0,0.0,0.0,0.0,0.0,0.0,-2.1414,-2.1567,-2.1988,0.0,-2.3274,-2.378,-2.4423,-2.5456,-2.611,-2.6693,-2.7238,-2.7303,-2.7303,-2.7303,-2.7162,-2.6971,-2.6725,-2.6691,-2.6775,-2.6939,-2.6791,-2.6758,-2.6939,-2.6774,-2.6691,-2.6691,-2.6691,-2.6691,-2.6691,-2.6691,-2.6691,-2.6691,-2.6691,-2.6691,-2.6691,-2.6691,-2.659,-2.6384,-2.589,-2.5373,-2.4831,-2.4287,-2.3879,-2.3595,-2.3595,-2.3595,-2.3595,-2.3595,-2.3595,-2.3595,-2.3595,-2.3595,-2.3595,-2.3595,-2.3595,-2.3595,-2.3595,-2.3595,-2.3595,-2.3595,-2.3595,-2.3595,-2.3595,-2.2928,-2.2193,-2.1805,-2.1015,-2.0283,-1.9875,-1.9798,-1.9798,-1.9798,-1.9798,-1.9798,-1.9798,-2.0144,-2.0396,-2.0396,-2.0055,-1.9798,-1.9798,-1.9006,-1.8232,-1.766,-1.68,-1.6016,-1.5439,-1.5806,-1.5979,-1.5774,-1.7442,-1.8372,-1.8372,-1.883,-1.899,-1.8852,-1.7855,-1.7423,-1.7605,-1.807,-1.8409,-1.2869,0.0,0.0,0.0,0.0,0.0,0.0,0.0,-1.9836,-2.0263,0.0,-2.1166,-2.1521,-2.1988,-2.2516,-2.319,-2.3359,-2.3883,-2.5304,-2.5855,-2.6426,-2.717,-2.7257,-2.7257,-2.7257,-2.6923,-2.6691,-2.6691,-2.6691,-2.6857,-2.7225,-2.6906,-2.6873,-2.7224,-2.689,-2.6691,-2.6691,-2.6691,-2.6691,-2.6691,-2.6691,-2.6691,-2.6691,-2.6691,-2.6691,-2.6691,-2.6657,-2.6384,-2.5943,-2.5373,-2.4851,-2.4348,-2.3815,-2.3595,-2.3595,-2.3595,-2.3595,-2.3595,-2.3595,-2.3595,-2.3595,-2.3595,-2.3595,-2.3595,-2.3595,-2.3595,-2.3595,-2.3595,-2.3595,-2.3595,-2.3595,-2.3595,-2.3588,-2.353,-2.2583,-2.1673,-2.1639,-2.0657,-1.9798,-1.9798,-1.9798,-1.9798,-1.9798,-1.9798,-1.9824,-1.9875,-1.985,-1.9824,-1.9875,-1.9824,-1.9798,-1.9798,-1.9747,-1.9123,-1.7715,-1.755,-1.6912,-1.5497,-1.541,-1.541,-1.541,-1.6743,-1.7495,-1.7495,-1.7578,-1.7578,-1.7495,-1.6838,-1.681,-1.7401,-1.755,-1.7961,0.0,-1.4169,0.0,0.0,0.0,0.0,0.0,0.0,-1.9909,-2.0682,-2.1181,-2.1491,-2.1582,-2.1988,-2.2347,-2.2513,-2.3021,-2.3714,-2.4609,-2.5299,-2.6008,-2.6739,-2.6824,-2.6824,-2.6824,-2.6758,-2.6691,-2.6691,-2.6691,-2.6741,-2.6824,-2.6741,-2.6741,-2.6841,-2.6741,-2.6691,-2.6691,-2.6691,-2.6691,-2.6691,-2.6691,-2.6691,-2.6691,-2.6691,-2.6691,-2.6674,-2.6314,-2.6086,-2.5924,-2.4969,-2.4511,-2.4348,-2.3815,-2.3595,-2.3595,-2.3595,-2.3595,-2.3595,-2.3595,-2.3595,-2.3595,-2.3595,-2.3595,-2.3595,-2.3595,-2.3595,-2.3595,-2.3595,-2.3595,-2.3595,-2.3595,-2.3595,-2.3486,-2.3009,-2.2285,-2.1568,-2.1088,-2.0358,-1.9798,-1.9798,-1.9798,-1.9798,-1.9798,-1.9798,-1.9978,-2.0497,-2.0131,-2.0003,-2.0522,-2.0131,-1.9798,-1.9798,-1.9281,-1.8581,-1.7688,-1.7062,-1.634,-1.5468,-1.541,-1.541,-1.541,-1.6255,-1.6736,-1.6736,-1.7302,-1.7302,-1.6736,-1.6567,-1.6283,-1.5911,-1.7052,-1.7688,0.0,0.0,0.0,0.0,0.0,0.0,0.0,0.0,-1.9836,-2.0277,-2.0699,-2.1118,-2.1521,-2.1794,-2.2032,-2.2268,-2.2617,-2.3241,-2.4355,-2.4829,-2.5473,-2.6573,-2.6691,-2.6691,-2.6691,-2.6691,-2.6691,-2.6691,-2.6691,-2.6691,-2.6691,-2.6691,-2.6691,-2.6691,-2.6691,-2.6691,-2.6691,-2.6691,-2.6691,-2.6691,-2.6691,-2.6691,-2.6691,-2.6691,-2.6691,-2.6674,-2.6209,-2.5852,-2.5542,-2.4752,-2.4246,-2.3991,-2.3724,-2.3595,-2.3595,-2.3595,-2.3595,-2.3595,-2.3595,-2.3595,-2.3595,-2.3595,-2.3595,-2.3595,-2.3595,-2.3595,-2.3595,-2.3595,-2.3595,-2.3595,-2.3595,-2.3595,-2.3443,-2.283,-2.2193,-2.1544,-2.0944,-2.027,-1.9798,-1.9798,-1.9798,-1.9798,-1.9798,-1.9798,-1.9927,-2.0283,-2.0029,-1.9927,-2.0283,-2.0029,-1.9669,-1.9319,-1.8927,-1.8259,-1.7174,-1.6708,-1.6179,-1.5439,-1.541,-1.541,-1.541,-1.5787,-1.5979,-1.5979,-1.6358,-1.6358,-1.5979,-1.5979,-1.595,-1.595,-1.7079,-1.7797,0.0,0.0,0.0,0.0,0.0,0.0,0.0,0.0,-1.9708,-1.9708,-2.0017,-2.0517,-2.1243,-2.1506,-2.1735,-2.212,-2.2254,-2.2818,-2.4288,-2.4491,-2.5049,-2.6522,-2.6691,-2.6674,-2.659,-2.659,-2.659,-2.659,-2.659,-2.6607,-2.6691,-2.6691,-2.6691,-2.6691,-2.6691,-2.6691,-2.6691,-2.6691,-2.6691,-2.6691,-2.6691,-2.6691,-2.6691,-2.6691,-2.6691,-2.6674,-2.6104,-2.5615,-2.5163,-2.4532,-2.3991,-2.3595,-2.3595,-2.3595,-2.3595,-2.3595,-2.3595,-2.3595,-2.3595,-2.3595,-2.3595,-2.3595,-2.3595,-2.3595,-2.3595,-2.3595,-2.3595,-2.3595,-2.3595,-2.3595,-2.3595,-2.3508,-2.3334,-2.2807,-2.2114,-2.14,-2.0919,-2.027,-1.9798,-1.9798,-1.9798,-1.9798,-1.9798,-1.9901,-1.9978,-1.9978,-1.9978,-1.9978,-1.9978,-1.9773,-1.9371,-1.8768,-1.8581,-1.795,-1.6595,-1.6492,-1.6179,-1.5439,-1.541,-1.541,-1.541,-1.541,-1.541,-1.541,-1.541,-1.541,-1.541,-1.541,-1.5719,-1.6322,-1.7062,-1.787,0.0,0.0,0.0,0.0,0.0,0.0,0.0,0.0,-1.9708,0.0,-2.0017,-2.0348,-2.0451,-2.1102,-2.1612,-2.1688,-2.2032,-2.2818,-2.4288,-2.4491,-2.5049,-2.6522,-2.6691,-2.6556,-2.6138,-2.6086,-2.6086,-2.6086,-2.6086,-2.6279,-2.6674,-2.6691,-2.6691,-2.6691,-2.6691,-2.6691,-2.6691,-2.6691,-2.6691,-2.6691,-2.6691,-2.6691,-2.6691,-2.6691,-2.6691,-2.6657,-2.5709,-2.5278,-2.5125,-2.4116,-2.3659,-2.3595,-2.3595,-2.3595,-2.3595,-2.3595,-2.3595,-2.3595,-2.3595,-2.3595,-2.3595,-2.3595,-2.3595,-2.3595,-2.3595,-2.3595,-2.3595,-2.3595,-2.3595,-2.3595,-2.3595,-2.3209,-2.2785,-2.2717,-2.1799,-2.0894,-2.082,-2.027,-1.9798,-1.9798,-1.9798,-1.9798,-1.9798,-2.0283,-2.0671,-2.0671,-2.0671,-2.0671,-2.0671,-1.9606,-1.8821,-1.8715,-1.8124,-1.7413,-1.6567,-1.6492,-1.6179,-1.5439,-1.541,-1.541,-1.541,-1.541,-1.541,-1.541,-1.541,-1.541,-1.541,-1.541,-1.5439,-1.5555,-1.6283,-1.7318,-1.1264,-1.3184,-1.496,0.0,0.0,0.0,0.0,0.0,-1.9136,-1.9136,-1.9582,-2.0035,-2.0263,-2.0601,-2.1023,-2.1521,-2.1779,-2.2519,-2.4257,-2.4491,-2.5049,-2.6522,-2.647,-2.6227,-2.6031,-2.5726,-2.567,-2.5995,-2.6013,-2.6209,-2.6674,-2.6691,-2.6691,-2.6691,-2.6691,-2.6691,-2.6691,-2.6691,-2.6691,-2.6691,-2.6691,-2.6691,-2.6691,-2.6691,-2.6691,-2.6641,-2.5635,-2.5202,-2.5125,-2.4032,-2.3595,-2.3595,-2.3595,-2.3595,-2.3595,-2.3595,-2.3595,-2.3595,-2.3595,-2.3595,-2.3595,-2.3595,-2.3595,-2.3595,-2.3595,-2.3595,-2.3595,-2.3595,-2.3355,-2.3165,-2.3508,-2.2868,-2.2216,-2.2603,-2.1728,-2.0795,-2.0795,-2.027,-1.9798,-1.9798,-1.9798,-1.9798,-1.9798,-2.0359,-2.0795,-2.0795,-2.1088,-2.1186,-2.0845,-1.9902,-1.8955,-1.8167,-1.7413,-1.6698,-1.595,-1.5892,-1.5748,-1.541,-1.541,-1.541,-1.541,-1.541,-1.541,-1.541,-1.541,-1.541,-1.541,-1.541,-1.541,-1.541,-1.6151,-1.722,-1.1444,-1.2967,-1.4143,-1.5669,0.0,0.0,0.0,0.0,-1.8388,0.0,-1.8957,-1.9391,-1.9692,-2.0058,-2.0501,-2.1149,-2.1368,-2.2123,-2.407,-2.4224,-2.4728,-2.6337,-2.6086,-2.5744,-2.5615,-2.524,-2.5163,-2.5559,-2.5596,-2.5872,-2.6487,-2.6505,-2.659,-2.6691,-2.6691,-2.6691,-2.6691,-2.6691,-2.6691,-2.6691,-2.6691,-2.6691,-2.6691,-2.6691,-2.6691,-2.6657,-2.5783,-2.5316,-2.5125,-2.4199,-2.3709,-2.3595,-2.3595,-2.3595,-2.3595,-2.3595,-2.3595,-2.3595,-2.3595,-2.3595,-2.3595,-2.3595,-2.3595,-2.3595,-2.3595,-2.3595,-2.3595,-2.3595,-2.329,-2.3031,-2.3486,-2.2778,-2.2123,-2.277,-2.1846,-2.0746,-2.0572,-2.0144,-1.9798,-1.9798,-1.9798,-1.9798,-1.9798,-2.0484,-2.1028,-2.1028,-2.1558,-2.1724,-2.1113,-2.0256,-1.9167,-1.7759,-1.695,-1.6208,-1.5468,-1.541,-1.5323,-1.5108,-1.5294,-1.5235,-1.4815,-1.4991,-1.5108,-1.5108,-1.5108,-1.5196,-1.541,-1.541,-1.5469,-1.5606,-1.6372,-1.7485,-1.0674,-1.1197,0.0,-1.369,0.0,0.0,0.0,0.0,-1.7511,-1.8038,-1.8157,-1.8204,-1.821,-1.9353,-2.0314,-2.0365,-2.0732,-2.1714,-2.3671,-2.3483,-2.388,-2.5814,-2.5577,-2.5047,-2.4532,-2.4471,-2.445,-2.4491,-2.4491,-2.495,-2.5979,-2.6049,-2.6244,-2.6691,-2.6691,-2.6691,-2.6691,-2.6691,-2.6691,-2.6691,-2.6691,-2.6691,-2.6691,-2.6691,-2.6691,-2.6674,-2.6157,-2.567,-2.5163,-2.4592,-2.4053,-2.3595,-2.3595,-2.3595,-2.3595,-2.3595,-2.3595,-2.3595,-2.3595,-2.3595,-2.3595,-2.3595,-2.3595,-2.3595,-2.3595,-2.3595,-2.3595,-2.3595,-2.3573,-2.3551,-2.3595,-2.312,-2.2807,-2.3421,-2.2146,-2.0635,-2.0003,-1.9824,-1.9798,-1.9798,-1.9798,-1.9798,-1.9798,-2.083,-2.1649,-2.1649,-2.223,-2.2406,-2.1734,-2.0505,-1.9167,-1.7759,-1.695,-1.6208,-1.5468,-1.541,-1.5079,-1.4293,-1.4991,-1.4717,-1.3191,-1.3846,-1.4273,-1.4273,-1.4273,-1.4628,-1.541,-1.541,-1.5625,-1.6086,-1.6953,-1.8251,-0.9908,-1.1093,0.0,0.0,0.0,0.0,-1.4601,-1.5685,-1.672,-1.6904,-1.7553,-1.8106,-1.8106,-1.8826,-1.951,-1.9798,-2.0248,-2.1064,-2.2539,-2.2953,-2.3526,-2.4709,-2.4741,-2.4612,-2.443,-2.4095,-2.4032,-2.4369,-2.441,-2.4732,-2.5449,-2.5503,-2.5726,-2.6244,-2.6244,-2.6401,-2.6691,-2.6691,-2.6691,-2.6691,-2.6691,-2.6691,-2.6691,-2.6691,-2.6539,-2.6244,-2.6067,-2.5689,-2.5163,-2.4632,-2.4095,-2.3595,-2.3595,-2.3595,-2.3595,-2.3595,-2.3595,-2.3595,-2.3595,-2.3595,-2.3595,-2.3595,-2.3595,-2.3595,-2.3595,-2.3595,-2.3595,-2.3595,-2.3334,-2.3098,-2.3508,-2.2823,-2.2123,-2.2317,-2.1875,-2.1426,-2.1621,-2.1286,-2.0733,-1.9951,-1.9719,-1.9709,-1.9784,-2.0156,-2.086,-2.2152,-2.2545,-2.2609,-2.2384,-2.1484,-2.001,-1.7847,-1.7276,-1.6622,-1.5488,-1.4932,-1.451,-1.4213,-1.4004,-1.3606,-1.3009,-1.3282,-1.3433,-1.3433,-1.4223,-1.4898,-1.541,-1.541,-1.5635,-1.6125,-1.6984,-1.8306,-0.9576,0.0,0.0,0.0,0.0,0.0,-1.3957,0.0,-1.5554,-1.6016,-1.6734,-1.7357,-1.7538,-1.8007,-1.8579,-1.9273,-1.9636,-2.0306,-2.1698,-2.2319,-2.2957,-2.3824,-2.4051,-2.4137,-2.4137,-2.3815,-2.3745,-2.4095,-2.4137,-2.4369,-2.4894,-2.4914,-2.5182,-2.5707,-2.5906,-2.6156,-2.6453,-2.6624,-2.6691,-2.6691,-2.6691,-2.6691,-2.6691,-2.6539,-2.6297,-2.5979,-2.5815,-2.543,-2.4894,-2.4552,-2.4095,-2.3595,-2.3595,-2.3595,-2.3595,-2.3595,-2.3595,-2.3595,-2.3595,-2.3595,-2.3595,-2.3595,-2.3595,-2.3595,-2.3595,-2.3595,-2.3595,-2.3595,-2.3312,-2.3098,-2.3486,-2.298,-2.2294,-2.2086,-2.2371,-2.2687,-2.2714,-2.2125,-2.142,-2.0849,-2.0222,-1.9833,-1.992,-1.9836,-2.031,-2.1954,-2.2215,-2.2318,-2.2569,-2.1976,-2.0756,-1.8753,-1.83,-1.7579,-1.6193,-1.5537,-1.4788,-1.3855,-1.3705,-1.3406,-1.2819,-1.3067,-1.3394,-1.3831,-1.4675,-1.5346,-1.5859,-1.5859,-1.6084,-1.6566,-1.742,-1.8788,0.0,0.0,0.0,0.0,0.0,0.0,-1.4239,0.0,-1.4037,-1.5358,-1.5651,-1.5819,-1.6362,-1.6896,-1.7599,-1.8669,-1.8874,-1.9505,-2.1203,-2.1542,-2.2073,-2.3215,-2.3461,-2.3537,-2.3595,-2.3573,-2.3573,-2.3595,-2.3595,-2.3837,-2.4348,-2.4389,-2.4637,-2.5131,-2.5689,-2.5979,-2.5962,-2.6419,-2.6674,-2.6674,-2.6674,-2.6674,-2.6657,-2.6191,-2.5961,-2.5924,-2.5392,-2.4855,-2.4369,-2.4389,-2.4095,-2.3595,-2.3595,-2.3595,-2.3595,-2.3595,-2.3595,-2.3595,-2.3595,-2.3595,-2.3595,-2.3595,-2.3595,-2.3595,-2.3595,-2.3595,-2.3595,-2.3595,-2.3595,-2.3595,-2.3595,-2.3595,-2.3465,-2.2867,-2.3679,-2.4241,-2.3031,-2.2216,-2.1877,-2.2485,-2.1322,-2.0267,-2.0226,-2.0052,-2.0218,-2.1129,-2.131,-2.1629,-2.2378,-2.201,-2.1351,-2.0506,-1.9941,-1.9031,-1.7584,-1.7301,-1.6019,-1.3285,-1.4246,-1.4198,-1.2531,-1.3251,-1.4276,-1.5505,-1.5588,-1.5968,-1.677,-1.6707,-1.6921,-1.7416,-1.8253,-1.9837,-0.9854,0.0,0.0,0.0,0.0,0.0,0.0,0.0,-1.335,-1.4098,-1.4396,-1.484,-1.5743,-1.6043,-1.6493,-1.7579,-1.84,-1.9064,-1.9557,-2.006,-2.0833,-2.2023,-2.185,-2.2154,-2.3463,-2.3224,-2.312,-2.3573,-2.3595,-2.3659,-2.3815,-2.4199,-2.4238,-2.3897,-2.4891,-2.5188,-2.4689,-2.5697,-2.6191,-2.6191,-2.6191,-2.6191,-2.6191,-2.567,-2.5221,-2.4835,-2.4692,-2.4307,-2.3858,-2.4225,-2.4095,-2.3595,-2.3595,-2.3595,-2.3595,-2.3595,-2.3595,-2.3595,-2.3595,-2.3595,-2.3595,-2.3595,-2.3595,-2.3595,-2.3595,-2.3595,-2.3595,-2.3595,-2.3595,-2.3595,-2.3595,-2.3595,-2.3551,-2.3399,-2.3635,-2.406,-2.4673,-2.421,-2.3481,-2.2751,-2.2114,-2.16,-2.1209,-2.064,-2.0852,-2.2526,-2.2884,-2.3196,-2.3836,-2.3741,-2.3004,-2.1365,-2.058,-1.9795,-1.8851,-1.7819,-1.6652,-1.5332,-1.554,-1.5254,-1.4245,-1.494,-1.5708,-1.6482,-1.7384,-1.7914,-1.8124,-1.7175,-1.6921,-1.7458,-1.9211,-2.1026,-1.0662,0.0,0.0,0.0,0.0,0.0,-1.2613,-1.2871,-1.3221,0.0,-1.4241,-1.4558,-1.525,-1.5563,-1.5896,-1.653,-1.7524,-1.8322,-1.8535,-1.9146,-1.9906,-2.0839,-2.0923,-2.1394,-2.2684,-2.2748,-2.2867,-2.3201,-2.3465,-2.3595,-2.3595,-2.39,-2.3769,-2.3127,-2.4253,-2.4543,-2.3866,-2.4784,-2.5248,-2.5248,-2.5248,-2.5103,-2.4842,-2.4853,-2.454,-2.3986,-2.4056,-2.39,-2.3616,-2.3943,-2.3879,-2.3595,-2.3595,-2.3595,-2.3595,-2.3595,-2.3595,-2.3595,-2.3595,-2.3443,-2.3209,-2.3209,-2.3209,-2.3209,-2.3209,-2.3399,-2.3595,-2.3595,-2.3595,-2.367,-2.3954,-2.4007,-2.4007,-2.4007,-2.4448,-2.4986,-2.5495,-2.5692,-2.5474,-2.4426,-2.3336,-2.248,-2.2187,-2.1475,-2.146,-2.2991,-2.3362,-2.3809,-2.4762,-2.4611,-2.4109,-2.3211,-2.2282,-2.1536,-2.106,-1.9963,-1.8799,-1.7528,-1.7832,-1.7734,-1.7004,-1.7664,-1.8474,-1.9346,-1.9756,-1.98,-1.9497,-1.8702,-1.8456,-1.8759,-2.0392,-2.1678,-1.204,-1.2218,0.0,0.0,-1.2841,0.0,-1.3679,-1.3478,-1.3347,0.0,-1.436,-1.4411,-1.4714,-1.513,-1.5454,-1.558,-1.6445,-1.7335,-1.7933,-1.8521,-1.9128,-1.9735,-2.0235,-2.0804,-2.1545,-2.2085,-2.2486,-2.2672,-2.3268,-2.3595,-2.3595,-2.3595,-2.331,-2.2718,-2.3738,-2.3983,-2.3339,-2.3926,-2.422,-2.422,-2.422,-2.3919,-2.3359,-2.401,-2.3983,-2.3423,-2.3538,-2.3595,-2.3595,-2.3595,-2.3595,-2.3595,-2.3595,-2.3595,-2.3595,-2.3595,-2.3595,-2.3595,-2.3508,-2.3143,-2.2694,-2.2694,-2.2694,-2.2694,-2.2785,-2.3165,-2.3595,-2.3595,-2.3655,-2.3849,-2.4455,-2.4664,-2.4709,-2.4709,-2.557,-2.6258,-2.5809,-2.6572,-2.7244,-2.6718,-2.4856,-2.3373,-2.3297,-2.262,-2.2365,-2.3136,-2.35,-2.4122,-2.537,-2.5036,-2.491,-2.5356,-2.4332,-2.3587,-2.3512,-2.2857,-2.1677,-1.9866,-2.0725,-2.1003,-2.0302,-2.0925,-2.1849,-2.306,-2.2347,-2.1666,-2.1026,-2.0739,-2.0655,-2.0751,-2.1522,-2.1975,-1.4057,-1.4224,-1.4186,-1.3717,0.0,0.0,-1.2767,-1.2529,-1.2521,0.0,-1.2265,-1.2301,-1.3683,-1.3811,-1.398,-1.4909,-1.5593,-1.6353,-1.7328,-1.7569,-1.8057,-1.9121,-1.8548,-1.8884,-2.0864,-2.0756,-2.1134,-2.2597,-2.3268,-2.3595,-2.3595,-2.3595,-2.331,-2.2718,-2.3393,-2.345,-2.2838,-2.386,-2.4369,-2.4369,-2.4369,-2.4291,-2.4162,-2.3869,-2.3691,-2.3571,-2.3578,-2.3595,-2.3595,-2.3595,-2.3595,-2.3595,-2.3595,-2.3595,-2.3595,-2.3595,-2.3595,-2.353,-2.3031,-2.2785,-2.2694,-2.2694,-2.2694,-2.2785,-2.329,-2.3508,-2.3595,-2.3595,-2.3999,-2.444,-2.4575,-2.4993,-2.5397,-2.5397,-2.5187,-2.5247,-2.6198,-2.6183,-2.6279,-2.7199,-2.6546,-2.5631,-2.5022,-2.4784,-2.4727,-2.4924,-2.5479,-2.5978,-2.6242,-2.6169,-2.594,-2.554,-2.4355,-2.3771,-2.4162,-2.3683,-2.3122,-2.2638,-2.3352,-2.3459,-2.2738,-2.3418,-2.415,-2.4869,-2.4168,-2.3715,-2.3581,-2.1581,-2.0942,-2.1647,-2.1815,-2.2503,-1.5279,-1.5107,-1.4918,-1.4538,0.0,0.0,0.0,-1.3392,-1.3165,-1.3552,-1.2869,-1.2485,-1.3427,-1.352,-1.3638,-1.4218,-1.5081,-1.5795,-1.6072,-1.6561,-1.7255,-1.8138,-1.7753,-1.7964,-1.94,-1.9536,-2.0316,-2.2154,-2.2834,-2.3275,-2.3573,-2.3595,-2.331,-2.2718,-2.3302,-2.3146,-2.2224,-2.3091,-2.3371,-2.3051,-2.3386,-2.3371,-2.3066,-2.3423,-2.343,-2.3182,-2.346,-2.3595,-2.3595,-2.3595,-2.3595,-2.3595,-2.3595,-2.3595,-2.3595,-2.3595,-2.3421,-2.3113,-2.2807,-2.2267,-2.1799,-2.2114,-2.2193,-2.2323,-2.2965,-2.3355,-2.367,-2.4014,-2.4335,-2.4663,-2.4967,-2.5562,-2.6022,-2.5653,-2.5838,-2.6183,-2.6512,-2.6587,-2.6806,-2.7465,-2.7306,-2.6826,-2.6095,-2.596,-2.596,-2.596,-2.6575,-2.7034,-2.7034,-2.7034,-2.6916,-2.6589,-2.5672,-2.534,-2.5934,-2.5456,-2.507,-2.4991,-2.5647,-2.5741,-2.5034,-2.5687,-2.6019,-2.5946,-2.5591,-2.5231,-2.4838,-2.3217,-2.2457,-2.2506,-2.2506,-2.3028,0.0,0.0,0.0,0.0,0.0,-1.5181,0.0,0.0,0.0,-1.4718,-1.3967,0.0,0.0,0.0,0.0,-1.3739,0.0,0.0,-1.4815,-1.5567,-1.6409,-1.6986,-1.7149,-1.7438,-1.799,-1.8578,-1.9664,-2.1402,-2.1963,-2.2547,-2.3384,-2.3302,-2.3129,-2.2882,-2.3242,-2.2981,-2.2069,-2.2613,-2.2613,-2.2069,-2.2613,-2.2598,-2.2099,-2.3131,-2.3325,-2.2897,-2.3385,-2.3595,-2.3595,-2.3595,-2.3595,-2.3595,-2.3595,-2.353,-2.3421,-2.3421,-2.3031,-2.2498,-2.236,-2.1752,-2.1053,-2.1544,-2.1862,-2.2193,-2.2861,-2.3415,-2.3939,-2.4605,-2.4782,-2.4899,-2.5358,-2.6038,-2.6431,-2.5846,-2.6575,-2.73,-2.6896,-2.7121,-2.745,-2.757,-2.7499,-2.7255,-2.68,-2.6721,-2.6721,-2.6721,-2.7229,-2.76,-2.76,-2.76,-2.754,-2.742,-2.6926,-2.6811,-2.736,-2.7009,-2.6826,-2.6962,-2.7459,-2.7593,-2.717,-2.7548,-2.7494,-2.689,-2.6628,-2.6203,-2.5618,-2.4879,-2.4105,-2.3335,-2.3155,-2.3471,0.0,0.0,0.0,0.0,-1.7036,0.0,0.0,0.0,-1.4558,-1.4044,0.0,0.0,0.0,0.0,0.0,0.0,0.0,0.0,-1.4259,-1.4714,-1.5286,-1.5819,-1.6321,-1.6848,-1.7413,-1.8039,-1.8901,-2.0127,-2.0337,-2.1086,-2.2727,-2.2242,-2.2396,-2.3454,-2.3062,-2.3002,-2.337,-2.346,-2.346,-2.3385,-2.346,-2.346,-2.3385,-2.3535,-2.3565,-2.349,-2.3565,-2.3595,-2.3595,-2.3595,-2.3595,-2.3595,-2.3595,-2.3275,-2.2785,-2.2785,-2.2392,-2.1734,-2.1199,-2.1283,-2.1615,-2.1673,-2.2455,-2.3525,-2.4179,-2.4417,-2.4634,-2.5292,-2.5438,-2.542,-2.5488,-2.6,-2.6474,-2.6395,-2.6549,-2.6866,-2.7375,-2.7091,-2.6896,-2.748,-2.706,-2.68,-2.7382,-2.7473,-2.7473,-2.7473,-2.7549,-2.76,-2.76,-2.76,-2.7375,-2.6791,-2.6632,-2.6641,-2.6692,-2.7123,-2.7667,-2.8237,-2.836,-2.8607,-2.9069,-2.8639,-2.8367,-2.8255,-2.7108,-2.6457,-2.6363,-2.5618,-2.4894,-2.4147,-2.3424,-2.3684,0.0,0.0,0.0,0.0,0.0,0.0,-1.5714,0.0,-1.4826,0.0,0.0,0.0,0.0,0.0,0.0,0.0,-1.4602,0.0,0.0,0.0,-1.5248,-1.525,-1.5417,-1.5781,-1.6367,-1.6918,-1.7744,-1.891,-1.9046,-1.9834,-2.1557,-2.1758,-2.2192,-2.3056,-2.3182,-2.3182,-2.3092,-2.3415,-2.3415,-2.3092,-2.343,-2.3595,-2.3595,-2.3595,-2.3595,-2.3595,-2.3595,-2.3595,-2.3595,-2.3595,-2.3399,-2.3076,-2.3076,-2.292,-2.2649,-2.2276,-2.1724,-2.1137,-2.0894,-2.0968,-2.1307,-2.2044,-2.2883,-2.3729,-2.4395,-2.4605,-2.4723,-2.536,-2.5531,-2.5397,-2.4928,-2.5342,-2.5864,-2.5864,-2.6215,-2.6736,-2.7464,-2.7375,-2.727,-2.754,-2.7008,-2.6747,-2.7458,-2.7255,-2.7126,-2.7549,-2.76,-2.76,-2.76,-2.76,-2.748,-2.721,-2.718,-2.7329,-2.7664,-2.7936,-2.835,-2.898,-2.9035,-2.9134,-2.9384,-2.9157,-2.885,-2.8511,-2.7938,-2.7504,-2.7152,-2.639,-2.5827,-2.538,-2.4603,-2.4464,-1.8884,0.0,0.0,0.0,0.0,0.0,0.0,0.0,0.0,0.0,0.0,0.0,0.0,0.0,-1.4993,-1.4702,0.0,-1.5064,0.0,-1.4759,0.0,0.0,-1.4872,-1.5047,-1.5449,-1.5693,-1.6392,-1.7708,-1.766,-1.8411,-2.0316,-2.0834,-2.1505,-2.245,-2.2873,-2.3026,-2.2957,-2.337,-2.337,-2.2957,-2.3385,-2.3595,-2.3595,-2.3595,-2.3595,-2.3595,-2.3595,-2.3595,-2.3595,-2.3595,-2.3334,-2.292,-2.2566,-2.2429,-2.2346,-2.1687,-2.1064,-2.0535,-2.0535,-2.0733,-2.1224,-2.2337,-2.323,-2.3955,-2.4445,-2.4701,-2.4938,-2.5346,-2.5333,-2.5033,-2.4446,-2.4709,-2.5147,-2.5342,-2.596,-2.6695,-2.7433,-2.76,-2.76,-2.76,-2.6837,-2.6443,-2.7163,-2.6852,-2.6747,-2.7484,-2.76,-2.76,-2.76,-2.76,-2.76,-2.76,-2.76,-2.7785,-2.8213,-2.8391,-2.8756,-2.9361,-2.9563,-2.9651,-2.9651,-2.9651,-2.9361,-2.8756,-2.8583,-2.8213,-2.76,-2.7251,-2.6892,-2.6524,-2.5553,-2.5068,-1.9858,-2.005,-1.9959,-1.8687,-1.8036,-1.7356,-1.6098,-1.6248,-1.6473,0.0,0.0,0.0,0.0,-1.7159,-1.724,-1.6194,-1.5508,0.0,0.0,0.0,0.0,0.0,0.0,0.0,-1.4909,-1.4462,-1.484,-1.6443,-1.6065,-1.6773,-1.9025,-1.9057,-1.9908,-2.1859,-2.183,-2.2338,-2.355,-2.3595,-2.3595,-2.3565,-2.3595,-2.3595,-2.3595,-2.3595,-2.3595,-2.3595,-2.3595,-2.3595,-2.3595,-2.3595,-2.3595,-2.345,-2.2225,-2.172,-2.1663,-2.1053,-2.0396,-1.9824,-1.9824,-2.0632,-2.1781,-2.2475,-2.3553,-2.4566,-2.451,-2.4944,-2.546,-2.5437,-2.4895,-2.4323,-2.4308,-2.4321,-2.4509,-2.5231,-2.596,-2.6695,-2.7433,-2.76,-2.76,-2.76,-2.6428,-2.5673,-2.6404,-2.651,-2.6747,-2.7484,-2.76,-2.76,-2.76,-2.76,-2.76,-2.76,-2.76,-2.7625,-2.7625,-2.8165,-2.8756,-2.9361,-2.9951,-3.0272,-3.0272,-3.0272,-2.9995,-2.9384,-2.8803,-2.8213,-2.76,-2.8248,-2.8151,-2.7419,-2.5846,-2.5275,-1.9435,-1.9667,-1.9697,-1.8818,-1.8159,-1.7458,-1.6592,-1.6547,-1.6532,-1.5919,-1.6458,0.0,0.0,-1.6293,-1.6323,-1.595,-1.5714,-1.5522,0.0,0.0,0.0,0.0,0.0,0.0,0.0,-1.4989,-1.5298,-1.6292,-1.5866,-1.6409,-1.8323,-1.881,-1.987,-2.1715,-2.2157,-2.2763,-2.3595,-2.3595,-2.3595,-2.3595,-2.3595,-2.3595,-2.3595,-2.3595,-2.3595,-2.3595,-2.3595,-2.3595,-2.3595,-2.3595,-2.3377,-2.292,-2.2039,-2.1448,-2.1028,-2.0396,-2.0003,-1.985,-2.0295,-2.0983,-2.174,-2.2419,-2.3178,-2.3897,-2.4299,-2.4609,-2.477,-2.4704,-2.4481,-2.4176,-2.3649,-2.3514,-2.3826,-2.5091,-2.5591,-2.6108,-2.7331,-2.76,-2.76,-2.76,-2.6402,-2.5618,-2.6363,-2.5673,-2.5453,-2.668,-2.6878,-2.7034,-2.7549,-2.76,-2.76,-2.76,-2.76,-2.776,-2.8165,-2.8756,-2.9361,-2.9957,-3.0187,-3.0293,-3.0293,-3.0293,-2.9827,-2.8826,-2.8606,-2.8419,-2.8248,-2.8487,-2.8349,-2.7825,-2.7286,-2.6827,-1.9392,-1.9539,-1.9543,-1.8867,-1.8371,-1.7878,-1.7219,-1.7234,-1.7235,-1.6623,-1.6966,-1.7295,-1.6907,-1.6638,-1.6488,-1.6488,-1.6098,-1.5724,0.0,-1.5389,0.0,0.0,0.0,0.0,0.0,0.0,-1.5121,-1.6222,-1.5573,-1.6006,-1.7984,-1.8505,-1.9579,-2.1355,-2.2017,-2.2763,-2.3595,-2.3595,-2.3595,-2.3595,-2.3595,-2.3595,-2.3595,-2.3595,-2.3595,-2.3595,-2.3595,-2.3595,-2.3595,-2.3595,-2.3246,-2.2626,-2.1969,-2.1342,-2.0721,-2.0055,-1.9936,-2.0216,-2.0823,-2.1407,-2.197,-2.2397,-2.3099,-2.379,-2.3947,-2.4191,-2.431,-2.3971,-2.3884,-2.3738,-2.3215,-2.3108,-2.3501,-2.5035,-2.5398,-2.581,-2.7265,-2.76,-2.76,-2.76,-2.6402,-2.5536,-2.6041,-2.4866,-2.4394,-2.5892,-2.6122,-2.639,-2.7111,-2.7203,-2.7306,-2.7575,-2.76,-2.776,-2.814,-2.8543,-2.9019,-2.9629,-2.9848,-2.9978,-2.9978,-3.0187,-2.9739,-2.8511,-2.8487,-2.8526,-2.8607,-2.8831,-2.8788,-2.847,-2.8387,-2.7922]},{"header":{"parameterUnit":"m.s-1","parameterCategory":1,"la1":30.6,"la2":29.2853,"lo1":-89.7004,"lo2":-87.6739,"dy":0.0162,"dx":0.0183,"nx":112,"ny":82,"refTime":"2026-05-20T12:00:00:Z","depth":0,"parameterNumber":3,"parameterNumberName":"V-component_of_WINDS"},"data":[0.0,0.0,0.0,0.0,0.0,0.0,0.0,0.0,0.0,0.0,0.0,0.0,0.0,0.0,0.0,0.0,0.0,0.0,0.0,0.0,0.0,0.0,0.0,0.0,0.0,0.0,0.0,0.0,0.0,0.0,0.0,0.0,0.0,0.0,0.0,0.0,0.0,0.0,0.0,0.0,0.0,0.0,0.0,0.0,0.0,0.0,0.0,0.0,0.0,0.0,0.0,0.0,0.0,0.0,0.0,0.0,0.0,0.0,0.0,0.0,0.0,0.0,0.0,0.0,0.0,0.0,0.0,0.0,0.0,0.0,0.0,0.0,0.0,0.0,0.0,0.0,0.0,0.0,0.0,0.0,0.0,0.0,0.0,0.0,0.0,0.0,0.0,0.0,0.0,0.0,0.6201,0.656,0.7262,0.7695,0.7695,0.7695,0.733,0.6453,0.0,0.0,0.0,0.0,0.0,0.0,0.0,0.0,0.0,0.0,0.0,0.0,0.0,0.0,0.0,0.0,0.0,0.0,0.0,0.0,0.0,0.0,0.0,0.0,0.0,0.0,0.0,0.0,0.0,0.0,0.0,0.0,0.0,0.0,0.0,0.0,0.0,0.0,0.0,0.0,0.0,0.0,0.0,0.0,0.0,0.0,0.0,0.0,0.0,0.0,0.0,0.0,0.0,0.0,0.0,0.0,0.0,0.0,0.0,0.0,0.0,0.0,0.0,0.0,0.0,0.0,0.0,0.0,0.0,0.0,0.0,0.0,0.0,0.0,0.0,0.0,0.0,0.0,0.0,0.0,0.0,0.0,0.0,0.0,0.0,0.0,0.0,0.0,0.0,0.0,0.0,0.0,0.0,0.0,0.0,0.0,0.0,0.0,0.0,0.0,0.0,0.0,0.0,0.0,0.6638,0.7413,0.7618,0.7695,0.7695,0.7695,0.733,0.6453,0.0,0.0,0.0,0.0,0.0,0.0,0.0,0.0,0.0,0.0,0.0,0.0,0.0,0.0,0.0,0.0,0.0,0.0,0.0,0.0,0.0,0.0,0.0,0.0,0.0,0.0,0.0,0.0,0.0,0.0,0.0,0.0,0.0,0.0,0.0,0.0,0.0,0.0,0.0,0.0,0.0,0.0,0.0,0.0,0.0,0.0,0.0,0.0,0.0,0.0,0.0,0.0,0.0,0.0,0.0,0.0,0.0,0.0,0.0,0.0,0.0,0.0,0.0,0.0,0.0,0.0,0.0,0.0,0.0,0.0,0.0,0.0,0.0,0.0,0.0,0.0,0.0,0.0,0.0,0.0,0.0,0.0,0.0,0.0,0.0,0.0,0.0,0.0,0.0,0.0,0.0,0.0,0.0,0.0,0.0,0.0,0.0,0.0,0.0,0.0,0.0,0.0,0.0,0.6445,0.6735,0.7608,0.7695,0.7695,0.7695,0.7695,0.733,0.6453,0.6394,0.0,0.0,0.0,0.0,0.0,0.0,0.0,0.0,0.0,0.0,0.0,0.0,0.0,0.0,0.0,0.0,0.0,0.0,0.0,0.0,0.0,0.0,0.0,0.0,0.0,0.0,0.0,0.0,0.0,0.0,0.0,0.0,0.0,0.0,0.0,0.0,0.0,0.0,0.0,0.0,0.0,0.0,0.0,0.0,0.0,0.0,0.0,0.0,0.0,0.0,0.0,0.0,0.0,0.0,0.0,0.0,0.0,0.0,0.0,0.0,0.0,0.0,0.0,0.0,0.0,0.0,0.0,0.0,0.0,0.0,0.0,0.0,0.0,0.0,0.0,0.0,0.0,0.0,0.0,0.0,0.0,0.0,0.0,0.0,0.0,0.0,0.0,0.0,0.0,0.0,0.0,0.0,0.0,0.0,0.0,0.0,0.0,0.0,0.0,0.0,0.0,0.0,0.6794,0.6959,0.7627,0.7695,0.7695,0.7695,0.7608,0.7232,0.6443,0.6318,0.0,0.0,0.0,0.0,0.0,0.0,0.0,0.0,0.0,0.0,0.0,0.0,0.0,0.0,0.0,0.0,0.0,0.0,0.0,0.0,0.0,0.0,0.0,0.0,0.0,0.0,0.0,0.0,0.0,0.0,0.0,0.0,0.0,0.0,0.0,0.0,0.0,0.0,0.0,0.0,0.0,0.0,0.0,0.0,0.0,0.0,0.0,0.0,0.0,0.0,0.0,0.0,0.0,0.0,0.0,0.0,0.0,0.0,0.0,0.0,0.0,0.0,0.0,0.0,0.0,0.0,0.0,0.0,0.0,0.0,0.0,0.0,0.0,0.0,0.0,0.0,0.0,0.0,0.0,0.0,0.0,0.0,0.0,0.0,0.0,0.0,0.0,0.0,0.0,0.0,0.0,0.0,0.0,0.0,0.0,0.0,0.0,0.0,0.0,0.0,0.0,0.0,0.7135,0.7627,0.7695,0.7695,0.7695,0.7695,0.7359,0.6934,0.6436,0.6056,0.0,0.0,0.0,0.0,0.0,0.0,0.0,0.0,0.0,0.0,0.0,0.0,0.0,0.0,0.0,0.0,0.0,0.0,0.0,0.0,0.0,0.0,0.0,0.0,0.0,0.0,0.0,0.0,0.0,0.0,0.0,0.0,0.0,0.0,0.0,0.0,0.0,0.0,0.0,0.0,0.0,0.0,0.0,0.0,0.0,0.0,0.0,0.0,0.0,0.0,0.0,0.0,0.0,0.0,0.0,0.0,0.0,0.0,0.0,0.0,0.0,0.0,0.0,0.0,0.0,0.0,0.0,0.0,0.0,0.0,0.0,0.0,0.0,0.0,0.0,0.0,0.0,0.0,0.0,0.0,0.0,0.0,0.0,0.0,0.0,0.0,0.0,0.0,0.0,0.0,0.0,0.0,0.0,0.0,0.0,0.0,0.0,0.0,0.0,0.0,0.0,0.0,0.694,0.7427,0.0,0.7695,0.7695,0.7695,0.7559,0.7174,0.6443,0.0,0.0,0.0,0.0,0.0,0.0,0.0,0.0,0.0,0.0,0.0,0.0,0.0,0.0,0.0,0.0,0.0,0.0,0.0,0.0,0.0,0.0,0.0,0.0,0.0,0.0,0.0,0.0,0.0,0.0,0.0,0.0,0.0,0.0,0.0,0.0,0.0,0.0,0.0,0.0,0.0,0.0,0.0,0.0,0.0,0.0,0.0,0.0,0.0,0.0,0.0,0.0,0.0,0.0,0.0,0.0,0.0,0.0,0.0,0.0,0.0,0.0,0.0,0.0,0.0,0.0,0.0,0.0,0.0,0.0,0.0,0.0,0.0,0.0,0.0,0.0,0.0,0.0,0.0,0.0,0.0,0.0,0.0,0.0,0.0,0.0,0.0,0.0,0.0,0.0,0.0,0.0,0.0,0.0,0.0,0.0,0.0,0.0,0.0,0.0,0.0,0.0,0.6355,0.692,0.7398,0.0,0.7695,0.7695,0.7695,0.7579,0.7193,0.6455,0.0,0.0,0.0,0.0,0.0,0.0,0.0,0.0,0.0,0.0,0.0,0.0,0.0,0.0,0.0,0.0,0.0,0.0,0.0,0.0,0.0,0.0,0.0,0.0,0.0,0.0,0.0,0.0,0.0,0.0,0.0,0.0,0.0,0.0,0.0,0.0,0.0,0.0,0.0,0.0,0.0,0.0,0.0,0.0,0.0,0.0,0.0,0.0,0.0,0.0,0.0,0.0,0.0,0.0,0.0,0.0,0.0,0.0,0.0,0.0,0.0,0.0,0.0,0.0,0.0,0.0,0.0,0.0,0.0,0.0,0.0,0.0,0.0,0.0,0.0,0.0,0.0,0.0,0.0,0.0,0.0,0.0,0.0,0.0,0.0,0.0,0.0,0.0,0.0,0.0,0.0,0.0,0.0,0.0,0.0,0.0,0.0,0.0,0.0,0.0,0.0,0.0,0.6416,0.7164,0.7695,0.7695,0.7695,0.7695,0.7695,0.733,0.6914,0.0,0.0,0.0,0.0,0.0,0.0,0.0,0.0,0.0,0.0,0.0,0.0,0.0,0.0,0.0,0.0,0.0,0.0,0.0,0.0,0.0,0.0,0.0,0.0,0.0,0.0,0.0,0.0,0.0,0.0,0.0,0.0,0.0,0.0,0.0,0.0,0.0,0.0,0.0,0.0,0.0,0.0,0.0,0.0,0.0,0.0,0.0,0.0,0.0,0.0,0.0,0.0,0.0,0.0,0.0,0.0,0.0,0.0,0.0,0.0,0.0,0.0,0.0,0.0,0.0,0.0,0.0,0.0,0.0,0.0,0.0,0.0,0.0,0.0,0.0,0.0,0.0,0.0,0.0,0.0,0.0,0.0,0.0,0.0,0.0,0.0,0.0,0.0,0.0,0.0,0.0,0.0,0.0,0.0,0.0,0.0,0.0,0.0,0.0,0.0,0.0,0.0,0.0,0.6855,0.7369,0.7695,0.7695,0.7695,0.7695,0.7695,0.7588,0.7203,0.6455,0.0,0.0,0.0,0.0,0.0,0.0,0.0,0.0,0.0,0.0,0.0,0.0,0.0,0.0,0.0,0.0,0.0,0.0,0.0,0.0,0.0,0.0,0.0,0.0,0.0,0.0,0.0,0.0,0.0,0.0,0.0,0.0,0.0,0.0,0.0,0.0,0.0,0.0,0.0,0.0,0.0,0.0,0.0,0.0,0.0,0.0,0.0,0.0,0.0,0.0,0.0,0.0,0.0,0.0,0.0,0.0,0.0,0.0,0.0,0.0,0.0,0.0,0.0,0.0,0.0,0.0,0.0,0.0,0.0,0.0,0.0,0.0,0.0,0.0,0.0,0.0,0.0,0.0,0.0,0.0,0.0,0.0,0.0,0.0,0.0,0.0,0.0,0.0,0.0,0.0,0.0,0.0,0.0,0.0,0.0,0.0,0.0,0.0,0.0,0.0,0.0,0.0,0.7041,0.7457,0.7695,0.7695,0.7695,0.7695,0.7695,0.7695,0.733,0.6453,0.0,0.0,0.0,0.0,0.0,0.0,0.0,0.0,0.0,0.0,0.0,0.0,0.0,0.0,0.0,0.0,0.0,0.0,0.0,0.0,0.0,0.0,0.0,0.0,0.0,0.0,0.0,0.0,0.0,0.0,0.0,0.0,0.0,0.0,0.0,0.0,0.0,0.0,0.0,0.0,0.0,0.0,0.0,0.0,0.0,0.0,0.0,0.0,0.0,0.0,0.0,0.0,0.0,0.0,0.0,0.0,0.0,0.0,0.0,0.0,0.0,0.0,0.0,0.0,0.0,0.0,0.0,0.0,0.0,0.0,0.0,0.0,0.0,0.0,0.0,0.0,0.0,0.0,0.0,0.0,0.0,0.0,0.0,0.0,0.0,0.0,0.0,0.0,0.0,0.0,0.0,0.0,0.0,0.0,0.0,0.0,0.0,0.0,0.0,0.0,0.0,0.0,0.709,0.7476,0.7695,0.7695,0.7695,0.7695,0.7695,0.7695,0.7349,0.6523,0.0,0.0,0.0,0.0,0.0,0.0,0.0,0.0,0.0,0.0,0.0,0.0,0.0,0.0,0.0,0.0,0.0,0.0,0.0,0.0,0.0,0.0,0.0,0.0,0.0,0.0,0.0,0.0,0.0,0.0,0.0,0.0,0.0,0.0,0.0,0.0,0.0,0.0,0.0,0.0,0.0,0.0,0.0,0.0,0.0,0.0,0.0,0.0,0.0,0.0,0.0,0.0,0.0,0.0,0.0,0.0,0.0,0.0,0.0,0.0,0.6896,0.6318,0.0,0.0,0.0,0.0,0.0,0.0,0.0,0.0,0.0,0.0,0.0,0.0,0.0,0.0,0.0,0.0,0.0,0.0,0.0,0.0,0.0,0.0,0.0,0.0,0.0,0.0,0.0,0.0,0.0,0.0,0.0,0.0,0.0,0.0,0.0,0.0,0.0,0.0,0.0,0.0,0.7462,0.7637,0.7695,0.7695,0.7695,0.7695,0.7695,0.7695,0.7496,0.6982,0.6611,0.0,0.0,0.0,0.0,0.0,0.0,0.0,0.0,0.0,0.0,0.0,0.0,0.0,0.0,0.0,0.0,0.0,0.0,0.0,0.0,0.0,0.0,0.0,0.0,0.0,0.0,0.0,0.0,0.0,0.0,0.0,0.0,0.0,0.0,0.0,0.0,0.0,0.0,0.0,0.0,0.0,0.0,0.0,0.0,0.0,0.0,0.0,0.0,0.0,0.0,0.0,0.0,0.0,0.0,0.0,0.0,0.0,0.0,0.0,0.794,0.7741,0.0,0.0,0.0,0.0,0.0,0.0,0.0,0.0,0.0,0.0,0.0,0.0,0.0,0.0,0.0,0.0,0.0,0.0,0.0,0.0,0.0,0.0,0.0,0.0,0.0,0.0,0.0,0.0,0.0,0.0,0.0,0.0,0.0,0.0,0.0,0.0,0.0,0.0,0.0,0.0,0.7618,0.7695,0.7695,0.7695,0.7875,0.7914,0.771,0.7885,0.7738,0.7142,0.6875,0.0,0.0,0.0,0.0,0.0,0.0,0.0,0.0,0.0,0.0,0.0,0.0,0.0,0.0,0.0,0.0,0.0,0.0,0.0,0.0,0.0,0.0,0.0,0.0,0.0,0.0,0.0,0.0,0.0,0.0,0.0,0.0,0.0,0.0,0.0,0.0,0.0,0.0,0.0,0.0,0.0,0.0,0.0,0.0,0.0,0.0,0.0,0.0,0.0,0.0,0.0,0.0,0.0,0.6567,0.7172,0.7984,0.8413,0.9166,1.0034,0.9385,0.9638,1.039,0.9079,0.0,0.0,0.0,0.0,0.0,0.0,0.0,0.0,0.0,0.0,0.0,0.0,0.0,0.0,0.0,0.0,0.0,0.0,0.0,0.0,0.0,0.0,0.8597,0.8518,0.8497,0.8026,0.6294,0.0,0.0,0.0,0.0,0.0,0.0,0.0,0.0,0.0,0.0,0.0,0.7647,0.7695,0.7695,0.7695,0.799,0.8062,0.7725,0.8004,0.7909,0.725,0.7139,0.6777,0.0,0.0,0.0,0.0,0.0,0.0,0.0,0.0,0.0,0.0,0.0,0.0,0.0,0.0,0.0,0.0,0.0,0.0,0.0,0.0,0.0,0.0,0.0,0.0,0.0,0.0,0.0,0.0,0.0,0.0,0.0,0.0,0.5074,0.5452,0.0,0.0,0.0,0.0,0.0,0.0,0.0,0.0,0.0,0.0,0.0,0.0,0.0,0.5732,0.5692,0.6412,0.6807,0.6895,0.8477,0.9295,0.9451,1.0612,1.1423,1.1944,1.1954,0.0,1.0368,0.9769,0.0,0.0,0.0,0.0,0.0,0.0,0.0,0.0,0.0,0.0,0.0,0.0,0.0,0.0,0.0,0.0,0.0,0.0,0.0,0.0,0.0,0.0,0.9349,0.9004,0.8919,0.8751,0.8133,0.7497,0.692,0.6473,0.6233,0.6036,0.0,0.0,0.0,0.0,0.0,0.0,0.7647,0.7695,0.7695,0.7695,0.7739,0.7754,0.7695,0.7754,0.7734,0.7632,0.7291,0.7051,0.6934,0.6543,0.0,0.0,0.0,0.0,0.0,0.0,0.0,0.0,0.0,0.0,0.0,0.0,0.0,0.0,0.0,0.0,0.0,0.0,0.0,0.0,0.0,0.0,0.0,0.0,0.0,0.0,0.0,0.0,0.0,0.4274,0.484,0.5356,0.5365,0.5233,0.0,0.0,0.0,0.0,0.0,0.0,0.0,0.0,0.0,0.6078,0.6701,0.694,0.672,0.7233,0.7513,0.7513,0.9004,0.9694,0.974,1.1016,1.1844,1.224,1.2434,1.2454,1.2329,1.1908,1.1925,1.2222,0.0,0.0,0.0,0.0,1.1519,1.1128,1.1605,1.1392,1.0851,1.068,0.0,0.0,0.0,0.0,0.0,0.0,0.0,0.9357,0.9451,0.9717,1.001,1.0059,0.9893,0.968,0.9514,0.9215,0.8656,0.7542,0.7348,0.7151,0.6498,0.6915,0.0,0.0,0.0,0.8232,0.8402,0.8431,0.8431,0.8431,0.8408,0.8304,0.8111,0.8054,0.7932,0.771,0.7544,0.7437,0.7437,0.7018,0.6621,0.0,0.0,0.0,0.0,0.0,0.0,0.0,0.0,0.0,0.0,0.0,0.0,0.0,0.0,0.0,0.0,0.0,0.0,0.0,0.0,0.0,0.0,0.0,0.0,0.0,0.0,0.0,0.0,0.4366,0.4747,0.5313,0.5348,0.5298,0.0,0.0,0.0,0.0,0.0,0.0,0.5719,0.6803,0.7204,0.6707,0.7574,0.7906,0.7605,0.8048,0.8276,0.8294,0.9604,1.0246,1.0293,1.1423,1.2184,1.2642,1.293,1.3553,1.4289,1.3729,1.3557,1.3604,1.3207,1.2878,1.2704,1.3004,1.2907,1.2712,1.3354,1.3305,1.2891,1.2575,1.2034,1.1344,1.0313,0.0,0.0,0.0,0.0,1.0195,1.0547,1.0625,1.0674,1.0859,1.0674,1.043,1.0322,1.0303,0.9906,0.8532,0.8429,0.8297,0.7439,0.7999,0.0,0.7819,0.0,0.9004,0.9004,0.9004,0.9004,0.9004,0.8947,0.8835,0.8567,0.8511,0.8349,0.8057,0.8024,0.8,0.8,0.7695,0.7494,0.7382,0.0,0.0,0.0,0.0,0.0,0.0,0.0,0.0,0.0,0.0,0.0,0.0,0.0,0.0,0.0,0.0,0.0,0.0,0.0,0.0,0.0,0.0,0.0,0.0,0.0,0.0,0.0,0.0,0.0,0.5808,0.5763,0.0,0.0,0.0,0.0,0.5658,0.6328,0.6856,0.7082,0.7699,0.8048,0.8004,0.7944,0.7909,0.7879,0.8834,0.933,0.9337,1.0944,1.1677,1.1726,1.2492,1.3164,1.3737,1.4344,1.4948,1.5447,1.4451,1.4369,1.4808,1.4783,1.4758,1.4751,1.4777,1.4442,1.4006,1.4054,1.3746,1.344,1.3851,1.3279,1.2247,1.1153,1.0811,0.0,0.0,1.1154,1.1508,1.1538,1.1538,1.1439,1.1006,1.0868,1.0771,1.0391,1.0303,1.0146,0.9614,0.9528,0.9393,0.8963,0.0,0.896,0.8911,0.8958,0.9004,0.9004,0.9004,0.9004,0.9004,0.9001,0.8992,0.8975,0.8972,0.8952,0.8945,0.8872,0.8843,0.8843,0.8757,0.8543,0.8149,0.8105,0.0,0.0,0.0,0.0,0.0,0.0,0.0,0.0,0.0,0.0,0.0,0.0,0.0,0.0,0.0,0.0,0.0,0.0,0.0,0.0,0.0,0.0,0.0,0.0,0.0,0.0,0.0,0.0,0.5725,0.5923,0.0,0.5887,0.588,0.5983,0.6253,0.6677,0.7058,0.7383,0.7953,0.8297,0.8297,0.8418,0.8465,0.8465,0.9267,0.9667,0.9667,1.1098,1.1789,1.1839,1.2559,1.3423,1.4355,1.4955,1.5775,1.6704,1.6745,1.6209,1.5462,1.5793,1.5916,1.5932,1.5937,1.603,1.6115,1.577,1.5531,1.5254,1.4373,1.3581,1.2751,1.1688,1.1349,1.1349,1.1349,1.1467,1.1653,1.1914,1.18,1.1614,1.1706,1.1297,1.0869,1.0713,1.0478,1.0254,1.0078,1.0049,0.9912,0.9464,0.9639,0.9727,0.9435,0.9648,0.9834,0.9834,0.9834,0.9834,0.9834,0.9552,0.9528,0.988,0.935,0.913,0.9439,0.9103,0.8901,0.8901,0.8832,0.8738,0.8585,0.8333,0.7968,0.0,0.0,0.0,0.0,0.0,0.0,0.0,0.0,0.0,0.0,0.0,0.0,0.0,0.0,0.0,0.0,0.0,0.0,0.0,0.0,0.0,0.0,0.0,0.0,0.0,0.0,0.5315,0.5545,0.6205,0.6599,0.6479,0.6653,0.6936,0.7349,0.7643,0.7999,0.845,0.8934,0.9206,0.9206,0.9151,0.9133,0.9133,0.9814,1.0141,1.0167,1.1657,1.2357,1.2391,1.3022,1.3982,1.5167,1.5561,1.6449,1.7642,1.8049,1.7551,1.6584,1.6914,1.7205,1.7385,1.739,1.7605,1.7802,1.7044,1.681,1.6536,1.4851,1.4025,1.3509,1.2375,1.2034,1.2034,1.2034,1.2034,1.2093,1.2373,1.2227,1.2064,1.2164,1.167,1.1154,1.1154,1.0791,1.0557,1.0704,1.0498,1.0205,0.9884,1.0088,1.0186,0.9874,1.0098,1.0303,1.0303,1.0303,1.0303,1.0303,1.002,1.0029,1.0549,0.9896,0.9725,1.0364,0.9879,0.9654,0.9839,0.9585,0.944,0.944,0.8941,0.8717,0.8818,0.0,0.0,0.0,0.0,0.0,0.0,0.0,0.0,0.0,0.0,0.0,0.0,0.0,0.0,0.0,0.0,0.0,0.0,0.0,0.0,0.0,0.0,0.0,0.3793,0.4548,0.5145,0.531,0.6607,0.7355,0.7053,0.7559,0.8183,0.8873,0.9221,0.9695,1.0374,1.0656,1.0788,1.0788,1.0167,0.984,0.984,1.0491,1.0847,1.0863,1.264,1.3516,1.3545,1.3919,1.4861,1.6174,1.621,1.6971,1.823,1.823,1.8254,1.8254,1.8242,1.8577,1.9095,1.9099,1.9099,1.8916,1.7814,1.7423,1.7119,1.5303,1.472,1.4501,1.3272,1.2905,1.2905,1.2905,1.2905,1.2905,1.2905,1.2905,1.2798,1.233,1.1904,1.1626,1.1626,1.1261,1.1055,1.1518,1.0909,1.0342,1.0342,1.0342,1.0342,1.0322,1.0322,0.0,1.0303,1.0303,1.0303,1.0322,1.0322,1.0525,1.1019,1.0621,1.0774,1.1756,1.1257,1.116,1.1673,1.1072,1.0733,1.0747,1.004,1.0126,1.1036,0.0,0.0,0.0,0.0,0.0,0.0,0.0,0.0,0.0,0.0,0.0,0.0,0.0,0.0,0.0,0.0,0.0,0.0,0.0,0.0,0.0,0.3673,0.3759,0.3668,0.4406,0.52,0.5876,0.6472,0.7069,0.76,0.7806,0.8273,0.9203,0.9349,0.9771,1.0631,1.0764,1.0788,1.0788,1.0618,1.0542,1.0542,1.1191,1.1691,1.2051,1.3029,1.3636,1.3938,1.4055,1.4797,1.6009,1.6547,1.7465,1.8595,1.9144,1.9359,1.9321,1.892,1.8889,1.9028,1.9026,1.8781,1.8389,1.8098,1.7978,1.7691,1.588,1.5283,1.4979,1.3387,1.2905,1.2905,1.2905,1.2905,1.2905,1.2905,1.2905,1.2876,1.2734,1.2363,1.2051,1.2051,1.1689,1.1438,1.1577,1.141,1.1232,1.1232,1.1232,1.1124,1.0791,1.0742,1.0625,1.0342,1.0303,1.0428,1.0772,1.0821,1.1169,1.2018,1.1653,1.1664,1.2264,1.1786,1.1556,1.169,1.1483,1.1483,1.1774,1.149,1.1476,0.0,0.0,0.0,0.0,0.0,0.0,0.0,0.0,0.0,0.0,0.0,0.0,0.0,0.0,0.0,0.0,0.0,0.0,0.0,0.0,0.0,0.0,0.416,0.3966,0.3931,0.4315,0.495,0.5875,0.6475,0.7167,0.8017,0.8205,0.8632,0.9497,0.9555,1.0058,1.1149,1.1216,1.1375,1.1667,1.1375,1.1318,1.1516,1.1907,1.2309,1.2751,1.3628,1.417,1.4414,1.4562,1.5212,1.6185,1.6922,1.7806,1.8768,1.9501,1.9798,1.9773,0.0,0.0,0.0,0.0,1.9565,1.922,1.8715,1.8531,1.8274,1.6751,1.6044,1.5515,1.4049,1.3397,1.3105,1.2954,1.2905,1.2905,1.2905,1.2905,1.2905,1.2905,1.2549,1.2252,1.2461,1.2158,1.1917,1.2103,1.2132,0.0,1.2132,1.1851,1.1438,1.0977,1.0908,1.0752,1.0352,1.0467,1.0706,1.0981,1.1207,1.1653,1.2437,1.2066,0.0,0.0,0.0,1.2017,1.1996,1.2112,0.0,0.0,0.0,0.0,0.0,1.3202,0.0,0.0,1.1419,1.1838,0.0,0.0,0.0,0.0,0.0,0.0,0.0,0.0,0.0,0.0,0.0,0.0,0.0,0.0,0.0,0.0,0.47,0.4294,0.4301,0.4214,0.453,0.5507,0.6442,0.7358,0.8233,0.8599,0.9087,0.9744,0.9788,1.0389,1.174,1.1789,0.0,0.0,0.0,1.2193,1.2611,1.2657,1.2876,1.3296,1.4313,1.4805,1.4873,1.5244,1.5748,1.6436,1.7246,1.7977,1.8635,1.9449,1.9798,1.9798,1.9798,2.0144,2.0696,2.0696,2.0696,2.0531,1.9471,0.0,0.0,1.7775,1.6894,1.609,1.4996,1.4124,1.3428,1.3145,1.3032,1.2992,1.2992,1.2992,1.2968,1.2929,1.2588,1.2389,1.2803,1.2578,1.2398,1.2827,1.2905,1.2905,1.2905,1.2259,1.1584,1.1123,1.1016,1.0851,1.0508,1.0775,1.1027,1.1169,1.1597,0.0,1.2544,1.2192,1.23,1.3146,1.282,1.2549,1.2484,1.2873,1.3038,1.2913,1.3591,1.4432,1.54,1.5708,1.5891,1.5871,1.352,1.3166,0.0,0.0,0.0,0.0,0.0,0.0,0.0,0.0,0.0,0.0,0.0,0.0,0.0,0.0,0.0,0.504,0.4848,0.4523,0.3858,0.383,0.421,0.5105,0.5891,0.6753,0.7737,0.8422,0.9087,0.9744,0.9788,1.0389,1.174,1.1789,1.2138,1.2881,1.3078,1.3205,1.3301,1.3628,1.4003,1.4454,1.4681,0.0,1.5293,1.5371,1.5468,1.569,1.7024,1.7688,1.7934,1.9254,1.9798,1.9798,1.9798,1.9875,2.0003,2.0003,2.0003,1.9965,1.9736,1.966,1.9458,1.832,1.7443,1.6618,1.5453,1.4333,0.0,1.3985,1.3869,1.3624,1.3624,1.3624,1.3505,1.3017,1.2837,1.2783,1.2886,1.2837,1.2783,1.2886,1.2905,1.2905,1.2905,1.2758,1.2494,1.2018,1.166,1.1471,1.1418,1.1173,1.1308,1.2108,1.23,1.2561,1.3012,1.2978,1.3012,1.3181,1.3112,1.3062,1.3048,1.348,1.3856,1.4156,1.4612,1.5253,1.6099,1.6164,1.6336,1.6591,1.5538,1.5224,0.0,0.0,0.0,0.0,0.0,0.0,0.0,0.0,0.0,0.0,0.0,0.5348,0.5699,0.0,0.6028,0.5612,0.5293,0.4988,0.4687,0.4157,0.427,0.5503,0.6041,0.6802,0.8112,0.8593,0.8936,0.9283,0.9309,0.9736,1.0745,1.0788,1.1275,1.232,1.2541,1.3004,1.3792,1.4007,1.4436,1.5098,1.5098,1.5205,1.541,1.541,1.541,1.5497,1.6968,1.7605,1.7715,1.9202,1.9798,1.9798,1.9798,1.9798,1.9798,1.9798,1.9798,1.9798,1.9798,1.9798,1.9709,1.9141,1.8204,1.7158,1.6341,1.5018,1.3873,1.4299,1.4115,1.3792,1.3792,1.3792,1.3637,1.3041,1.2905,1.2905,1.2905,1.2905,1.2905,1.2905,1.2905,1.2905,1.2905,1.2905,1.2734,1.2272,1.2059,1.1899,1.1714,1.1951,1.2339,1.2864,1.3138,1.3402,1.3634,1.3366,1.3198,1.3198,1.3198,1.3198,1.3198,1.3648,1.4116,1.458,1.5426,1.6203,1.6909,1.7008,1.7142,1.7287,1.6946,1.6531,0.0,0.0,0.0,0.0,0.0,0.0,0.0,0.0,0.5122,0.5084,0.5501,0.5952,0.623,0.6499,0.6571,0.6255,0.5696,0.5406,0.5669,0.4743,0.465,0.625,0.6419,0.6914,0.8237,0.8619,0.8804,0.8804,0.8804,0.908,0.9762,0.9788,1.037,1.1647,1.1937,1.2695,1.4005,1.4227,1.4699,1.541,1.541,1.541,1.541,1.541,1.541,1.5468,1.68,1.755,1.7907,1.9097,1.9669,1.9798,1.9798,1.9798,1.9798,1.9798,1.9798,1.9798,1.9798,1.9798,1.9798,1.9798,1.8912,1.7745,1.744,1.5929,1.4413,1.4807,1.4478,1.4003,1.4109,1.405,1.3826,1.3224,1.2992,1.2905,1.2905,1.2905,1.2905,1.2905,1.2905,1.2905,1.2905,1.2992,1.2936,1.2556,1.2481,1.2415,1.2313,1.2979,1.3512,1.3607,1.3995,1.4217,1.4116,1.3647,1.3328,1.321,1.3416,1.3478,1.3378,1.3835,1.4336,1.4862,1.5858,1.6755,1.7497,1.7666,1.7824,1.798,1.791,1.742,0.5617,0.5482,0.5596,0.5852,0.6031,0.6144,0.0,0.0,0.6262,0.6077,0.6285,0.65,0.6553,0.6774,0.6799,0.6279,0.5696,0.5406,0.5669,0.5258,0.5549,0.7153,0.6799,0.652,0.6805,0.8023,0.8804,0.8804,0.8804,0.908,0.9762,0.9788,1.028,1.1318,1.2413,1.3195,1.3649,1.4735,1.5284,1.541,1.541,1.541,1.541,1.541,1.541,1.5439,1.6255,1.7357,1.8581,1.8768,1.9202,1.9798,1.9798,1.9798,1.9798,1.9798,1.9798,1.9798,1.9798,1.9798,1.9798,1.9798,1.9254,1.857,1.851,1.6909,1.5329,1.6486,1.5738,1.4721,1.5276,1.5005,1.4445,1.3849,1.3286,1.2905,1.2905,1.2905,1.2905,1.2905,1.2905,1.2905,1.2905,1.3348,1.3687,1.3635,1.3273,1.3357,1.4336,1.4192,1.4184,1.468,1.4777,1.4626,1.4141,1.4035,1.3765,1.3223,1.4149,1.4513,1.4009,1.4519,1.4986,1.5399,1.5551,1.6239,1.7497,1.7519,1.793,1.8683,1.8311,1.7967,0.6132,0.6459,0.6851,0.0,0.7104,0.7462,0.722,0.7343,0.7383,0.6973,0.7147,0.7256,0.6902,0.692,0.6831,0.0,0.6127,0.6169,0.6462,0.6011,0.6056,0.7256,0.7107,0.7178,0.7806,0.8427,0.8804,0.8804,0.8804,0.8936,0.9211,0.9211,0.9688,1.0697,1.1649,1.2623,1.3598,1.4554,1.5176,1.541,1.541,1.541,1.541,1.541,1.5633,1.6093,1.681,1.7731,1.8741,1.9176,1.9527,1.9798,1.9798,1.9798,1.9798,1.9798,1.9798,1.9798,1.9798,1.9798,1.9798,1.9798,1.9307,1.8608,1.8194,1.6991,1.5887,1.6341,1.5855,1.5276,1.5543,1.5141,1.4537,1.3933,1.3334,1.2905,1.2905,1.2905,1.2992,1.3358,1.342,1.3539,1.3884,1.4154,1.4445,1.479,1.4405,1.4251,1.4745,1.4938,1.5129,1.5354,1.5374,1.5148,1.4614,1.4563,1.4462,1.4199,1.4645,1.4649,1.4067,1.4585,1.4956,1.5096,1.5737,1.6518,1.738,1.7627,1.7922,1.8275,1.8421,1.843,0.6759,0.0,0.0,0.7655,0.8187,0.8628,0.8174,0.8322,0.8406,0.7874,0.7954,0.7946,0.7363,0.7259,0.7096,0.664,0.6576,0.6793,0.7382,0.6801,0.6627,0.7489,0.7534,0.7778,0.8605,0.8758,0.8804,0.8804,0.8804,0.8804,0.8804,0.8884,0.9295,1.0111,1.1213,1.234,1.3433,1.4459,1.5107,1.541,1.5613,1.569,1.5719,1.5911,1.6312,1.6838,1.7357,1.8015,1.8741,1.9281,1.9605,1.9798,1.9798,1.9798,1.9798,1.9798,1.9798,1.9798,1.9798,1.9798,1.9798,1.9798,1.9307,1.8573,1.7924,1.7032,1.6204,1.6122,1.5858,1.5632,1.582,1.5399,1.4835,1.4411,1.3826,1.3406,1.3406,1.3406,1.3515,1.3956,1.405,1.419,1.4629,1.4835,1.5096,1.5543,1.542,1.5256,1.5256,1.5648,1.5919,1.5919,1.5781,1.553,1.5148,1.5123,1.506,1.4916,1.5185,1.4994,1.4251,1.4942,1.5241,1.5031,1.5992,1.6748,1.7312,1.7741,1.8018,1.8198,1.8729,1.8972,0.0,0.0,0.7982,0.8742,0.9262,0.9427,0.8902,0.9133,0.9301,0.876,0.8667,0.8513,0.7974,0.787,0.7786,0.7497,0.6984,0.7005,0.8202,0.7609,0.7394,0.8262,0.8068,0.8014,0.8382,0.8644,0.8804,0.8804,0.8804,0.8804,0.8804,0.9044,0.9365,0.9717,1.1565,1.2709,1.3023,1.458,1.54,1.541,1.6122,1.6464,1.6482,1.7219,1.755,1.7578,1.7578,1.8015,1.8688,1.8715,1.915,1.9798,1.9798,1.9798,1.9798,1.9798,1.9798,1.9798,1.9798,1.9798,1.9798,1.9798,1.9307,1.8619,1.8209,1.7194,1.6226,1.635,1.6004,1.572,1.6315,1.603,1.5565,1.5543,1.5073,1.4663,1.4663,1.4663,1.4663,1.4675,1.4675,1.4675,1.4698,1.5186,1.5588,1.561,1.6083,1.6454,1.6454,1.6475,1.6475,1.6475,1.6019,1.568,1.5668,1.5668,1.5462,1.4921,1.5881,1.5945,1.4808,1.5853,1.6179,1.5586,1.6191,1.6761,1.7312,1.782,1.8372,1.8883,1.9413,1.9678,0.6687,0.0,0.8199,0.8721,0.9478,1.0021,0.9849,0.9915,0.9883,0.9339,0.9239,0.9059,0.8541,0.8139,0.794,0.8019,0.7704,0.7607,0.8001,0.801,0.7987,0.8065,0.817,0.8263,0.8389,0.8489,0.0,0.8791,0.8804,0.8804,0.8804,0.9051,0.9351,0.9702,1.1034,1.2125,1.3,1.4064,1.4864,1.541,1.6151,1.6492,1.6521,1.7246,1.7605,1.7633,1.8112,1.8474,1.8741,1.9228,1.9579,1.9798,1.9798,1.9798,1.9798,1.9798,1.9798,1.9798,1.9798,1.9798,1.9798,1.9798,1.9631,1.9247,1.8262,1.7747,1.7364,1.6551,1.6277,1.6238,1.6457,1.6051,1.561,1.561,1.5141,1.4698,1.4698,1.4698,1.4812,1.5208,1.5298,1.541,1.5832,1.6064,1.6194,1.6194,1.638,1.65,1.65,1.65,1.65,1.65,1.6337,1.6233,1.6233,1.6233,1.6137,1.5969,1.6287,1.6142,1.5372,1.5702,1.582,1.561,1.5798,1.6204,1.6774,1.7666,1.8204,1.84,1.9281,1.9708,0.6844,0.7585,0.8326,0.8902,0.9686,1.0303,1.0303,1.0303,1.0205,0.9863,0.9644,0.9368,0.8832,0.8306,0.796,0.8039,0.7885,0.7836,0.8056,0.8163,0.8183,0.8103,0.8163,0.8257,0.0,0.0,0.0,0.8784,0.8804,0.8804,0.8804,0.9051,0.9351,0.9702,1.0733,1.1698,1.2565,1.3364,1.4323,1.5371,1.614,1.6793,1.7302,1.7797,1.8151,1.8421,1.8874,1.9097,1.9123,1.9605,1.9798,1.9798,1.9798,1.9798,1.9798,1.9798,1.9798,1.9798,1.9798,1.9798,1.9798,1.9798,1.9605,1.9184,1.8034,1.7738,1.7555,1.6371,1.6266,1.65,1.65,1.6216,1.5908,1.5908,1.5634,1.5344,1.5344,1.5344,1.5456,1.5842,1.5908,1.6051,1.6423,1.65,1.65,1.65,1.65,1.65,1.65,1.65,1.65,1.65,1.65,1.65,1.65,1.65,1.65,1.65,1.65,1.6238,1.5632,1.582,1.582,1.561,1.582,1.6117,1.65,1.7585,1.8106,1.8145,1.9207,1.9708,0.7802,0.8147,0.8392,0.925,0.9863,1.0264,1.0303,1.0303,1.0293,1.0273,0.9903,0.9437,0.8912,0.0,0.7964,0.7687,0.7593,0.7758,0.8295,0.8136,0.8052,0.0,0.0,0.0,0.0,0.0,0.0,0.8784,0.8804,0.8804,0.8804,0.9119,0.942,0.9708,1.0754,1.1481,1.1795,1.2604,1.3789,1.5303,1.6081,1.7219,1.8635,1.8688,1.9097,1.9798,1.9798,1.9798,1.9798,1.9798,1.9798,1.9798,1.9798,1.9798,1.9798,1.9798,1.9798,1.9798,1.9798,1.9798,1.9798,1.9798,1.9333,1.8577,1.7675,1.729,1.6943,1.5966,1.61,1.6538,1.6538,1.6538,1.6538,1.6538,1.6513,1.65,1.65,1.65,1.65,1.65,1.65,1.65,1.65,1.65,1.65,1.65,1.65,1.65,1.65,1.65,1.65,1.65,1.65,1.65,1.65,1.65,1.65,1.65,1.65,1.6238,1.5676,1.6173,1.6194,1.5654,1.6194,1.6466,1.65,1.7585,1.8106,1.8145,1.9207,1.9708,0.7105,0.7489,0.8125,0.8751,0.9299,0.9804,1.0205,1.0303,1.0205,0.9845,0.9689,0.9459,0.9026,0.8758,0.0,0.8294,0.8341,0.0,0.8071,0.8332,0.0,0.8415,0.0,0.8611,0.8691,0.8697,0.0,0.0,0.8804,0.8804,0.8804,0.9853,1.0236,0.9708,1.0964,1.1713,1.1803,1.2604,1.3807,1.5381,1.5544,1.6409,1.7895,1.8447,1.9097,1.9798,1.9798,1.9798,1.9798,1.9798,1.9798,1.9798,1.9798,1.9798,1.9798,1.9798,1.9798,1.9798,1.9798,1.9798,1.9798,1.9798,1.9669,1.9403,1.8747,1.8264,1.7769,1.7134,1.706,1.7162,1.7162,1.7162,1.7162,1.7162,1.6835,1.65,1.65,1.65,1.65,1.65,1.65,1.65,1.65,1.65,1.65,1.65,1.65,1.65,1.65,1.65,1.65,1.65,1.65,1.65,1.65,1.65,1.65,1.65,1.65,1.6423,1.6281,1.5986,1.5974,1.6259,1.5986,1.6051,1.65,1.7585,1.8106,1.8145,1.9207,1.9708,0.733,0.7524,0.7974,0.8275,0.8918,0.9532,0.9629,0.982,0.9873,0.9425,0.9192,0.0,0.877,0.8631,0.0,0.0,0.0,0.0,0.7936,0.8192,0.8457,0.0,0.8711,0.0,0.8804,0.8804,0.8804,0.0,0.8804,0.8936,0.9211,1.0171,1.0699,1.0679,1.1256,1.1653,1.1803,1.2962,1.3965,1.4874,1.5187,1.5985,1.7135,1.7879,1.8608,1.9345,1.9669,1.9798,1.9798,1.9798,1.9798,1.9798,1.9798,1.9798,1.9798,1.9798,1.9798,1.9798,1.9798,1.9798,1.9798,1.9798,1.9798,1.966,1.887,1.8594,1.8405,1.7624,1.7574,1.7739,1.7739,1.7739,1.7677,1.7461,1.7137,1.6823,1.655,1.65,1.65,1.65,1.65,1.65,1.65,1.65,1.65,1.65,1.65,1.65,1.65,1.65,1.65,1.65,1.65,1.65,1.65,1.65,1.65,1.65,1.65,1.65,1.65,1.6173,1.6139,1.6488,1.6173,1.6173,1.65,1.7585,1.8106,1.8145,1.9207,1.98,0.7829,0.7787,0.7808,0.7878,0.8594,0.9193,0.8804,0.905,0.9245,0.8841,0.0,0.8244,0.8234,0.8179,0.7983,0.7487,0.0,0.7896,0.7896,0.7939,0.8172,0.8744,0.8804,0.8804,0.8804,0.8804,0.8804,0.8804,0.8804,0.908,0.9762,1.0459,1.1248,1.2167,1.1768,1.1714,1.2104,1.3386,1.4154,1.4362,1.4962,1.569,1.651,1.7174,1.7895,1.8741,1.9371,1.9721,1.9798,1.9798,1.9798,1.9798,1.9798,1.9798,1.9798,1.9798,1.9798,1.9798,1.9798,1.9798,1.9798,1.9798,1.9798,1.9623,1.8694,1.8682,1.8807,1.7865,1.794,1.8317,1.8317,1.8254,1.8078,1.7624,1.7398,1.7137,1.66,1.65,1.65,1.65,1.65,1.65,1.65,1.65,1.65,1.65,1.65,1.65,1.65,1.65,1.65,1.65,1.65,1.65,1.65,1.65,1.65,1.65,1.65,1.65,1.65,1.65,1.65,1.65,1.65,1.65,1.65,1.7585,1.8106,1.8145,1.9262,1.9965,0.7405,0.7147,0.728,0.7767,0.8036,0.8209,0.829,0.8194,0.0,0.0,0.747,0.745,0.7356,0.7618,0.7761,0.7446,0.0,0.0,0.0,0.0,0.8424,0.0,0.0,0.0,0.0,0.0,0.0,0.0,0.8804,0.908,0.9762,1.1617,1.3007,1.3764,1.3079,1.3055,1.3777,1.3394,1.3876,1.5206,1.4658,1.5148,1.6492,1.6624,1.744,1.8715,1.8847,1.9228,1.9798,1.9798,1.9798,1.9798,1.9798,1.9798,1.9798,1.9798,1.9798,1.9798,1.9798,1.9798,1.9798,1.9798,1.9798,1.9773,1.9585,1.9296,1.8958,1.877,1.8795,1.8857,1.8857,1.8519,1.8179,1.8078,1.735,1.6635,1.6525,1.65,1.65,1.65,1.65,1.65,1.65,1.65,1.65,1.65,1.65,1.65,1.65,1.65,1.65,1.65,1.65,1.65,1.65,1.65,1.65,1.65,1.65,1.65,1.65,1.65,1.65,1.65,1.65,1.65,1.65,1.7585,1.8106,1.8131,1.9531,2.0229,0.7531,0.7141,0.7103,0.7588,0.7786,0.7825,0.7542,0.0,0.0,0.0,0.6634,0.6657,0.6582,0.0,0.0,0.0,0.0,0.0,0.0,0.0,0.0,0.0,0.0,0.0,0.0,0.0,0.9185,0.8831,0.9285,0.9797,1.0303,1.2431,1.3793,1.4186,1.4234,1.4234,1.4213,1.4234,1.4628,1.541,1.5021,1.5216,1.595,1.6312,1.6894,1.7605,1.8367,1.89,1.9254,1.9643,1.9798,1.9798,1.9798,1.9798,1.9798,1.9798,1.9798,1.9798,1.9798,1.9798,1.9798,1.9798,1.9798,1.9748,1.9459,1.9384,1.9346,1.9083,1.9196,1.9409,1.9409,1.9008,1.8555,1.8279,1.7315,1.65,1.65,1.65,1.65,1.65,1.65,1.65,1.65,1.65,1.65,1.65,1.65,1.65,1.65,1.65,1.65,1.65,1.65,1.65,1.65,1.65,1.65,1.65,1.65,1.65,1.65,1.65,1.65,1.65,1.65,1.65,1.65,1.7585,1.8106,1.8145,1.9606,2.0433,0.7629,0.7201,0.7053,0.733,0.7518,0.7448,0.6819,0.6641,0.0,0.0,0.58,0.581,0.5927,0.0,0.0,0.0,0.0,0.0,0.0,0.0,0.0,0.0,0.0,0.0,0.0,0.0,0.0,0.9184,1.007,1.0863,1.1367,1.3216,1.4305,1.4453,1.5079,1.5108,1.4451,1.5079,1.541,1.541,1.541,1.541,1.541,1.6007,1.635,1.6567,1.7743,1.8313,1.8528,1.9254,1.9553,1.9579,1.9747,1.9798,1.9798,1.9798,1.9798,1.9798,1.9798,1.9798,1.9798,1.9798,1.9798,1.9723,1.9296,1.9472,1.971,1.9284,1.9459,1.9773,1.966,1.9221,1.8657,1.798,1.714,1.65,1.65,1.65,1.65,1.65,1.65,1.65,1.65,1.65,1.65,1.65,1.65,1.65,1.65,1.65,1.65,1.65,1.65,1.65,1.65,1.65,1.65,1.65,1.65,1.65,1.65,1.65,1.65,1.65,1.65,1.65,1.65,1.7585,1.8106,1.8145,1.9713,2.0649,0.7342,0.702,0.7006,0.7033,0.6888,0.6644,0.6319,0.0,0.0,0.493,0.4822,0.4891,0.5374,0.552,0.5718,0.0,0.0,0.6556,0.0,0.0,0.0,0.0,0.0,0.0,0.0,0.0,1.1025,1.0216,1.1154,1.2209,1.3277,1.4222,1.4903,1.5274,1.5352,1.5352,1.5294,1.5352,1.541,1.541,1.541,1.541,1.541,1.5468,1.5864,1.651,1.6652,1.709,1.7759,1.8501,1.8794,1.8874,1.9527,1.9798,1.9798,1.9798,1.9798,1.9798,1.9798,1.9798,1.9798,1.9798,1.9798,1.9798,1.9748,1.9761,1.9798,1.9748,1.9761,1.9698,1.9196,1.8669,1.8003,1.6901,1.6575,1.65,1.65,1.65,1.65,1.65,1.65,1.65,1.65,1.65,1.65,1.65,1.65,1.65,1.65,1.65,1.65,1.65,1.65,1.65,1.65,1.65,1.65,1.65,1.65,1.65,1.65,1.65,1.65,1.65,1.65,1.65,1.65,1.7585,1.8106,1.8165,2.0062,2.0959,0.7873,0.7397,0.7046,0.7241,0.6955,0.6533,0.6256,0.0,0.4754,0.4595,0.4388,0.4349,0.473,0.4935,0.5186,0.5634,0.5677,0.5974,0.6834,0.0,0.0,0.0,0.0,0.0,0.0,0.0,1.1995,1.17,1.2536,1.3318,1.3931,1.4487,1.498,1.54,1.541,1.541,1.541,1.541,1.541,1.541,1.541,1.541,1.541,1.541,1.5555,1.5864,1.6322,1.668,1.7006,1.7731,1.8313,1.8741,1.9006,1.9423,1.9798,1.9798,1.9798,1.9798,1.9798,1.9798,1.9798,1.9798,1.9798,1.9798,1.9798,1.9798,1.9798,1.9798,1.9798,1.9685,1.9146,1.8367,1.7501,1.6688,1.65,1.65,1.65,1.65,1.65,1.65,1.65,1.65,1.65,1.65,1.65,1.65,1.65,1.65,1.65,1.65,1.65,1.65,1.65,1.65,1.65,1.65,1.65,1.65,1.65,1.65,1.65,1.65,1.65,1.65,1.65,1.6659,1.6972,1.7727,1.8283,1.8631,2.0249,2.0991,0.8242,0.7876,0.751,0.7593,0.7162,0.6629,0.0,0.5471,0.4748,0.4562,0.4302,0.4201,0.4469,0.4668,0.49,0.5246,0.5367,0.5702,0.6499,0.0,0.0,0.0,0.0,0.0,0.0,1.2262,1.2787,1.274,1.3471,1.3958,1.4092,1.4649,1.5107,1.54,1.5613,1.5613,1.541,1.5613,1.5613,1.541,1.541,1.541,1.541,1.541,1.541,1.5439,1.595,1.6179,1.6236,1.6978,1.7715,1.8394,1.8608,1.915,1.9798,1.9798,1.9798,1.9798,1.9798,1.9798,1.9798,1.9798,1.9798,1.9798,1.9798,1.9798,1.9798,1.9798,1.9698,1.9497,1.9096,1.8204,1.7297,1.6873,1.6635,1.65,1.65,1.65,1.65,1.65,1.65,1.65,1.65,1.65,1.65,1.65,1.65,1.65,1.65,1.65,1.65,1.65,1.65,1.65,1.65,1.65,1.65,1.65,1.65,1.65,1.65,1.65,1.65,1.65,1.65,1.6752,1.7312,1.7847,1.8444,1.914,2.0417,2.1247,0.8263,0.8324,0.8561,0.8023,0.7447,0.6851,0.0,0.5471,0.4793,0.4786,0.4589,0.4476,0.4748,0.4801,0.49,0.5246,0.5524,0.5912,0.6506,0.684,0.0,0.0,0.0,0.0,1.2711,1.331,1.3456,1.3123,1.3791,1.4062,1.3825,1.4792,1.541,1.541,1.6122,1.6151,1.541,1.6122,1.6122,1.541,1.541,1.541,1.541,1.541,1.541,1.541,1.541,1.541,1.5468,1.6208,1.695,1.7688,1.8421,1.915,1.9798,1.9798,1.9798,1.9798,1.9798,1.9798,1.9798,1.9798,1.9798,1.9798,1.9798,1.9798,1.9798,1.9798,1.9409,1.9008,1.9008,1.8204,1.741,1.7398,1.6936,1.65,1.65,1.65,1.65,1.65,1.65,1.65,1.65,1.65,1.65,1.65,1.65,1.65,1.65,1.65,1.65,1.65,1.65,1.65,1.65,1.65,1.65,1.65,1.65,1.65,1.65,1.65,1.65,1.65,1.65,1.6752,1.7312,1.7847,1.8622,1.9621,2.0567,2.1853,0.8211,0.7978,0.7781,0.7594,0.7249,0.6825,0.637,0.5973,0.5601,0.5283,0.5208,0.5315,0.5636,0.5686,0.5829,0.6265,0.6399,0.6635,0.0,0.0,0.0,0.0,0.0,0.0,0.0,0.0,1.4496,1.4668,1.4897,1.4993,1.4888,1.5216,1.541,1.541,1.5642,1.5642,1.541,1.5633,1.5633,1.541,1.541,1.541,1.541,1.541,1.541,1.541,1.541,1.57,1.6179,1.6397,1.7219,1.8367,1.8608,1.915,1.9798,1.9798,1.9798,1.9798,1.9798,1.9798,1.9798,1.9798,1.9798,1.9798,1.9798,1.9798,1.9798,1.9798,1.9409,1.9008,1.9008,1.8204,1.741,1.741,1.6936,1.65,1.65,1.65,1.65,1.65,1.6795,1.7055,1.7055,1.7353,1.7463,1.7097,1.7055,1.6909,1.6552,1.65,1.65,1.65,1.65,1.65,1.65,1.65,1.65,1.65,1.65,1.65,1.65,1.65,1.65,1.65,1.6858,1.7312,1.7847,1.84,1.9295,2.0567,2.1134,2.213,0.0,0.8137,0.7947,0.7753,0.7467,0.7115,0.6628,0.6385,0.6172,0.5875,0.5884,0.6009,0.6208,0.625,0.6298,0.6448,0.6548,0.6741,0.0,0.0,0.0,0.0,0.0,0.0,0.0,1.4434,1.4893,1.5156,1.5322,1.541,1.541,1.541,1.541,1.541,1.5671,1.569,1.541,1.569,1.569,1.541,1.541,1.541,1.541,1.57,1.5816,1.5835,1.6112,1.65,0.0,1.6922,1.7468,1.8301,1.8581,1.8992,1.9423,1.9695,1.9798,1.9798,1.9798,1.9798,1.9798,1.9798,1.9798,1.9798,1.9798,1.9798,1.9798,1.9798,1.9572,1.9296,1.9296,1.8668,1.7953,1.7739,1.7262,1.6785,1.6538,1.6659,1.6795,1.6795,1.7229,1.7605,1.7605,1.7887,1.7987,1.7646,1.7605,1.7483,1.7146,1.7097,1.7097,1.7097,1.7097,1.7013,1.6816,1.6616,1.65,1.65,1.65,1.65,1.65,1.65,1.65,1.65,1.7034,1.7565,1.8106,1.917,2.0129,2.1023,2.1878,2.2923,0.0,0.8561,0.8694,0.8205,0.7884,0.7559,0.6959,0.668,0.0,0.6503,0.6548,0.6602,0.6627,0.658,0.6444,0.6136,0.6262,0.0,0.0,0.0,0.0,0.0,0.0,0.0,1.3516,1.4326,1.4824,1.4768,1.5099,1.5323,1.5323,1.5323,1.5352,1.541,1.6065,1.6093,1.541,1.6093,1.6093,1.541,1.541,1.541,1.5439,1.6179,1.6492,1.6539,1.7274,1.7633,1.766,1.7633,1.766,1.7825,1.8447,1.8741,1.8847,1.9553,1.9798,1.9798,1.9798,1.9798,1.9798,1.9798,1.9798,1.9798,1.9798,1.9798,1.9798,1.9798,1.9798,1.9798,1.9798,1.9384,1.8857,1.8342,1.779,1.7225,1.6635,1.6909,1.7312,1.7312,1.7767,1.8165,1.8165,1.8204,1.8204,1.8165,1.8165,1.8145,1.8106,1.8106,1.8106,1.8106,1.8106,1.7907,1.7415,1.6879,1.6552,1.6552,1.6522,1.6522,1.6552,1.6522,1.65,1.65,1.7055,1.7626,1.8165,2.0064,2.1023,2.1119,2.2695,2.4078,0.7595,0.0,0.6992,0.6926,0.6863,0.669,0.0,0.6561,0.6871,0.0,0.0,0.753,0.7882,0.7412,0.717,0.7795,0.7557,0.7447,0.0,0.0,0.0,0.0,1.2851,1.3851,1.3948,1.4738,1.4994,1.4401,1.4425,1.4481,1.4481,1.4481,1.4746,1.5381,1.5584,1.5584,1.541,1.5584,1.5584,1.541,1.541,1.541,1.5439,1.6179,1.6492,1.6539,1.7274,1.7934,1.8394,1.7813,1.8259,1.9228,1.8847,1.9044,1.9553,1.9747,1.9798,1.9798,1.9798,1.9798,1.9798,1.9798,1.9798,1.9798,1.9798,1.9798,1.9798,1.9798,1.9798,1.9798,1.9798,1.9384,1.8857,1.8342,1.779,1.7225,1.6635,1.6909,1.7312,1.7312,1.8066,1.8708,1.8708,1.9043,1.9188,1.8765,1.8708,1.8554,1.8165,1.8106,1.8106,1.8106,1.8106,1.8046,1.7927,1.7435,1.7118,1.7118,1.6731,1.668,1.7097,1.671,1.65,1.65,1.7422,1.8185,1.8708,2.0249,2.1279,2.1858,2.3238,2.4607,0.6747,0.6786,0.6848,0.6799,0.6773,0.6669,0.6265,0.0,0.0,0.0,0.0,0.0,0.8515,0.7897,0.7503,0.8169,0.7881,0.0,0.0,0.0,0.0,0.0,1.3143,1.3977,0.0,1.4506,1.4463,1.4225,1.3846,1.3644,1.3644,1.3644,1.3855,1.4302,1.4302,1.4658,1.5381,1.541,1.541,1.541,1.541,1.541,1.5439,1.65,1.7006,1.7062,1.8151,1.8847,1.915,1.8421,1.8394,1.8768,1.8715,1.8741,1.8874,1.9553,1.9798,1.9798,1.9798,1.9798,1.9798,1.9798,1.9798,1.9798,1.9798,1.9798,1.9798,1.9798,1.9623,1.9497,1.9748,1.9233,1.8619,1.8569,1.8166,1.7677,1.734,1.7683,1.8029,1.8029,1.8713,1.9262,1.9262,1.9512,1.9603,1.9314,1.9262,1.9169,1.8874,1.8836,1.8836,1.8836,1.8836,1.8727,1.8496,1.8204,1.7927,1.7686,1.7146,1.6993,1.7291,1.6774,1.6616,1.6858,1.7686,1.8361,1.8893,2.0316,2.1391,2.2148,2.3748,2.5206,0.6221,0.6793,0.7374,0.7046,0.6939,0.6831,0.6486,0.0,0.0,0.0,0.0,0.0,0.0,0.0,0.0,0.0,0.0,0.0,0.0,0.0,0.0,1.2331,1.2982,0.0,1.4372,1.3853,1.3591,1.3819,1.3213,1.2826,1.2826,1.2826,1.2879,1.3009,1.3009,1.3636,1.5021,1.5167,1.5294,1.541,1.541,1.541,1.5439,1.694,1.7605,1.7688,1.9044,1.9631,1.9553,1.8715,1.8058,1.7649,1.8286,1.8232,1.7934,1.9293,1.9798,1.9798,1.9798,1.9798,1.9798,1.9798,1.9798,1.9798,1.9798,1.9798,1.9798,1.9798,1.9459,1.9221,1.9685,1.9133,1.8543,1.8907,1.8644,1.8304,1.8229,1.8583,1.89,1.89,1.943,1.9839,1.9839,1.9839,1.9839,1.9839,1.9768,1.9708,1.9708,1.9798,1.9813,1.9708,1.9798,1.9634,1.9076,1.9024,1.8836,1.838,1.7767,1.7394,1.7312,1.6774,1.671,1.7167,1.7787,1.8322,1.8779,2.0266,2.1439,2.2309,2.4222,2.5684,0.7209,0.754,0.7438,0.656,0.6207,0.6073,0.6006,0.0,0.0,0.0,0.0,0.0,0.0,0.0,0.0,0.0,0.0,0.0,0.0,0.0,1.1493,1.2228,0.0,1.2616,1.2755,1.2953,1.2852,1.222,1.2043,1.1981,1.1981,1.1981,1.2297,1.2978,1.3009,1.313,1.3373,1.4025,1.4726,1.541,1.541,1.541,1.5439,1.694,1.7605,1.766,1.8501,1.8874,1.8768,1.7385,1.7146,1.7605,1.7715,1.8085,1.8635,1.9475,1.9798,1.9798,1.9798,1.9798,1.9798,1.9798,1.9798,1.9798,1.9798,1.9798,1.9798,1.9798,1.9748,1.9698,1.9786,1.9673,1.9472,1.9096,1.8945,1.8744,1.8304,1.8583,1.89,1.89,1.9791,2.0557,2.0557,2.0557,2.0557,2.0557,2.0064,1.9708,1.9708,2.0198,2.0333,1.9768,2.0213,2.0281,1.9629,1.9584,1.9548,1.946,1.8516,1.7767,1.7333,1.6774,1.6531,1.6616,1.7605,1.8145,1.8243,2.0097,2.1696,2.305,2.4445,2.5624,0.7583,0.7891,0.7995,0.8115,0.7508,0.6816,0.66,0.0,0.0,0.0,0.0,0.0,0.0,0.0,0.0,0.0,0.0,1.0904,1.1681,1.1353,1.1377,0.0,0.0,1.2221,1.2485,1.2802,1.2665,1.1857,1.2205,1.2266,1.1834,1.2205,1.242,1.2358,1.2358,1.2358,1.2358,1.2718,1.3537,1.4746,1.5196,1.541,1.5439,1.65,1.7006,1.7062,1.7797,1.8124,1.8004,1.695,1.6708,1.7006,1.7006,1.7468,1.8248,1.9385,1.9798,1.9798,1.9798,1.9798,1.9798,1.9798,1.9798,1.9798,1.9798,1.9798,1.9798,1.9798,1.9597,1.9421,1.9723,1.9371,1.9032,1.9334,1.9208,1.9107,1.9524,1.9497,1.959,2.0288,2.0569,2.0808,2.1186,2.1246,2.1246,2.1246,2.0976,2.0767,2.0767,2.1051,2.1126,2.0797,2.1066,2.0976,2.0303,2.0243,1.9953,1.931,1.8798,1.8165,1.7333,1.7055,1.6795,1.6522,1.7544,1.8106,1.8106,2.0452,2.2146,2.3227,2.4922,2.5981,0.7952,0.8196,0.8465,0.9467,0.8736,0.7749,0.7603,0.0,0.0,0.0,0.0,0.0,0.0,0.0,0.0,0.0,1.1237,1.1615,1.212,1.1602,1.1502,1.2369,1.1972,1.1805,1.2365,1.2603,1.2543,1.2112,1.2634,1.2726,1.2112,1.2665,1.2734,1.2104,1.1896,1.1803,1.1803,1.1989,1.2779,1.4213,1.4815,1.5235,1.5439,1.6179,1.6492,1.6521,1.709,1.733,1.7274,1.6539,1.6226,1.6293,1.6624,1.7302,1.8259,1.9385,1.9798,1.9798,1.9798,1.9798,1.9798,1.9798,1.9798,1.9798,1.9798,1.9798,1.9798,1.9798,1.9484,1.9271,1.9698,1.9196,1.8781,1.961,1.9497,1.9484,2.0568,2.0392,2.0368,2.1483,2.1404,2.1335,2.1844,2.1919,2.1919,2.1919,2.1799,2.1695,2.1695,2.1829,2.1859,2.171,2.1829,2.1709,2.1148,2.1107,2.064,1.9567,1.9116,1.8477,1.7524,1.7374,1.7055,1.6522,1.7544,1.8106,1.8106,2.0668,2.2366,2.3243,2.4927,2.5879,0.8631,0.866,0.8472,0.9249,0.8749,0.0,0.8822,0.8352,0.0,0.9672,0.0,0.0,0.0,0.0,0.0,0.0,1.3049,1.333,1.3381,0.0,1.2315,1.2398,1.1404,1.0989,1.1765,1.1881,1.2174,1.2856,1.2978,1.2978,1.2917,1.2978,1.2978,1.2917,1.2205,1.1803,1.1803,1.2543,1.3334,1.4213,1.4273,1.4688,1.5439,1.6179,1.6492,1.6492,1.6578,1.6567,1.651,1.5777,1.5468,1.5613,1.6996,1.8394,1.9643,1.9747,1.9798,1.9798,1.9798,1.9798,1.9798,1.9798,1.9798,1.9798,1.9798,1.9798,1.9798,1.9798,1.9773,1.9761,1.9798,1.9748,1.971,1.9786,1.9773,1.9927,2.0646,2.0749,2.0912,2.1569,2.2165,2.2568,2.2628,2.2628,2.2628,2.2628,2.2104,2.1695,2.1695,2.2239,2.2388,2.1754,2.2269,2.2531,2.2303,2.2279,2.2,2.1352,1.9775,1.8631,1.8066,1.7565,1.7055,1.6522,1.7544,1.8106,1.8106,2.0284,2.2,2.3225,2.3915,2.4622,0.8675,0.9075,0.9409,1.0696,1.0392,0.0,0.0,1.0061,1.0303,1.2163,1.2464,0.0,0.0,0.0,1.2266,1.3125,1.3408,1.3603,1.3831,1.3268,1.2634,1.2146,1.1471,1.114,1.1458,1.2142,1.2665,1.2978,1.3944,1.4264,1.3756,1.4213,1.4273,1.3756,1.3446,1.3053,1.2543,1.2848,1.3394,1.4213,1.4717,1.5108,1.541,1.57,1.5816,1.5816,1.5816,1.5816,1.5777,1.5497,1.541,1.5555,1.7024,1.8232,1.9176,1.9631,1.9798,1.9798,1.9798,1.9798,1.9798,1.9798,1.9798,1.9798,1.9798,1.9798,1.9798,1.9798,1.9798,1.9798,1.9798,1.9798,1.9798,1.9798,1.9798,2.0093,2.1124,2.1045,2.1201,2.2615,2.2774,2.2823,2.3212,2.3251,2.3251,2.3251,2.3026,2.2877,2.2877,2.3086,2.3146,2.2906,2.3041,2.3093,2.303,2.2946,2.2798,2.2561,2.0968,1.9588,1.864,1.8404,1.8064,1.7571,1.8239,1.881,1.9224,2.1075,2.2443,2.3337,2.4331,2.4754,0.8609,0.9004,0.9489,1.1178,0.0,0.0,1.1895,1.1538,1.1697,1.3918,1.3912,0.0,0.0,0.0,0.0,0.0,1.3623,1.3848,1.425,1.3608,1.2856,1.2307,1.1789,1.1548,1.1818,1.2762,1.3485,1.3726,1.4776,1.505,1.4243,1.4962,1.5021,1.4243,1.4213,1.3936,1.3364,1.3364,1.3666,1.4213,1.5021,1.541,1.541,1.541,1.541,1.541,1.541,1.541,1.541,1.541,1.5661,1.6216,1.7457,1.8394,1.9123,1.9618,1.9798,1.9798,1.9798,1.9798,1.9798,1.9798,1.9798,1.9798,1.9798,1.9798,1.9798,1.9798,1.9798,1.9798,1.9798,1.9798,1.9798,1.9798,1.9952,2.0408,2.1459,2.1546,2.1826,2.331,2.3272,2.3122,2.3535,2.3595,2.3595,2.3595,2.3595,2.3595,2.3595,2.3595,2.3595,2.3595,2.3662,2.3791,2.3947,2.3885,2.3808,2.3774,2.2525,2.1209,1.9845,1.9626,1.9307,1.8814,1.9286,1.9754,2.0217,2.1893,2.3051,2.3673,2.4539,2.4835,0.845,0.8363,0.844,0.0,0.0,0.0,1.3761,1.2619,1.1932,1.4476,0.0,1.4226,1.4619,1.333,0.0,1.3369,1.3831,1.426,1.4727,1.3755,1.3009,1.3009,1.2297,1.2143,1.2917,1.3726,1.454,1.5352,1.541,1.505,1.4234,1.4962,1.5021,1.4243,1.4204,1.4204,1.4204,1.4204,1.4204,1.4213,1.5021,1.541,1.541,1.541,1.541,1.541,1.541,1.541,1.541,1.541,1.6273,1.766,1.8421,1.915,1.9798,1.9798,1.9798,1.9798,1.9798,1.9798,1.9798,1.9798,1.9798,1.9798,1.9798,1.9798,1.9798,1.9798,1.9798,1.9798,1.9798,1.9798,1.9798,1.9798,2.0295,2.0968,2.1568,2.223,2.2875,2.3486,2.3595,2.3595,2.3595,2.3595,2.3595,2.3595,2.361,2.3595,2.3595,2.3595,2.3595,2.3595,2.4095,2.4617,2.5147,2.5221,2.5158,2.5025,2.4522,2.3459,2.1791,2.1204,2.0676,2.013,2.0634,2.092,2.0934,2.259,2.3676,2.4214,2.4343,2.4677,0.7834,0.8485,0.0,0.0,0.0,0.0,0.0,1.3843,0.0,0.0,1.4007,1.3936,1.4052,1.3307,0.0,1.3418,1.3831,1.426,1.4727,1.4735,1.4481,1.3906,1.3636,1.3567,1.3816,1.4055,1.454,1.5352,1.541,1.5294,1.505,1.5255,1.5294,1.505,1.505,1.505,1.505,1.505,1.505,1.505,1.5294,1.541,1.541,1.541,1.541,1.541,1.541,1.541,1.5439,1.595,1.6726,1.766,1.8421,1.915,1.9798,1.9798,1.9798,1.9798,1.9798,1.9798,1.9798,1.9798,1.9798,1.9798,1.9798,1.9798,1.9798,1.9798,1.9798,1.9798,1.9798,1.9798,1.9798,1.9798,2.0295,2.0968,2.1568,2.223,2.2875,2.3486,2.3595,2.3595,2.3595,2.3595,2.3595,2.3595,2.3246,2.2965,2.2965,2.3334,2.3595,2.3595,2.441,2.5028,2.5182,2.5837,2.6249,2.6202,2.5754,2.4646,2.2835,2.2293,2.1946,2.18,2.157,2.1887,2.2725,2.3172,2.3927,2.4897,2.4558,2.4491,0.7764,0.8463,0.0,0.0,0.0,0.0,0.0,0.0,0.0,0.0,0.0,1.4073,1.3839,1.331,0.0,1.3437,1.3695,1.4065,1.4697,1.4735,1.4569,1.4255,1.4213,1.4213,1.4213,1.4481,1.4874,1.5352,1.541,1.5264,1.4932,1.5235,1.5255,1.4932,1.5225,1.541,1.541,1.541,1.541,1.541,1.541,1.541,1.541,1.541,1.541,1.541,1.541,1.5584,1.5892,1.6613,1.7357,1.8124,1.8847,1.9423,1.9798,1.9798,1.9798,1.9798,1.9798,1.9798,1.9798,1.9798,1.9798,1.9798,1.9798,1.9798,1.9798,1.9798,1.9798,1.9798,1.9798,1.9798,1.9798,1.9798,2.0509,2.1245,2.1615,2.2438,2.3179,2.353,2.3595,2.3595,2.3595,2.3595,2.3595,2.3595,2.3275,2.3054,2.3054,2.3377,2.3595,2.3595,2.4163,2.4752,2.5163,2.5746,2.6264,2.6674,2.6436,2.5759,2.4641,2.3951,2.3568,2.3568,2.3254,2.3451,2.4184,2.4351,2.471,2.5202,2.4871,2.4597,0.808,0.0,0.0,0.0,0.0,0.0,0.0,0.0,1.6315,1.5654,0.0,1.4445,1.3909,1.331,1.3032,1.3389,1.3486,1.3789,1.4609,1.4148,1.3867,1.4257,1.4302,1.4302,1.4302,1.4962,1.541,1.541,1.541,1.5079,1.4362,1.4991,1.505,1.4323,1.5021,1.541,1.541,1.541,1.541,1.541,1.541,1.541,1.541,1.541,1.541,1.541,1.5468,1.5892,1.6567,1.7357,1.8097,1.8768,1.9501,1.9798,1.9798,1.9798,1.9798,1.9798,1.9798,1.9798,1.9798,1.9798,1.9798,1.9798,1.9798,1.9798,1.9798,1.9798,1.9798,1.9798,1.9798,1.9798,1.9837,1.9875,2.083,2.172,2.1781,2.2741,2.3595,2.3595,2.3595,2.3595,2.3595,2.3595,2.3573,2.353,2.3551,2.3573,2.353,2.3573,2.3595,2.3595,2.3638,2.4095,2.5125,2.524,2.5672,2.6641,2.6691,2.6691,2.6691,2.5783,2.5278,2.5278,2.5221,2.5221,2.5278,2.5744,2.5762,2.5319,2.524,2.495,0.0,0.8577,0.0,0.0,0.0,0.0,0.0,0.0,1.6194,1.513,1.4422,1.3956,1.3815,1.331,1.2935,1.2998,1.3291,1.3691,1.4172,1.4423,1.4677,1.509,1.5138,1.5138,1.5138,1.5294,1.541,1.541,1.541,1.5323,1.5138,1.5323,1.5323,1.5147,1.5323,1.541,1.541,1.541,1.541,1.541,1.541,1.541,1.541,1.541,1.541,1.5439,1.6007,1.634,1.6595,1.7934,1.8555,1.8768,1.9501,1.9798,1.9798,1.9798,1.9798,1.9798,1.9798,1.9798,1.9798,1.9798,1.9798,1.9798,1.9798,1.9798,1.9798,1.9798,1.9798,1.9798,1.9798,1.9798,1.9927,2.0446,2.1148,2.1852,2.2369,2.3061,2.3595,2.3595,2.3595,2.3595,2.3595,2.3595,2.3443,2.2965,2.3312,2.3421,2.2942,2.3312,2.3595,2.3595,2.397,2.4491,2.5144,2.5596,2.6086,2.6657,2.6691,2.6691,2.6691,2.6139,2.5834,2.5834,2.5411,2.5411,2.5834,2.5943,2.6122,2.635,2.558,2.5144,0.0,0.0,0.0,0.0,0.0,0.0,0.0,0.0,1.6315,1.57,1.5073,1.448,1.3909,1.3552,1.3238,1.2954,1.3091,1.3418,1.4026,1.4299,1.4707,1.5342,1.541,1.541,1.541,1.541,1.541,1.541,1.541,1.541,1.541,1.541,1.541,1.541,1.541,1.541,1.541,1.541,1.541,1.541,1.541,1.541,1.541,1.541,1.541,1.5439,1.6179,1.6708,1.7107,1.8232,1.89,1.9254,1.9643,1.9798,1.9798,1.9798,1.9798,1.9798,1.9798,1.9798,1.9798,1.9798,1.9798,1.9798,1.9798,1.9798,1.9798,1.9798,1.9798,1.9798,1.9798,1.9798,1.9978,2.0646,2.1245,2.1875,2.2558,2.3165,2.3595,2.3595,2.3595,2.3595,2.3595,2.3595,2.3486,2.3179,2.3399,2.3486,2.3179,2.3399,2.3702,2.3964,2.4225,2.4732,2.5521,2.5852,2.6209,2.6674,2.6691,2.6691,2.6691,2.647,2.6332,2.6332,2.6052,2.6052,2.6332,2.6332,2.6349,2.6349,2.5561,2.5067,0.0,0.0,0.0,0.0,0.0,0.0,0.0,0.0,1.65,1.65,1.603,1.5286,1.4295,1.3933,1.3647,1.3128,1.2978,1.3174,1.3987,1.4104,1.4426,1.5312,1.541,1.5439,1.5584,1.5584,1.5584,1.5584,1.5584,1.5517,1.541,1.541,1.541,1.541,1.541,1.541,1.541,1.541,1.541,1.541,1.541,1.541,1.541,1.541,1.541,1.5439,1.6312,1.7034,1.766,1.8528,1.9254,1.9798,1.9798,1.9798,1.9798,1.9798,1.9798,1.9798,1.9798,1.9798,1.9798,1.9798,1.9798,1.9798,1.9798,1.9798,1.9798,1.9798,1.9798,1.9798,1.9798,1.9901,2.0105,2.0671,2.1355,2.2016,2.2581,2.3165,2.3595,2.3595,2.3595,2.3595,2.3595,2.3508,2.3443,2.3443,2.3443,2.3443,2.3443,2.3616,2.3921,2.4348,2.4491,2.4934,2.5924,2.6013,2.6209,2.6674,2.6691,2.6691,2.6691,2.6691,2.6691,2.6691,2.6691,2.6691,2.6691,2.6691,2.6487,2.612,2.5596,2.5111,0.0,0.0,0.0,0.0,0.0,0.0,0.0,0.0,1.65,0.0,1.603,1.5543,1.5376,1.4503,1.3768,1.3684,1.3238,1.3174,1.3987,1.4104,1.4426,1.5312,1.541,1.5642,1.6293,1.634,1.634,1.634,1.634,1.6065,1.5439,1.541,1.541,1.541,1.541,1.541,1.541,1.541,1.541,1.541,1.541,1.541,1.541,1.541,1.541,1.5468,1.6856,1.7495,1.7715,1.9097,1.9721,1.9798,1.9798,1.9798,1.9798,1.9798,1.9798,1.9798,1.9798,1.9798,1.9798,1.9798,1.9798,1.9798,1.9798,1.9798,1.9798,1.9798,1.9798,1.9798,1.9798,2.022,2.0696,2.0771,2.1704,2.2603,2.2672,2.3165,2.3595,2.3595,2.3595,2.3595,2.3595,2.3179,2.2807,2.2807,2.2807,2.2807,2.2807,2.3679,2.4307,2.4389,2.4831,2.5335,2.5943,2.6013,2.6209,2.6674,2.6691,2.6691,2.6691,2.6691,2.6691,2.6691,2.6691,2.6691,2.6691,2.6691,2.6674,2.6607,2.6122,2.5918,0.9727,1.0844,1.2034,0.0,0.0,0.0,0.0,0.0,1.6057,1.6057,1.607,1.6008,1.5654,1.5174,1.4584,1.3909,1.3576,1.3564,1.404,1.4104,1.4426,1.5312,1.5748,1.6151,1.6464,1.6866,1.695,1.6521,1.6492,1.6179,1.5439,1.541,1.541,1.541,1.541,1.541,1.541,1.541,1.541,1.541,1.541,1.541,1.541,1.541,1.541,1.5497,1.6968,1.7605,1.7715,1.9202,1.9798,1.9798,1.9798,1.9798,1.9798,1.9798,1.9798,1.9798,1.9798,1.9798,1.9798,1.9798,1.9798,1.9798,1.9798,1.9798,1.9798,1.9798,2.008,2.027,1.9901,2.0546,2.1221,2.0894,2.1775,2.2694,2.2694,2.3165,2.3595,2.3595,2.3595,2.3595,2.3595,2.3113,2.2694,2.2694,2.2369,2.2276,2.2649,2.3405,2.4153,2.4776,2.5335,2.5835,2.6349,2.6384,2.647,2.6691,2.6691,2.6691,2.6691,2.6691,2.6691,2.6691,2.6691,2.6691,2.6691,2.6691,2.6691,2.6691,2.6227,2.6078,1.0349,1.1222,1.192,1.3442,0.0,0.0,0.0,0.0,1.609,0.0,1.6625,1.6782,1.6305,1.5884,1.5309,1.44,1.4143,1.4094,1.432,1.4519,1.4895,1.5591,1.634,1.6838,1.7034,1.755,1.766,1.7118,1.7062,1.6641,1.5719,1.569,1.5584,1.541,1.541,1.541,1.541,1.541,1.541,1.541,1.541,1.541,1.541,1.541,1.541,1.5468,1.6743,1.744,1.7715,1.8992,1.9631,1.9798,1.9798,1.9798,1.9798,1.9798,1.9798,1.9798,1.9798,1.9798,1.9798,1.9798,1.9798,1.9798,1.9798,1.9798,1.9798,1.9798,2.0156,2.0421,1.9927,2.0645,2.1318,2.0683,2.1657,2.274,2.2897,2.3275,2.3595,2.3595,2.3595,2.3595,2.3595,2.295,2.2452,2.2452,2.1889,2.1724,2.2346,2.3047,2.3935,2.507,2.567,2.6191,2.6657,2.6691,2.6741,2.6841,2.6758,2.6791,2.7004,2.6906,2.6841,2.6841,2.6841,2.6791,2.6691,2.6691,2.6793,2.6962,2.6457,2.6417,0.9802,0.9863,0.0,1.2408,0.0,0.0,0.0,0.0,1.7208,1.7842,1.7999,1.8007,1.7973,1.6676,1.5588,1.5521,1.5028,1.475,1.5007,1.5654,1.6184,1.6406,1.709,1.7825,1.8528,1.8608,1.8635,1.8581,1.8581,1.7961,1.651,1.6436,1.6122,1.541,1.541,1.541,1.541,1.541,1.541,1.541,1.541,1.541,1.541,1.541,1.541,1.5439,1.6226,1.695,1.766,1.8447,1.9176,1.9798,1.9798,1.9798,1.9798,1.9798,1.9798,1.9798,1.9798,1.9798,1.9798,1.9798,1.9798,1.9798,1.9798,1.9798,1.9798,1.9798,1.9824,1.985,1.9798,2.0321,2.0671,2.0003,2.1293,2.2867,2.3421,2.3573,2.3595,2.3595,2.3595,2.3595,2.3595,2.2583,2.1744,2.1744,2.1234,2.1077,2.1687,2.2773,2.3935,2.507,2.567,2.6191,2.6657,2.6691,2.6857,2.7239,2.6906,2.7035,2.7811,2.747,2.7272,2.7272,2.7272,2.7083,2.6691,2.6691,2.7063,2.7722,2.7131,2.7315,0.9019,0.9686,0.0,0.0,0.0,0.0,1.4317,1.5582,1.6647,1.6904,1.7553,1.8106,1.8106,1.7327,1.6553,1.6176,1.5642,1.5269,1.5239,1.5775,1.6321,1.6667,1.7648,1.8421,1.8661,1.9123,1.9202,1.8741,1.8688,1.8259,1.7246,1.7202,1.6866,1.6122,1.6122,1.5864,1.541,1.541,1.541,1.541,1.541,1.541,1.541,1.541,1.5671,1.6122,1.6407,1.6922,1.766,1.8394,1.9123,1.9798,1.9798,1.9798,1.9798,1.9798,1.9798,1.9798,1.9798,1.9798,1.9798,1.9798,1.9798,1.9798,1.9798,1.9798,1.9798,1.9798,2.0105,2.0346,1.9901,2.0595,2.1318,2.1086,2.1544,2.2236,2.2833,2.3331,2.3642,2.3619,2.4243,2.4502,2.3734,2.3187,2.2715,2.2346,2.1442,2.1175,2.2141,2.2988,2.3953,2.5079,2.604,2.6601,2.6691,2.6939,2.7147,2.7303,2.7411,2.7589,2.7897,2.7768,2.7695,2.7695,2.7914,2.7581,2.6691,2.6691,2.708,2.7789,2.7181,2.7396,0.8453,0.0,0.0,0.0,0.0,0.0,1.4079,0.0,1.6177,1.6951,1.775,1.8371,1.8603,1.8204,1.7592,1.6828,1.6403,1.6044,1.5692,1.6365,1.6948,1.7151,1.8289,1.9071,1.9071,1.9501,1.9618,1.9123,1.9071,1.8741,1.8004,1.7977,1.7633,1.6894,1.6624,1.6265,1.5777,1.5526,1.541,1.541,1.541,1.541,1.541,1.5671,1.6036,1.651,1.6765,1.7274,1.8004,1.8501,1.9123,1.9798,1.9798,1.9798,1.9798,1.9798,1.9798,1.9798,1.9798,1.9798,1.9798,1.9798,1.9798,1.9798,1.9798,1.9798,1.9798,1.9798,2.0131,2.0346,1.9927,2.0421,2.111,2.1328,2.1369,2.1576,2.2418,2.3162,2.3737,2.3878,2.4916,2.55,2.4709,2.455,2.4312,2.3698,2.2557,2.2124,2.3168,2.3464,2.4088,2.546,2.6074,2.6496,2.675,2.7046,2.7307,2.7487,2.7867,2.8185,2.8457,2.8344,2.832,2.8436,2.8647,2.8338,2.7469,2.7469,2.7858,2.8549,2.7945,2.792,0.0,0.0,0.0,0.0,0.0,0.0,1.527,0.0,1.5901,1.8142,1.861,1.8852,1.9543,1.9266,1.8545,1.7524,1.7333,1.7068,1.6417,1.7406,1.8115,1.7935,1.904,1.9837,1.9798,1.9824,1.9824,1.9798,1.9798,1.9475,1.8768,1.8715,1.8355,1.7638,1.6922,1.651,1.65,1.5796,1.5439,1.5439,1.5439,1.5439,1.5468,1.6208,1.6539,1.6595,1.733,1.8058,1.8741,1.8715,1.9123,1.9798,1.9798,1.9798,1.9798,1.9798,1.9798,1.9798,1.9798,1.9798,1.9798,1.9798,1.9798,1.9798,1.9798,1.9798,1.9798,1.9798,1.9798,1.9798,1.9798,1.9798,1.9952,2.0635,2.072,2.1026,2.2289,2.3156,2.3822,2.4378,2.558,2.6472,2.6479,2.6489,2.6289,2.5689,2.4461,2.3864,2.4582,2.4125,2.4399,2.6188,2.5812,2.5837,2.682,2.7027,2.7331,2.7853,2.8186,2.8712,2.9521,2.9162,2.9109,2.9471,2.9471,2.9334,2.8973,2.901,2.9382,3.0089,2.9497,2.893,0.825,0.0,0.0,0.0,0.0,0.0,0.0,0.0,1.4892,1.6005,1.6781,1.7608,1.8762,1.8867,1.8683,1.8484,1.7807,1.724,1.7038,1.7708,1.819,1.8114,1.9545,2.0345,1.9863,2.0232,2.0321,1.9824,1.9798,1.9721,1.9501,1.8992,1.8431,1.7845,1.747,1.7109,1.6731,1.6371,1.6208,1.6208,1.6208,1.6208,1.6208,1.695,1.7578,1.8085,1.8313,1.8821,1.9449,1.8927,1.9123,1.9798,1.9798,1.9798,1.9798,1.9798,1.9798,1.9798,1.9798,1.9798,1.9798,1.9798,1.9798,1.9798,1.9798,1.9798,1.9798,1.9798,1.9798,1.9798,1.9798,1.9798,1.985,2.0029,2.0053,2.0368,2.1542,2.2379,2.3226,2.4291,2.5496,2.6262,2.5901,2.6182,2.6214,2.5629,2.4433,2.3811,2.4415,2.4371,2.4615,2.5518,2.5931,2.6389,2.7048,2.6922,2.7042,2.7588,2.7607,2.7877,2.8493,2.8024,2.8049,2.862,2.886,2.8948,2.8864,2.894,2.9382,3.0087,2.9583,2.8807,0.8274,0.0,0.0,0.0,0.0,0.0,1.2074,1.2899,1.3841,0.0,1.6061,1.6821,1.8054,1.8506,1.8735,1.8807,1.8346,1.7887,1.7666,1.8129,1.8603,1.8888,2.003,2.0751,2.0604,2.0708,2.0635,2.0258,1.9952,1.9798,1.9798,1.9397,1.8906,1.8396,1.8151,1.779,1.726,1.6835,1.6632,1.6632,1.6632,1.6498,1.6326,1.7524,1.8158,1.8405,1.8921,1.9397,1.9773,1.9345,1.9423,1.9798,1.9798,1.9798,1.9798,1.9798,1.9798,1.9798,1.9798,1.9978,2.022,2.022,2.022,2.022,2.022,2.0029,1.9798,1.9798,1.9798,1.9861,2.01,2.0189,2.0189,2.0189,2.0514,2.0966,2.1393,2.2186,2.3139,2.4214,2.5691,2.6673,2.6383,2.6817,2.6979,2.639,2.5163,2.4441,2.4762,2.4611,2.4694,2.5275,2.5297,2.5553,2.6298,2.6016,2.5934,2.6295,2.675,2.7049,2.7145,2.7071,2.726,2.7822,2.8345,2.8742,2.9043,2.9145,2.9393,2.9803,2.9259,2.8638,0.8411,0.8836,0.0,0.0,0.9831,0.0,1.2128,1.2351,1.2749,0.0,1.5637,1.604,1.7228,1.7951,1.8418,1.8568,1.8752,1.8712,1.8249,1.8602,1.9128,1.9735,2.0368,2.0986,2.1545,2.1188,2.0877,2.082,2.0182,1.9798,1.9798,1.9798,1.956,1.902,1.8882,1.857,1.803,1.7343,1.6998,1.6998,1.6998,1.6748,1.6356,1.8052,1.857,1.8177,1.9317,1.9798,1.9798,1.9798,1.9798,1.9798,1.9798,1.9798,1.9798,1.9798,1.9798,1.9798,1.9901,2.0295,2.0795,2.0795,2.0795,2.0795,2.0696,2.027,1.9798,1.9798,1.9849,2.0012,2.0566,2.0742,2.0779,2.0779,2.1455,2.2033,2.1656,2.2297,2.3166,2.4005,2.5739,2.7066,2.7157,2.7624,2.7805,2.7269,2.6042,2.5198,2.526,2.4764,2.4586,2.5135,2.4226,2.4002,2.5049,2.4672,2.4502,2.4752,2.5765,2.6169,2.5753,2.6131,2.6563,2.7,2.7719,2.8427,2.9073,2.9278,2.9361,2.9293,2.8756,2.851,0.9616,0.9821,0.991,0.9694,0.0,0.0,1.0178,1.0772,1.1574,0.0,1.2701,1.3602,1.5432,1.6099,1.6698,1.7728,1.8378,1.8729,1.8745,1.8841,1.8945,1.9079,2.0065,2.079,2.0955,2.1307,2.1319,2.0843,2.0182,1.9798,1.9798,1.9798,1.956,1.902,1.9369,1.9331,1.8784,1.8474,1.8322,1.8322,1.8322,1.8263,1.8207,1.9157,1.953,1.943,1.9697,1.9798,1.9798,1.9798,1.9798,1.9798,1.9798,1.9798,1.9798,1.9798,1.9798,1.9875,2.0421,2.0696,2.0795,2.0795,2.0795,2.0696,2.0156,1.9901,1.9798,1.9798,2.0137,2.0553,2.0666,2.1018,2.1358,2.1358,2.1182,2.1232,2.1983,2.197,2.2099,2.3128,2.4166,2.5078,2.5686,2.5889,2.5943,2.5809,2.5038,2.4491,2.4525,2.4403,2.419,2.3817,2.3674,2.3875,2.4588,2.41,2.4154,2.5032,2.4932,2.4992,2.5309,2.5003,2.5117,2.5753,2.6491,2.6923,2.7067,2.8639,2.9157,2.8662,2.8559,2.8544,0.964,0.9694,0.9804,0.96,0.0,0.0,0.0,1.099,1.1648,1.2473,1.2428,1.2705,1.4211,1.5081,1.5758,1.6392,1.7736,1.8616,1.8326,1.8884,1.9418,1.9751,2.0333,2.0848,2.1218,2.1226,2.0946,2.0345,2.0291,2.0144,1.9824,1.9798,1.956,1.902,1.9509,1.9422,1.8607,1.8782,1.8716,1.8459,1.8728,1.8716,1.8471,1.9394,1.966,1.9409,1.9685,1.9798,1.9798,1.9798,1.9798,1.9798,1.9798,1.9798,1.9798,1.9798,2.0003,2.0359,2.0671,2.1224,2.1704,2.1355,2.1245,2.1137,2.0497,2.008,1.9861,2.015,2.0465,2.0925,2.1799,2.1977,2.198,2.2349,2.2166,2.197,2.2246,2.2309,2.2443,2.2995,2.3424,2.3943,2.4709,2.4851,2.4851,2.4851,2.4192,2.3708,2.3708,2.3708,2.3605,2.3267,2.3065,2.3169,2.3764,2.3275,2.3175,2.3716,2.3759,2.3743,2.3756,2.3745,2.4105,2.4838,2.5203,2.5563,2.5946,2.7303,2.7981,2.8042,2.8042,2.8248,0.0,0.0,0.0,0.0,0.0,1.1004,0.0,0.0,0.0,1.3223,1.2771,0.0,0.0,0.0,0.0,1.5225,0.0,0.0,1.7578,1.8553,1.9555,2.0243,2.0438,2.0782,2.144,2.0907,2.0407,2.0177,2.0436,2.0435,2.0016,1.9902,1.9623,1.9158,1.9459,1.9284,1.8518,1.8933,1.8933,1.8518,1.8933,1.892,1.8543,1.9409,1.9572,1.9171,1.9623,1.9798,1.9798,1.9798,1.9798,1.9798,1.9798,1.9875,2.0003,2.0003,2.0421,2.0979,2.1126,2.1752,2.2429,2.1875,2.153,2.1245,2.0902,2.0399,2.0087,2.0691,2.1026,2.1549,2.3034,2.3036,2.2824,2.3426,2.3254,2.2857,2.2518,2.2706,2.2982,2.3083,2.3228,2.3484,2.3972,2.406,2.406,2.406,2.3514,2.3108,2.3108,2.3108,2.3058,2.2957,2.2543,2.2498,2.2907,2.2413,2.2114,2.2225,2.2635,2.2595,2.2002,2.2558,2.3173,2.3842,2.4134,2.4595,2.5175,2.5933,2.6654,2.7382,2.7534,2.8034,0.0,0.0,0.0,0.0,1.1901,0.0,0.0,0.0,1.2215,1.1916,0.0,0.0,0.0,0.0,0.0,0.0,0.0,0.0,1.6769,1.7458,1.8177,1.8852,1.945,2.0079,2.0752,2.0211,2.0269,2.1396,2.0515,2.0142,2.0644,2.0248,1.9902,1.9723,1.9309,1.9259,1.961,1.9685,1.9685,1.9623,1.9685,1.9685,1.9623,1.9748,1.9773,1.971,1.9773,1.9798,1.9798,1.9798,1.9798,1.9798,1.9798,2.0144,2.0696,2.0696,2.1064,2.1687,2.2291,2.2184,2.1805,2.172,2.0939,2.0092,2.056,2.0671,2.0717,2.127,2.221,2.314,2.3355,2.3721,2.41,2.4187,2.3283,2.2493,2.292,2.2681,2.2518,2.3007,2.3679,2.3972,2.3335,2.3258,2.3258,2.3258,2.3168,2.3108,2.3108,2.3108,2.292,2.2431,2.2347,2.2305,2.2397,2.1623,2.1373,2.1913,2.2009,2.1655,2.083,2.1581,2.2063,2.2175,2.3564,2.435,2.4423,2.5175,2.5892,2.6642,2.7306,2.8289,0.0,0.0,0.0,0.0,0.0,0.0,1.2085,0.0,1.2413,0.0,0.0,0.0,0.0,0.0,0.0,0.0,1.4924,0.0,0.0,0.0,1.7541,1.8054,1.8373,1.8807,1.9462,1.9634,1.9924,2.0501,2.0026,1.9747,1.9753,1.9851,1.972,1.9346,1.9409,1.9409,1.9334,1.9648,1.9648,1.9334,1.966,1.9798,1.9798,1.9798,1.9798,1.9798,1.9798,1.9798,1.9798,1.9798,2.0029,2.0371,2.0371,2.0547,2.0845,2.1186,2.1724,2.2323,2.2603,2.2535,2.2161,2.1428,2.0559,1.9911,2.0515,2.0691,2.0975,2.224,2.2988,2.3683,2.4873,2.5067,2.4922,2.4922,2.418,2.3396,2.3148,2.292,2.2832,2.3058,2.3738,2.4031,2.3245,2.3484,2.3632,2.3168,2.3108,2.3108,2.3108,2.3108,2.3007,2.2782,2.2757,2.2578,2.2104,2.1728,2.1412,2.1152,2.1144,2.0974,2.0623,2.0942,2.1396,2.1877,2.2573,2.313,2.3603,2.4394,2.5325,2.6454,2.7205,2.8267,1.2588,0.0,0.0,0.0,0.0,0.0,0.0,0.0,0.0,0.0,0.0,0.0,0.0,0.0,1.35,1.3472,0.0,1.4933,0.0,1.5451,0.0,0.0,1.7529,1.7893,1.8371,1.8702,1.9108,1.9667,1.9527,1.9444,1.9449,1.9556,1.9491,1.9216,1.9321,1.9321,1.9221,1.961,1.961,1.9221,1.9623,1.9798,1.9798,1.9798,1.9798,1.9798,1.9798,1.9798,1.9798,1.9798,2.0105,2.0547,2.0906,2.1053,2.1113,2.1734,2.2392,2.2957,2.2957,2.2725,2.2267,2.1151,2.0462,2.019,2.097,2.1331,2.1774,2.3481,2.4093,2.46,2.6101,2.6095,2.5646,2.5453,2.4851,2.4089,2.3275,2.3108,2.3108,2.3108,2.3901,2.4337,2.356,2.3914,2.4031,2.3215,2.3108,2.3108,2.3108,2.3108,2.3108,2.3108,2.3108,2.2854,2.2292,2.2032,2.1522,2.0655,2.0365,2.0236,2.0236,2.0236,2.0655,2.1522,2.1784,2.2292,2.3108,2.3846,2.4858,2.6065,2.7045,2.8334,1.4034,1.4769,1.528,1.421,1.4411,1.4563,1.3418,1.3634,1.3883,0.0,0.0,0.0,0.0,1.4494,1.479,1.4677,1.4241,0.0,0.0,0.0,0.0,0.0,0.0,0.0,1.7728,1.716,1.7608,1.9552,1.9104,1.9295,2.0581,1.9691,1.9309,1.9769,1.8768,1.8744,1.9761,1.9798,1.9798,1.9773,1.9798,1.9798,1.9798,1.9798,1.9798,1.9798,1.9798,1.9798,1.9798,1.9798,1.9798,1.994,2.1183,2.1673,2.1758,2.2429,2.3054,2.3573,2.3573,2.2764,2.1639,2.1004,2.0746,2.0889,2.2166,2.2908,2.3587,2.4942,2.5836,2.6428,2.6469,2.6484,2.6283,2.5563,2.4851,2.4089,2.3275,2.3108,2.3108,2.3108,2.4323,2.5119,2.4408,2.4292,2.4031,2.3215,2.3108,2.3108,2.3108,2.3108,2.3108,2.3108,2.3108,2.3078,2.3078,2.2353,2.1522,2.0655,1.9824,1.9332,1.9332,1.9332,1.9759,2.0623,2.1459,2.2292,2.3108,2.3703,2.4418,2.518,2.6764,2.8569,1.4712,1.5434,1.6022,1.5307,1.5002,1.4714,1.3954,1.3946,1.3934,1.3328,1.381,0.0,0.0,1.3641,1.3758,1.3713,1.357,1.3493,0.0,0.0,0.0,0.0,0.0,0.0,0.0,1.6039,1.6658,1.8496,1.8012,1.8025,1.8933,1.8975,1.8898,1.8752,1.8716,1.9058,1.9798,1.9798,1.9798,1.9798,1.9798,1.9798,1.9798,1.9798,1.9798,1.9798,1.9798,1.9798,1.9798,1.9798,2.0055,2.0547,2.1376,2.1969,2.2452,2.3054,2.3421,2.3551,2.3143,2.2999,2.2909,2.2272,2.2334,2.2826,2.3619,2.3973,2.4395,2.575,2.631,2.6616,2.7086,2.7229,2.693,2.5701,2.5203,2.4667,2.3395,2.3108,2.3108,2.3108,2.4352,2.5175,2.4423,2.5119,2.5342,2.4076,2.3884,2.3708,2.3168,2.3108,2.3108,2.3108,2.3108,2.2884,2.2353,2.1522,2.0655,1.9781,1.9464,1.9299,1.9299,1.9299,1.9977,2.1428,2.1753,2.2504,2.3703,2.3904,2.5081,2.7165,2.7706,2.8581,1.5529,1.6,1.6362,1.5831,1.5449,1.5035,1.4513,1.4525,1.4494,1.3917,1.4268,1.4544,1.4156,1.393,1.3804,1.3804,1.3448,1.3135,0.0,1.3348,0.0,0.0,0.0,0.0,0.0,0.0,1.559,1.732,1.7069,1.7201,1.8062,1.8425,1.858,1.8482,1.8639,1.9058,1.9798,1.9798,1.9798,1.9798,1.9798,1.9798,1.9798,1.9798,1.9798,1.9798,1.9798,1.9798,1.9798,1.9798,2.0207,2.087,2.1448,2.21,2.2762,2.3377,2.3759,2.3933,2.3797,2.388,2.3976,2.355,2.366,2.4104,2.4743,2.505,2.545,2.6564,2.6878,2.7008,2.7484,2.76,2.7214,2.5755,2.5398,2.4979,2.3442,2.3108,2.3108,2.3108,2.4352,2.5259,2.4766,2.5919,2.639,2.4894,2.4681,2.4394,2.3619,2.3543,2.3424,2.3138,2.3108,2.2884,2.2384,2.1803,2.1132,2.0268,1.9944,1.9748,1.9748,1.9464,2.0107,2.1877,2.1908,2.2589,2.4004,2.4192,2.5469,2.7734,2.8264,2.8914]}]]